﻿<?xml version="1.0" encoding="UTF-8"?>
<gpx xmlns="http://www.topografix.com/GPX/1/0" xmlns:xsi="http://www.w3.org/2001/XMLSchema-instance" xsi:schemaLocation="http://www.topografix.com/GPX/1/0 http://www.topografix.com/GPX/1/0/gpx.xsd" creator="Bike Route Toaster http://www.bikeroutetoaster.com" version="1.0">
  <trk>
    <trkseg>
      <trkpt lat="47.7731222971886" lon="9.60490536672296">
        <ele>431</ele>
        <time>2010-07-21T00:00:00Z</time>
        <course>25.6002109803651</course>
        <speed>7.10176590488227</speed>
      </trkpt>
      <trkpt lat="47.77313" lon="9.60491">
        <ele>431</ele>
        <time>2010-07-21T00:00:00Z</time>
        <course>95.4284602541883</course>
        <speed>5.10777076876857</speed>
      </trkpt>
      <trkpt lat="47.77294" lon="9.6074">
        <ele>433</ele>
        <time>2010-07-21T00:00:36Z</time>
        <course>6.64769539894449</course>
        <speed>5.10926524815587</speed>
      </trkpt>
      <trkpt lat="47.77335" lon="9.60746">
        <ele>434</ele>
        <time>2010-07-21T00:00:45Z</time>
        <course>6.64769539894449</course>
        <speed>5.10926524815587</speed>
      </trkpt>
      <trkpt lat="47.77335" lon="9.60746">
        <ele>434</ele>
        <time>2010-07-21T00:00:46Z</time>
        <course>89.9939362499314</course>
        <speed>3.32543961503823</speed>
      </trkpt>
      <trkpt lat="47.77335" lon="9.60781">
        <ele>435</ele>
        <time>2010-07-21T00:00:54Z</time>
        <course>101.636202624484</course>
        <speed>3.32732155775602</speed>
      </trkpt>
      <trkpt lat="47.77324" lon="9.60848">
        <ele>437</ele>
        <time>2010-07-21T00:01:10Z</time>
        <course>14.8679093038756</course>
        <speed>3.3329032614114</speed>
      </trkpt>
      <trkpt lat="47.7733" lon="9.6085">
        <ele>437</ele>
        <time>2010-07-21T00:01:12Z</time>
        <course>99.9840309621461</course>
        <speed>3.32715567337796</speed>
      </trkpt>
      <trkpt lat="47.77322" lon="9.60907">
        <ele>439</ele>
        <time>2010-07-21T00:01:25Z</time>
        <course>99.9840309621461</course>
        <speed>3.32715567337796</speed>
      </trkpt>
      <trkpt lat="47.77322" lon="9.60907">
        <ele>439</ele>
        <time>2010-07-21T00:01:26Z</time>
        <course>102.856836715102</course>
        <speed>2.00710365321913</speed>
      </trkpt>
      <trkpt lat="47.7732" lon="9.60918">
        <ele>439</ele>
        <time>2010-07-21T00:01:30Z</time>
        <course>36.9475258544552</course>
        <speed>2.00767359326831</speed>
      </trkpt>
      <trkpt lat="47.77338" lon="9.60935">
        <ele>441</ele>
        <time>2010-07-21T00:01:42Z</time>
        <course>67.2838649560729</course>
        <speed>2.0075433627813</speed>
      </trkpt>
      <trkpt lat="47.77345" lon="9.60956">
        <ele>443</ele>
        <time>2010-07-21T00:01:50Z</time>
        <course>158.280077740328</course>
        <speed>2.00703989664746</speed>
      </trkpt>
      <trkpt lat="47.77291" lon="9.60983">
        <ele>449</ele>
        <time>2010-07-21T00:02:22Z</time>
        <course>158.280077740328</course>
        <speed>2.00703989664746</speed>
      </trkpt>
      <trkpt lat="47.77291" lon="9.60983">
        <ele>449</ele>
        <time>2010-07-21T00:02:23Z</time>
        <course>163.157629380724</course>
        <speed>4.26748476707424</speed>
      </trkpt>
      <trkpt lat="47.77212" lon="9.61013">
        <ele>451</ele>
        <time>2010-07-21T00:02:44Z</time>
        <course>171.227069000537</course>
        <speed>4.26749597709358</speed>
      </trkpt>
      <trkpt lat="47.77181" lon="9.61019">
        <ele>451</ele>
        <time>2010-07-21T00:02:52Z</time>
        <course>180</course>
        <speed>4.26787709491652</speed>
      </trkpt>
      <trkpt lat="47.77126" lon="9.61019">
        <ele>453</ele>
        <time>2010-07-21T00:03:07Z</time>
        <course>184.277754897391</course>
        <speed>4.26693598849603</speed>
      </trkpt>
      <trkpt lat="47.77094" lon="9.61016">
        <ele>454</ele>
        <time>2010-07-21T00:03:15Z</time>
        <course>189.421275656576</course>
        <speed>3.97007892590497</speed>
      </trkpt>
      <trkpt lat="47.76829" lon="9.60961">
        <ele>462</ele>
        <time>2010-07-21T00:04:30Z</time>
        <course>192.566082787717</course>
        <speed>6.93086572982715</speed>
      </trkpt>
      <trkpt lat="47.76768" lon="9.60944">
        <ele>460</ele>
        <time>2010-07-21T00:04:40Z</time>
        <course>201.477370416395</course>
        <speed>6.93232021070838</speed>
      </trkpt>
      <trkpt lat="47.76495" lon="9.6081">
        <ele>454</ele>
        <time>2010-07-21T00:05:26Z</time>
        <course>210.249086192756</course>
        <speed>6.93454738698577</speed>
      </trkpt>
      <trkpt lat="47.7644" lon="9.6077">
        <ele>453</ele>
        <time>2010-07-21T00:05:36Z</time>
        <course>218.333563338242</course>
        <speed>6.93067176444575</speed>
      </trkpt>
      <trkpt lat="47.76371" lon="9.60702">
        <ele>453</ele>
        <time>2010-07-21T00:05:49Z</time>
        <course>206.631208260193</course>
        <speed>6.93686766418541</speed>
      </trkpt>
      <trkpt lat="47.76355" lon="9.60692">
        <ele>452</ele>
        <time>2010-07-21T00:05:52Z</time>
        <course>193.514997723695</course>
        <speed>6.93233259256504</speed>
      </trkpt>
      <trkpt lat="47.76218" lon="9.60651">
        <ele>452</ele>
        <time>2010-07-21T00:06:14Z</time>
        <course>239.846813722754</course>
        <speed>6.92371886253501</speed>
      </trkpt>
      <trkpt lat="47.76204" lon="9.60621">
        <ele>444</ele>
        <time>2010-07-21T00:06:18Z</time>
        <course>338.120581063076</course>
        <speed>6.96407156807718</speed>
      </trkpt>
      <trkpt lat="47.7621" lon="9.60618">
        <ele>443</ele>
        <time>2010-07-21T00:06:19Z</time>
        <course>338.120581063076</course>
        <speed>6.96407156807718</speed>
      </trkpt>
      <trkpt lat="47.7621" lon="9.60618">
        <ele>443</ele>
        <time>2010-07-21T00:06:20Z</time>
        <course>170.232677770496</course>
        <speed>2.75260353686948</speed>
      </trkpt>
      <trkpt lat="47.76182" lon="9.60624">
        <ele>444</ele>
        <time>2010-07-21T00:06:32Z</time>
        <course>185.217631145002</course>
        <speed>2.75169704947171</speed>
      </trkpt>
      <trkpt lat="47.76138" lon="9.60619">
        <ele>447</ele>
        <time>2010-07-21T00:06:49Z</time>
        <course>197.82256783998</course>
        <speed>2.75279783236835</speed>
      </trkpt>
      <trkpt lat="47.76113" lon="9.60609">
        <ele>448</ele>
        <time>2010-07-21T00:07:00Z</time>
        <course>210.232297314253</course>
        <speed>2.75204169082083</speed>
      </trkpt>
      <trkpt lat="47.76044" lon="9.60559">
        <ele>453</ele>
        <time>2010-07-21T00:07:31Z</time>
        <course>199.179816185232</course>
        <speed>2.75169292103076</speed>
      </trkpt>
      <trkpt lat="47.76007" lon="9.60543">
        <ele>456</ele>
        <time>2010-07-21T00:07:46Z</time>
        <course>182.351762105314</course>
        <speed>5.12037747171561</speed>
      </trkpt>
      <trkpt lat="47.75909" lon="9.60538">
        <ele>457</ele>
        <time>2010-07-21T00:08:08Z</time>
        <course>190.835147945533</course>
        <speed>5.1196544365386</speed>
      </trkpt>
      <trkpt lat="47.75449" lon="9.60429">
        <ele>464</ele>
        <time>2010-07-21T00:09:49Z</time>
        <course>196.067751386769</course>
        <speed>6.93239472374521</speed>
      </trkpt>
      <trkpt lat="47.75106" lon="9.60307">
        <ele>462</ele>
        <time>2010-07-21T00:10:45Z</time>
        <course>206.245136618606</course>
        <speed>6.92977380501448</speed>
      </trkpt>
      <trkpt lat="47.7506" lon="9.60279">
        <ele>460</ele>
        <time>2010-07-21T00:10:53Z</time>
        <course>215.174393148023</course>
        <speed>6.93332008865744</speed>
      </trkpt>
      <trkpt lat="47.74991" lon="9.60219">
        <ele>457</ele>
        <time>2010-07-21T00:11:06Z</time>
        <course>200.879309828475</course>
        <speed>6.92778111057549</speed>
      </trkpt>
      <trkpt lat="47.74957" lon="9.60203">
        <ele>456</ele>
        <time>2010-07-21T00:11:12Z</time>
        <course>195.587299705577</course>
        <speed>6.93310025219852</speed>
      </trkpt>
      <trkpt lat="47.74797" lon="9.60148">
        <ele>451</ele>
        <time>2010-07-21T00:11:38Z</time>
        <course>199.133350603811</course>
        <speed>6.9314080810853</speed>
      </trkpt>
      <trkpt lat="47.74694" lon="9.60104">
        <ele>449</ele>
        <time>2010-07-21T00:11:55Z</time>
        <course>195.159257401054</course>
        <speed>6.93111538945189</speed>
      </trkpt>
      <trkpt lat="47.7458" lon="9.60066">
        <ele>448</ele>
        <time>2010-07-21T00:12:14Z</time>
        <course>148.285320926472</course>
        <speed>4.25612249106098</speed>
      </trkpt>
      <trkpt lat="47.7453" lon="9.60104">
        <ele>449</ele>
        <time>2010-07-21T00:12:29Z</time>
        <course>161.840540188739</course>
        <speed>4.25652799389114</speed>
      </trkpt>
      <trkpt lat="47.74468" lon="9.60129">
        <ele>451</ele>
        <time>2010-07-21T00:12:45Z</time>
        <course>168.015839460233</course>
        <speed>4.25723485615075</speed>
      </trkpt>
      <trkpt lat="47.74422" lon="9.60141">
        <ele>452</ele>
        <time>2010-07-21T00:12:58Z</time>
        <course>170.861644983797</course>
        <speed>4.25675007323876</speed>
      </trkpt>
      <trkpt lat="47.74194" lon="9.60186">
        <ele>458</ele>
        <time>2010-07-21T00:13:58Z</time>
        <course>176.986773557792</course>
        <speed>6.3993328352672</speed>
      </trkpt>
      <trkpt lat="47.74039" lon="9.60196">
        <ele>458</ele>
        <time>2010-07-21T00:14:25Z</time>
        <course>167.985882502085</course>
        <speed>6.39754691907875</speed>
      </trkpt>
      <trkpt lat="47.73897" lon="9.60233">
        <ele>459</ele>
        <time>2010-07-21T00:14:50Z</time>
        <course>155.418560132032</course>
        <speed>5.48516869506994</speed>
      </trkpt>
      <trkpt lat="47.7372" lon="9.60332">
        <ele>461</ele>
        <time>2010-07-21T00:15:28Z</time>
        <course>172.543173926344</course>
        <speed>5.04338792761807</speed>
      </trkpt>
      <trkpt lat="47.7367" lon="9.6034">
        <ele>461</ele>
        <time>2010-07-21T00:15:39Z</time>
        <course>194.341354163765</course>
        <speed>5.04656066841133</speed>
      </trkpt>
      <trkpt lat="47.73654" lon="9.60335">
        <ele>462</ele>
        <time>2010-07-21T00:15:43Z</time>
        <course>194.341354163765</course>
        <speed>5.04656066841133</speed>
      </trkpt>
      <trkpt lat="47.73654" lon="9.60335">
        <ele>462</ele>
        <time>2010-07-21T00:15:44Z</time>
        <course>28.6082604017086</course>
        <speed>6.89309080829638</speed>
      </trkpt>
      <trkpt lat="47.73657" lon="9.60337">
        <ele>462</ele>
        <time>2010-07-21T00:15:44Z</time>
        <course>122.672212425098</course>
        <speed>6.93285983980683</speed>
      </trkpt>
      <trkpt lat="47.73615" lon="9.60417">
        <ele>462</ele>
        <time>2010-07-21T00:15:55Z</time>
        <course>122.672212425098</course>
        <speed>6.93285983980683</speed>
      </trkpt>
      <trkpt lat="47.73615" lon="9.60417">
        <ele>462</ele>
        <time>2010-07-21T00:15:56Z</time>
        <course>217.443801024122</course>
        <speed>6.93319672739592</speed>
      </trkpt>
      <trkpt lat="47.73584" lon="9.60388">
        <ele>461</ele>
        <time>2010-07-21T00:16:02Z</time>
        <course>210.418297955884</course>
        <speed>6.93352659199922</speed>
      </trkpt>
      <trkpt lat="47.73531" lon="9.6035">
        <ele>460</ele>
        <time>2010-07-21T00:16:11Z</time>
        <course>196.668593796835</course>
        <speed>6.93087617223875</speed>
      </trkpt>
      <trkpt lat="47.73427" lon="9.60312">
        <ele>458</ele>
        <time>2010-07-21T00:16:29Z</time>
        <course>196.668593796835</course>
        <speed>6.93087617223875</speed>
      </trkpt>
      <trkpt lat="47.73427" lon="9.60312">
        <ele>458</ele>
        <time>2010-07-21T00:16:30Z</time>
        <course>203.454691176452</course>
        <speed>6.93846813553851</speed>
      </trkpt>
      <trkpt lat="47.7341" lon="9.60303">
        <ele>457</ele>
        <time>2010-07-21T00:16:33Z</time>
        <course>216.759036401343</course>
        <speed>6.93212899086392</speed>
      </trkpt>
      <trkpt lat="47.73365" lon="9.60262">
        <ele>456</ele>
        <time>2010-07-21T00:16:41Z</time>
        <course>222.386257682471</course>
        <speed>6.93152675360192</speed>
      </trkpt>
      <trkpt lat="47.73267" lon="9.60153">
        <ele>454</ele>
        <time>2010-07-21T00:17:01Z</time>
        <course>219.683137647387</course>
        <speed>6.93313840959533</speed>
      </trkpt>
      <trkpt lat="47.73172" lon="9.60057">
        <ele>453</ele>
        <time>2010-07-21T00:17:19Z</time>
        <course>219.683137647387</course>
        <speed>6.93313840959533</speed>
      </trkpt>
      <trkpt lat="47.73172" lon="9.60057">
        <ele>453</ele>
        <time>2010-07-21T00:17:20Z</time>
        <course>218.969125630954</course>
        <speed>6.93142575687449</speed>
      </trkpt>
      <trkpt lat="47.72882" lon="9.59772">
        <ele>453</ele>
        <time>2010-07-21T00:18:16Z</time>
        <course>218.969125630954</course>
        <speed>6.93142575687449</speed>
      </trkpt>
      <trkpt lat="47.72882" lon="9.59772">
        <ele>453</ele>
        <time>2010-07-21T00:18:17Z</time>
        <course>219.439505445655</course>
        <speed>3.65233582776041</speed>
      </trkpt>
      <trkpt lat="47.72879" lon="9.59769">
        <ele>453</ele>
        <time>2010-07-21T00:18:18Z</time>
        <course>115.753979393173</course>
        <speed>3.66359471940586</speed>
      </trkpt>
      <trkpt lat="47.72852" lon="9.59837">
        <ele>455</ele>
        <time>2010-07-21T00:18:34Z</time>
        <course>124.775000738609</course>
        <speed>3.66340202174</speed>
      </trkpt>
      <trkpt lat="47.72832" lon="9.59872">
        <ele>456</ele>
        <time>2010-07-21T00:18:43Z</time>
        <course>132.106745500949</course>
        <speed>3.66306564632372</speed>
      </trkpt>
      <trkpt lat="47.72768" lon="9.59958">
        <ele>459</ele>
        <time>2010-07-21T00:19:09Z</time>
        <course>161.062091959519</course>
        <speed>3.66355366039881</speed>
      </trkpt>
      <trkpt lat="47.7272" lon="9.59978">
        <ele>461</ele>
        <time>2010-07-21T00:19:25Z</time>
        <course>147.153107896868</course>
        <speed>6.93710809939772</speed>
      </trkpt>
      <trkpt lat="47.72683" lon="9.60007">
        <ele>460</ele>
        <time>2010-07-21T00:19:31Z</time>
        <course>141.088732404677</course>
        <speed>6.92953513823247</speed>
      </trkpt>
      <trkpt lat="47.72634" lon="9.60055">
        <ele>459</ele>
        <time>2010-07-21T00:19:41Z</time>
        <course>119.395095454774</course>
        <speed>6.92929193410212</speed>
      </trkpt>
      <trkpt lat="47.72621" lon="9.60083">
        <ele>459</ele>
        <time>2010-07-21T00:19:44Z</time>
        <course>195.35984757848</course>
        <speed>6.92508189229225</speed>
      </trkpt>
      <trkpt lat="47.72612" lon="9.6008">
        <ele>459</ele>
        <time>2010-07-21T00:19:46Z</time>
        <course>161.755009572051</course>
        <speed>6.93206005415444</speed>
      </trkpt>
      <trkpt lat="47.72602" lon="9.60084">
        <ele>459</ele>
        <time>2010-07-21T00:19:48Z</time>
        <course>141.287815758723</course>
        <speed>6.92731973960532</speed>
      </trkpt>
      <trkpt lat="47.72566" lon="9.60119">
        <ele>459</ele>
        <time>2010-07-21T00:19:54Z</time>
        <course>135.593952784691</course>
        <speed>4.5040637417192</speed>
      </trkpt>
      <trkpt lat="47.72459" lon="9.60246">
        <ele>461</ele>
        <time>2010-07-21T00:20:28Z</time>
        <course>142.619597247053</course>
        <speed>4.50272479829147</speed>
      </trkpt>
      <trkpt lat="47.72432" lon="9.60271">
        <ele>462</ele>
        <time>2010-07-21T00:20:36Z</time>
        <course>162.805566110613</course>
        <speed>4.50520313591031</speed>
      </trkpt>
      <trkpt lat="47.72416" lon="9.60277">
        <ele>463</ele>
        <time>2010-07-21T00:20:40Z</time>
        <course>176.30977870965</course>
        <speed>3.09764879425508</speed>
      </trkpt>
      <trkpt lat="47.72352" lon="9.60282">
        <ele>466</ele>
        <time>2010-07-21T00:21:03Z</time>
        <course>157.240950128961</course>
        <speed>3.09797253686641</speed>
      </trkpt>
      <trkpt lat="47.72289" lon="9.60314">
        <ele>469</ele>
        <time>2010-07-21T00:21:27Z</time>
        <course>168.65297360701</course>
        <speed>3.09808365921969</speed>
      </trkpt>
      <trkpt lat="47.72219" lon="9.60331">
        <ele>473</ele>
        <time>2010-07-21T00:21:52Z</time>
        <course>148.581211681671</course>
        <speed>6.92784314120014</speed>
      </trkpt>
      <trkpt lat="47.72196" lon="9.60348">
        <ele>471</ele>
        <time>2010-07-21T00:21:57Z</time>
        <course>134.588237458884</course>
        <speed>6.93692652530862</speed>
      </trkpt>
      <trkpt lat="47.72174" lon="9.60375">
        <ele>470</ele>
        <time>2010-07-21T00:22:01Z</time>
        <course>129.873205603292</course>
        <speed>6.93170133427614</speed>
      </trkpt>
      <trkpt lat="47.72071" lon="9.60524">
        <ele>463</ele>
        <time>2010-07-21T00:22:24Z</time>
        <course>118.484234679839</course>
        <speed>2.36258755239989</speed>
      </trkpt>
      <trkpt lat="47.72049" lon="9.60573">
        <ele>466</ele>
        <time>2010-07-21T00:22:43Z</time>
        <course>105.439578991023</course>
        <speed>2.36183374467301</speed>
      </trkpt>
      <trkpt lat="47.72041" lon="9.60608">
        <ele>468</ele>
        <time>2010-07-21T00:22:54Z</time>
        <course>180</course>
        <speed>6.94499999653431</speed>
      </trkpt>
      <trkpt lat="47.7204" lon="9.60608">
        <ele>468</ele>
        <time>2010-07-21T00:22:55Z</time>
        <course>98.5907263500457</course>
        <speed>6.91230500593127</speed>
      </trkpt>
      <trkpt lat="47.72039" lon="9.60616">
        <ele>467</ele>
        <time>2010-07-21T00:22:56Z</time>
        <course>195.418131831447</course>
        <speed>6.92511893237347</speed>
      </trkpt>
      <trkpt lat="47.7203" lon="9.60613">
        <ele>467</ele>
        <time>2010-07-21T00:22:57Z</time>
        <course>240.581040382587</course>
        <speed>6.92747931431888</speed>
      </trkpt>
      <trkpt lat="47.72016" lon="9.60583">
        <ele>466</ele>
        <time>2010-07-21T00:23:01Z</time>
        <course>202.476950119204</course>
        <speed>6.94744494415419</speed>
      </trkpt>
      <trkpt lat="47.72008" lon="9.60579">
        <ele>466</ele>
        <time>2010-07-21T00:23:02Z</time>
        <course>279.160907081214</course>
        <speed>6.92821403678395</speed>
      </trkpt>
      <trkpt lat="47.72014" lon="9.60534">
        <ele>465</ele>
        <time>2010-07-21T00:23:07Z</time>
        <course>245.415145212581</course>
        <speed>6.93051934746362</speed>
      </trkpt>
      <trkpt lat="47.71989" lon="9.60468">
        <ele>464</ele>
        <time>2010-07-21T00:23:15Z</time>
        <course>259.204723107934</course>
        <speed>6.93098173428261</speed>
      </trkpt>
      <trkpt lat="47.71983" lon="9.6043">
        <ele>464</ele>
        <time>2010-07-21T00:23:20Z</time>
        <course>285.416590471117</course>
        <speed>6.93270901423384</speed>
      </trkpt>
      <trkpt lat="47.71996" lon="9.60373">
        <ele>463</ele>
        <time>2010-07-21T00:23:26Z</time>
        <course>291.263381316563</course>
        <speed>6.93145268406794</speed>
      </trkpt>
      <trkpt lat="47.72076" lon="9.60124">
        <ele>462</ele>
        <time>2010-07-21T00:23:56Z</time>
        <course>279.285367178336</course>
        <speed>4.94946933360967</speed>
      </trkpt>
      <trkpt lat="47.72081" lon="9.60087">
        <ele>462</ele>
        <time>2010-07-21T00:24:02Z</time>
        <course>271.300066299858</course>
        <speed>4.95194879447748</speed>
      </trkpt>
      <trkpt lat="47.72083" lon="9.59979">
        <ele>463</ele>
        <time>2010-07-21T00:24:18Z</time>
        <course>276.14169293296</course>
        <speed>4.95361017414723</speed>
      </trkpt>
      <trkpt lat="47.72087" lon="9.59934">
        <ele>464</ele>
        <time>2010-07-21T00:24:25Z</time>
        <course>298.795693792178</course>
        <speed>4.96205602062719</speed>
      </trkpt>
      <trkpt lat="47.72092" lon="9.59923">
        <ele>464</ele>
        <time>2010-07-21T00:24:27Z</time>
        <course>326.202979054338</course>
        <speed>4.94809942132146</speed>
      </trkpt>
      <trkpt lat="47.72113" lon="9.59906">
        <ele>464</ele>
        <time>2010-07-21T00:24:32Z</time>
        <course>282.893479306548</course>
        <speed>4.95382589969158</speed>
      </trkpt>
      <trkpt lat="47.7212" lon="9.59869">
        <ele>465</ele>
        <time>2010-07-21T00:24:38Z</time>
        <course>260.844621404903</course>
        <speed>6.92807712151962</speed>
      </trkpt>
      <trkpt lat="47.72116" lon="9.59839">
        <ele>464</ele>
        <time>2010-07-21T00:24:41Z</time>
        <course>251.753712419946</course>
        <speed>6.93207930679058</speed>
      </trkpt>
      <trkpt lat="47.72104" lon="9.59795">
        <ele>464</ele>
        <time>2010-07-21T00:24:46Z</time>
        <course>246.365495749666</course>
        <speed>6.93328112950547</speed>
      </trkpt>
      <trkpt lat="47.72054" lon="9.59657">
        <ele>463</ele>
        <time>2010-07-21T00:25:03Z</time>
        <course>213.496803505079</course>
        <speed>6.933587329695</speed>
      </trkpt>
      <trkpt lat="47.72049" lon="9.59653">
        <ele>463</ele>
        <time>2010-07-21T00:25:04Z</time>
        <course>270.00016095346</course>
        <speed>6.79597762669304</speed>
      </trkpt>
      <trkpt lat="47.72049" lon="9.59652">
        <ele>463</ele>
        <time>2010-07-21T00:25:04Z</time>
        <course>202.471521352277</course>
        <speed>6.89635594671124</speed>
      </trkpt>
      <trkpt lat="47.72047" lon="9.59651">
        <ele>462</ele>
        <time>2010-07-21T00:25:05Z</time>
        <course>116.663874614749</course>
        <speed>6.93116656860971</speed>
      </trkpt>
      <trkpt lat="47.71935" lon="9.5992">
        <ele>459</ele>
        <time>2010-07-21T00:25:39Z</time>
        <course>125.519868064816</course>
        <speed>6.93394076359963</speed>
      </trkpt>
      <trkpt lat="47.7188" lon="9.60013">
        <ele>458</ele>
        <time>2010-07-21T00:25:52Z</time>
        <course>118.214472953595</course>
        <speed>6.93166744782231</speed>
      </trkpt>
      <trkpt lat="47.71868" lon="9.6004">
        <ele>458</ele>
        <time>2010-07-21T00:25:56Z</time>
        <course>146.344860736461</course>
        <speed>5.41136056347394</speed>
      </trkpt>
      <trkpt lat="47.7147710071922" lon="9.60353207570734">
        <ele>463</ele>
        <time>2010-07-21T00:27:27Z</time>
        <course>91.1985668989501</course>
        <speed>6.98725077410575</speed>
      </trkpt>
      <trkpt lat="47.71477" lon="9.60359">
        <ele>463</ele>
        <time>2010-07-21T00:27:27Z</time>
        <course>188.480028565893</course>
        <speed>6.92883547153311</speed>
      </trkpt>
      <trkpt lat="47.71438" lon="9.60352">
        <ele>462</ele>
        <time>2010-07-21T00:27:34Z</time>
        <course>202.562747039634</course>
        <speed>6.93420968302836</speed>
      </trkpt>
      <trkpt lat="47.71384" lon="9.60325">
        <ele>461</ele>
        <time>2010-07-21T00:27:43Z</time>
        <course>67.7138315028114</course>
        <speed>6.93334335437356</speed>
      </trkpt>
      <trkpt lat="47.714" lon="9.60372">
        <ele>460</ele>
        <time>2010-07-21T00:27:48Z</time>
        <course>74.8410359050342</course>
        <speed>6.93052057865206</speed>
      </trkpt>
      <trkpt lat="47.71409" lon="9.60412">
        <ele>460</ele>
        <time>2010-07-21T00:27:53Z</time>
        <course>82.3754346487704</course>
        <speed>6.93086956213913</speed>
      </trkpt>
      <trkpt lat="47.71414" lon="9.60457">
        <ele>460</ele>
        <time>2010-07-21T00:27:58Z</time>
        <course>89.2616112544622</course>
        <speed>3.86247408823013</speed>
      </trkpt>
      <trkpt lat="47.71416" lon="9.60652">
        <ele>464</ele>
        <time>2010-07-21T00:28:36Z</time>
        <course>100.106380809021</course>
        <speed>3.86356350919184</speed>
      </trkpt>
      <trkpt lat="47.71412" lon="9.60679">
        <ele>464</ele>
        <time>2010-07-21T00:28:41Z</time>
        <course>117.619602351733</course>
        <speed>3.86298335111551</speed>
      </trkpt>
      <trkpt lat="47.71402" lon="9.60702">
        <ele>465</ele>
        <time>2010-07-21T00:28:46Z</time>
        <course>128.403966475328</course>
        <speed>3.86166677045597</speed>
      </trkpt>
      <trkpt lat="47.71344" lon="9.6079">
        <ele>468</ele>
        <time>2010-07-21T00:29:10Z</time>
        <course>118.92533952338</course>
        <speed>2.34743783360123</speed>
      </trkpt>
      <trkpt lat="47.71327" lon="9.60827">
        <ele>470</ele>
        <time>2010-07-21T00:29:24Z</time>
        <course>101.33310586623</course>
        <speed>2.34894286769481</speed>
      </trkpt>
      <trkpt lat="47.71323" lon="9.60851">
        <ele>471</ele>
        <time>2010-07-21T00:29:32Z</time>
        <course>79.7000181234745</course>
        <speed>2.34745288989282</speed>
      </trkpt>
      <trkpt lat="47.71331" lon="9.60904">
        <ele>474</ele>
        <time>2010-07-21T00:29:50Z</time>
        <course>138.638064356747</course>
        <speed>2.34757426091733</speed>
      </trkpt>
      <trkpt lat="47.71297" lon="9.6094">
        <ele>477</ele>
        <time>2010-07-21T00:30:09Z</time>
        <course>160.384452442551</course>
        <speed>2.34874521094253</speed>
      </trkpt>
      <trkpt lat="47.71276" lon="9.60949">
        <ele>479</ele>
        <time>2010-07-21T00:30:20Z</time>
        <course>181.488901132451</course>
        <speed>2.34760789463679</speed>
      </trkpt>
      <trkpt lat="47.71244" lon="9.60948">
        <ele>482</ele>
        <time>2010-07-21T00:30:35Z</time>
        <course>181.488901132451</course>
        <speed>2.34760789463679</speed>
      </trkpt>
      <trkpt lat="47.71244" lon="9.60948">
        <ele>482</ele>
        <time>2010-07-21T00:30:36Z</time>
        <course>194.643137960102</course>
        <speed>6.93202096186102</speed>
      </trkpt>
      <trkpt lat="47.71158" lon="9.60921">
        <ele>478</ele>
        <time>2010-07-21T00:30:50Z</time>
        <course>186.550814318084</course>
        <speed>6.93004012218593</speed>
      </trkpt>
      <trkpt lat="47.711" lon="9.60913">
        <ele>475</ele>
        <time>2010-07-21T00:30:59Z</time>
        <course>234.225717768955</course>
        <speed>6.93753418026796</speed>
      </trkpt>
      <trkpt lat="47.71085" lon="9.60888">
        <ele>474</ele>
        <time>2010-07-21T00:31:03Z</time>
        <course>209.784413655171</course>
        <speed>6.93306921187357</speed>
      </trkpt>
      <trkpt lat="47.70986" lon="9.6082">
        <ele>470</ele>
        <time>2010-07-21T00:31:20Z</time>
        <course>216.491832802136</course>
        <speed>6.92972508118715</speed>
      </trkpt>
      <trkpt lat="47.70915" lon="9.60757">
        <ele>466</ele>
        <time>2010-07-21T00:31:34Z</time>
        <course>228.029982616562</course>
        <speed>6.9328953639835</speed>
      </trkpt>
      <trkpt lat="47.70885" lon="9.60717">
        <ele>464</ele>
        <time>2010-07-21T00:31:40Z</time>
        <course>253.309705472618</course>
        <speed>6.93619341441856</speed>
      </trkpt>
      <trkpt lat="47.70883" lon="9.60709">
        <ele>464</ele>
        <time>2010-07-21T00:31:41Z</time>
        <course>253.309705472618</course>
        <speed>6.93619341441856</speed>
      </trkpt>
      <trkpt lat="47.70883" lon="9.60709">
        <ele>464</ele>
        <time>2010-07-21T00:31:42Z</time>
        <course>73.3071745674486</course>
        <speed>4.37075201456512</speed>
      </trkpt>
      <trkpt lat="47.70885" lon="9.60717">
        <ele>464</ele>
        <time>2010-07-21T00:31:44Z</time>
        <course>143.571987782496</course>
        <speed>4.38552994850255</speed>
      </trkpt>
      <trkpt lat="47.70807" lon="9.60786">
        <ele>466</ele>
        <time>2010-07-21T00:32:07Z</time>
        <course>168.218754290391</course>
        <speed>4.38449040938631</speed>
      </trkpt>
      <trkpt lat="47.70787" lon="9.60791">
        <ele>466</ele>
        <time>2010-07-21T00:32:12Z</time>
        <course>180.488063380979</course>
        <speed>4.38583033303183</speed>
      </trkpt>
      <trkpt lat="47.70689" lon="9.6079">
        <ele>469</ele>
        <time>2010-07-21T00:32:36Z</time>
        <course>196.16288514137</course>
        <speed>3.41349262634749</speed>
      </trkpt>
      <trkpt lat="47.70591" lon="9.60756">
        <ele>473</ele>
        <time>2010-07-21T00:33:09Z</time>
        <course>201.389250042349</course>
        <speed>3.41337721844969</speed>
      </trkpt>
      <trkpt lat="47.70433" lon="9.60682">
        <ele>480</ele>
        <time>2010-07-21T00:34:03Z</time>
        <course>192.481960807583</course>
        <speed>6.93186867856875</speed>
      </trkpt>
      <trkpt lat="47.70206" lon="9.60622">
        <ele>474</ele>
        <time>2010-07-21T00:34:40Z</time>
        <course>182.180625523208</course>
        <speed>1.71935574405371</speed>
      </trkpt>
      <trkpt lat="47.70162" lon="9.6062">
        <ele>479</ele>
        <time>2010-07-21T00:35:09Z</time>
        <course>178.24727012447</course>
        <speed>1.71932160084372</speed>
      </trkpt>
      <trkpt lat="47.70025" lon="9.60625">
        <ele>496</ele>
        <time>2010-07-21T00:36:37Z</time>
        <course>168.550172043204</course>
        <speed>6.93147545772039</speed>
      </trkpt>
      <trkpt lat="47.69909" lon="9.60653">
        <ele>491</ele>
        <time>2010-07-21T00:36:56Z</time>
        <course>163.131430222011</course>
        <speed>6.93059000488776</speed>
      </trkpt>
      <trkpt lat="47.69801" lon="9.60692">
        <ele>488</ele>
        <time>2010-07-21T00:37:14Z</time>
        <course>163.131430222011</course>
        <speed>6.93059000488776</speed>
      </trkpt>
      <trkpt lat="47.69801" lon="9.60692">
        <ele>488</ele>
        <time>2010-07-21T00:37:15Z</time>
        <course>152.16912924704</course>
        <speed>1.81630827197237</speed>
      </trkpt>
      <trkpt lat="47.69766" lon="9.60714">
        <ele>492</ele>
        <time>2010-07-21T00:37:38Z</time>
        <course>143.415586286466</course>
        <speed>1.81608647084424</speed>
      </trkpt>
      <trkpt lat="47.69706" lon="9.60767">
        <ele>500</ele>
        <time>2010-07-21T00:38:21Z</time>
        <course>168.136452574015</course>
        <speed>1.81562227483575</speed>
      </trkpt>
      <trkpt lat="47.6969" lon="9.60771">
        <ele>502</ele>
        <time>2010-07-21T00:38:31Z</time>
        <course>168.136452574015</course>
        <speed>1.81562227483575</speed>
      </trkpt>
      <trkpt lat="47.6969" lon="9.60771">
        <ele>502</ele>
        <time>2010-07-21T00:38:32Z</time>
        <course>180</course>
        <speed>1.82913580272036</speed>
      </trkpt>
      <trkpt lat="47.69686" lon="9.60771">
        <ele>502</ele>
        <time>2010-07-21T00:38:34Z</time>
        <course>84.1333426563076</course>
        <speed>1.83057124818088</speed>
      </trkpt>
      <trkpt lat="47.69691" lon="9.60829">
        <ele>506</ele>
        <time>2010-07-21T00:38:58Z</time>
        <course>341.423325729329</course>
        <speed>1.82951571859799</speed>
      </trkpt>
      <trkpt lat="47.69701" lon="9.60825">
        <ele>508</ele>
        <time>2010-07-21T00:39:04Z</time>
        <course>341.423325729329</course>
        <speed>1.82951571859799</speed>
      </trkpt>
      <trkpt lat="47.69701" lon="9.60825">
        <ele>508</ele>
        <time>2010-07-21T00:39:05Z</time>
        <course>346.746061238208</course>
        <speed>5.24182246836551</speed>
      </trkpt>
      <trkpt lat="47.69783" lon="9.60802">
        <ele>509</ele>
        <time>2010-07-21T00:39:23Z</time>
        <course>6.67955881729849</course>
        <speed>5.24214537070304</speed>
      </trkpt>
      <trkpt lat="47.69869" lon="9.60814">
        <ele>510</ele>
        <time>2010-07-21T00:39:41Z</time>
        <course>13.9046809180047</course>
        <speed>5.23934747873794</speed>
      </trkpt>
      <trkpt lat="47.6993" lon="9.60832">
        <ele>511</ele>
        <time>2010-07-21T00:39:54Z</time>
        <course>43.3343939278008</course>
        <speed>1.98827258944904</speed>
      </trkpt>
      <trkpt lat="47.6997" lon="9.60877">
        <ele>516</ele>
        <time>2010-07-21T00:40:23Z</time>
        <course>43.3343939278008</course>
        <speed>1.98827258944904</speed>
      </trkpt>
      <trkpt lat="47.6997" lon="9.60877">
        <ele>516</ele>
        <time>2010-07-21T00:40:24Z</time>
        <course>57.2406140721861</course>
        <speed>2.7674724867761</speed>
      </trkpt>
      <trkpt lat="47.70018" lon="9.60966">
        <ele>520</ele>
        <time>2010-07-21T00:40:54Z</time>
        <course>45.951060050583</course>
        <speed>2.76704406043184</speed>
      </trkpt>
      <trkpt lat="47.70112" lon="9.61082">
        <ele>528</ele>
        <time>2010-07-21T00:41:43Z</time>
        <course>52.5002625044025</course>
        <speed>2.48773374840959</speed>
      </trkpt>
      <trkpt lat="47.7013" lon="9.6111">
        <ele>529</ele>
        <time>2010-07-21T00:41:55Z</time>
        <course>54.389597664581</course>
        <speed>2.48914870796675</speed>
      </trkpt>
      <trkpt lat="47.70142" lon="9.6113">
        <ele>531</ele>
        <time>2010-07-21T00:42:03Z</time>
        <course>63.1082535738164</course>
        <speed>2.48867500611598</speed>
      </trkpt>
      <trkpt lat="47.70187" lon="9.61236">
        <ele>537</ele>
        <time>2010-07-21T00:42:41Z</time>
        <course>163.059631738896</course>
        <speed>2.4869364915902</speed>
      </trkpt>
      <trkpt lat="47.70176" lon="9.6124">
        <ele>538</ele>
        <time>2010-07-21T00:42:46Z</time>
        <course>163.059631738896</course>
        <speed>2.4869364915902</speed>
      </trkpt>
      <trkpt lat="47.70176" lon="9.6124">
        <ele>538</ele>
        <time>2010-07-21T00:42:47Z</time>
        <course>343.060883737078</course>
        <speed>6.91423002606945</speed>
      </trkpt>
      <trkpt lat="47.70187" lon="9.61236">
        <ele>537</ele>
        <time>2010-07-21T00:42:49Z</time>
        <course>55.5436229197866</course>
        <speed>6.93366220307808</speed>
      </trkpt>
      <trkpt lat="47.70245" lon="9.61337">
        <ele>535</ele>
        <time>2010-07-21T00:43:03Z</time>
        <course>49.4172129215218</course>
        <speed>6.93315607394403</speed>
      </trkpt>
      <trkpt lat="47.70341" lon="9.61471">
        <ele>532</ele>
        <time>2010-07-21T00:43:24Z</time>
        <course>59.1261466227211</course>
        <speed>6.9329094203083</speed>
      </trkpt>
      <trkpt lat="47.70373" lon="9.61535">
        <ele>530</ele>
        <time>2010-07-21T00:43:33Z</time>
        <course>53.3527931695766</course>
        <speed>6.92916805046412</speed>
      </trkpt>
      <trkpt lat="47.70424" lon="9.61617">
        <ele>529</ele>
        <time>2010-07-21T00:43:45Z</time>
        <course>58.4823721561654</course>
        <speed>6.93050441795761</speed>
      </trkpt>
      <trkpt lat="47.70465" lon="9.61697">
        <ele>528</ele>
        <time>2010-07-21T00:43:56Z</time>
        <course>43.8206017132328</course>
        <speed>6.93136710136507</speed>
      </trkpt>
      <trkpt lat="47.70492" lon="9.61728">
        <ele>526</ele>
        <time>2010-07-21T00:44:01Z</time>
        <course>33.5546596778375</course>
        <speed>6.93157575433881</speed>
      </trkpt>
      <trkpt lat="47.70594" lon="9.61809">
        <ele>521</ele>
        <time>2010-07-21T00:44:20Z</time>
        <course>47.0394231985249</course>
        <speed>6.9263733897951</speed>
      </trkpt>
      <trkpt lat="47.70608" lon="9.61827">
        <ele>521</ele>
        <time>2010-07-21T00:44:23Z</time>
        <course>58.7939464796768</course>
        <speed>6.93114231184272</speed>
      </trkpt>
      <trkpt lat="47.70653" lon="9.61916">
        <ele>518</ele>
        <time>2010-07-21T00:44:35Z</time>
        <course>68.2297334868874</course>
        <speed>6.92983494733626</speed>
      </trkpt>
      <trkpt lat="47.70669" lon="9.61964">
        <ele>515</ele>
        <time>2010-07-21T00:44:40Z</time>
        <course>61.7214634681476</course>
        <speed>6.93648851359908</speed>
      </trkpt>
      <trkpt lat="47.70691" lon="9.62013">
        <ele>512</ele>
        <time>2010-07-21T00:44:47Z</time>
        <course>88.170446683982</course>
        <speed>6.93145615608421</speed>
      </trkpt>
      <trkpt lat="47.70695" lon="9.62165">
        <ele>506</ele>
        <time>2010-07-21T00:45:03Z</time>
        <course>82.8688088871705</course>
        <speed>6.93140463015797</speed>
      </trkpt>
      <trkpt lat="47.70716" lon="9.62367">
        <ele>497</ele>
        <time>2010-07-21T00:45:25Z</time>
        <course>78.6958652422007</course>
        <speed>3.88952224474889</speed>
      </trkpt>
      <trkpt lat="47.70728" lon="9.62439">
        <ele>498</ele>
        <time>2010-07-21T00:45:39Z</time>
        <course>89.9892690027775</course>
        <speed>3.89034436416731</speed>
      </trkpt>
      <trkpt lat="47.70728" lon="9.62507">
        <ele>500</ele>
        <time>2010-07-21T00:45:52Z</time>
        <course>89.9892690027775</course>
        <speed>3.89034436416731</speed>
      </trkpt>
      <trkpt lat="47.70728" lon="9.62507">
        <ele>500</ele>
        <time>2010-07-21T00:45:53Z</time>
        <course>110.392448959222</course>
        <speed>4.23399470559813</speed>
      </trkpt>
      <trkpt lat="47.70719" lon="9.62536">
        <ele>500</ele>
        <time>2010-07-21T00:45:59Z</time>
        <course>128.611761285838</course>
        <speed>4.23855591826158</speed>
      </trkpt>
      <trkpt lat="47.70707" lon="9.62554">
        <ele>500</ele>
        <time>2010-07-21T00:46:04Z</time>
        <course>152.720266116453</course>
        <speed>4.23541824219783</speed>
      </trkpt>
      <trkpt lat="47.70673" lon="9.62575">
        <ele>501</ele>
        <time>2010-07-21T00:46:13Z</time>
        <course>164.727884354345</course>
        <speed>4.23508677506761</speed>
      </trkpt>
      <trkpt lat="47.70621" lon="9.62592">
        <ele>503</ele>
        <time>2010-07-21T00:46:27Z</time>
        <course>147.925136345139</course>
        <speed>4.23368997443568</speed>
      </trkpt>
      <trkpt lat="47.70561" lon="9.62637">
        <ele>505</ele>
        <time>2010-07-21T00:46:45Z</time>
        <course>130.836084878989</course>
        <speed>3.99685650806683</speed>
      </trkpt>
      <trkpt lat="47.70548" lon="9.62655">
        <ele>505</ele>
        <time>2010-07-21T00:46:50Z</time>
        <course>115.368041240454</course>
        <speed>3.99981461589036</speed>
      </trkpt>
      <trkpt lat="47.70473" lon="9.62844">
        <ele>509</ele>
        <time>2010-07-21T00:47:31Z</time>
        <course>123.209446125679</course>
        <speed>3.99919983891721</speed>
      </trkpt>
      <trkpt lat="47.70427" lon="9.62928">
        <ele>512</ele>
        <time>2010-07-21T00:47:51Z</time>
        <course>118.182485092336</course>
        <speed>6.92999942971304</speed>
      </trkpt>
      <trkpt lat="47.70401" lon="9.62986">
        <ele>512</ele>
        <time>2010-07-21T00:47:59Z</time>
        <course>100.040060725062</course>
        <speed>6.93755184072736</speed>
      </trkpt>
      <trkpt lat="47.70397" lon="9.63013">
        <ele>512</ele>
        <time>2010-07-21T00:48:02Z</time>
        <course>87.9807401037238</course>
        <speed>6.93440963557914</speed>
      </trkpt>
      <trkpt lat="47.70398" lon="9.63047">
        <ele>512</ele>
        <time>2010-07-21T00:48:05Z</time>
        <course>65.4534282973333</course>
        <speed>6.93363001700939</speed>
      </trkpt>
      <trkpt lat="47.70419" lon="9.63102">
        <ele>512</ele>
        <time>2010-07-21T00:48:12Z</time>
        <course>57.474993407152</course>
        <speed>6.93035251533285</speed>
      </trkpt>
      <trkpt lat="47.70484" lon="9.63224">
        <ele>512</ele>
        <time>2010-07-21T00:48:29Z</time>
        <course>80.9303632987714</course>
        <speed>3.29532288174457</speed>
      </trkpt>
      <trkpt lat="47.7049" lon="9.63269">
        <ele>513</ele>
        <time>2010-07-21T00:48:39Z</time>
        <course>109.381649093914</course>
        <speed>3.29534563890878</speed>
      </trkpt>
      <trkpt lat="47.70485" lon="9.63286">
        <ele>513</ele>
        <time>2010-07-21T00:48:43Z</time>
        <course>141.801559512128</course>
        <speed>3.29316894991636</speed>
      </trkpt>
      <trkpt lat="47.70468" lon="9.63302">
        <ele>514</ele>
        <time>2010-07-21T00:48:50Z</time>
        <course>151.203235189535</course>
        <speed>3.29525536612217</speed>
      </trkpt>
      <trkpt lat="47.70398" lon="9.63348">
        <ele>518</ele>
        <time>2010-07-21T00:49:16Z</time>
        <course>158.29562041346</course>
        <speed>3.29562205842533</speed>
      </trkpt>
      <trkpt lat="47.70316" lon="9.63387">
        <ele>522</ele>
        <time>2010-07-21T00:49:45Z</time>
        <course>165.554167748215</course>
        <speed>2.40339641325088</speed>
      </trkpt>
      <trkpt lat="47.70251" lon="9.63407">
        <ele>527</ele>
        <time>2010-07-21T00:50:16Z</time>
        <course>149.98725495794</course>
        <speed>2.40368668234749</speed>
      </trkpt>
      <trkpt lat="47.70193" lon="9.63447">
        <ele>531</ele>
        <time>2010-07-21T00:50:45Z</time>
        <course>165.697597478761</course>
        <speed>2.40444176438774</speed>
      </trkpt>
      <trkpt lat="47.7017" lon="9.63454">
        <ele>533</ele>
        <time>2010-07-21T00:50:56Z</time>
        <course>175.045561124414</course>
        <speed>2.40348227159885</speed>
      </trkpt>
      <trkpt lat="47.70112" lon="9.6346">
        <ele>538</ele>
        <time>2010-07-21T00:51:23Z</time>
        <course>168.167666113212</course>
        <speed>6.9342653714501</speed>
      </trkpt>
      <trkpt lat="47.70108" lon="9.63461">
        <ele>538</ele>
        <time>2010-07-21T00:51:24Z</time>
        <course>168.167666113212</course>
        <speed>6.9342653714501</speed>
      </trkpt>
      <trkpt lat="47.70108" lon="9.63461">
        <ele>538</ele>
        <time>2010-07-21T00:51:25Z</time>
        <course>348.167978769558</course>
        <speed>6.9342653714501</speed>
      </trkpt>
      <trkpt lat="47.70112" lon="9.6346">
        <ele>537</ele>
        <time>2010-07-21T00:51:25Z</time>
        <course>125.869112207866</course>
        <speed>6.93330794976972</speed>
      </trkpt>
      <trkpt lat="47.70092" lon="9.63493">
        <ele>535</ele>
        <time>2010-07-21T00:51:30Z</time>
        <course>136.324202087644</course>
        <speed>6.93290286509298</speed>
      </trkpt>
      <trkpt lat="47.70056" lon="9.63534">
        <ele>532</ele>
        <time>2010-07-21T00:51:37Z</time>
        <course>125.009979439384</course>
        <speed>6.93315396293611</speed>
      </trkpt>
      <trkpt lat="47.69999" lon="9.63631">
        <ele>526</ele>
        <time>2010-07-21T00:51:51Z</time>
        <course>115.835617524512</course>
        <speed>6.93628538745759</speed>
      </trkpt>
      <trkpt lat="47.69973" lon="9.63695">
        <ele>523</ele>
        <time>2010-07-21T00:51:59Z</time>
        <course>109.252390949648</course>
        <speed>6.93704460755483</speed>
      </trkpt>
      <trkpt lat="47.69956" lon="9.63753">
        <ele>521</ele>
        <time>2010-07-21T00:52:06Z</time>
        <course>99.65945650375</course>
        <speed>6.93217803059859</speed>
      </trkpt>
      <trkpt lat="47.69951" lon="9.63788">
        <ele>520</ele>
        <time>2010-07-21T00:52:10Z</time>
        <course>89.9897075463666</course>
        <speed>6.93239652096539</speed>
      </trkpt>
      <trkpt lat="47.69951" lon="9.63854">
        <ele>518</ele>
        <time>2010-07-21T00:52:17Z</time>
        <course>105.961861074733</course>
        <speed>6.94044670347918</speed>
      </trkpt>
      <trkpt lat="47.69945" lon="9.63879">
        <ele>518</ele>
        <time>2010-07-21T00:52:20Z</time>
        <course>129.197107582299</course>
        <speed>6.9393135071544</speed>
      </trkpt>
      <trkpt lat="47.69932" lon="9.63898">
        <ele>517</ele>
        <time>2010-07-21T00:52:23Z</time>
        <course>149.677700504076</course>
        <speed>6.93552184589171</speed>
      </trkpt>
      <trkpt lat="47.69899" lon="9.63921">
        <ele>516</ele>
        <time>2010-07-21T00:52:29Z</time>
        <course>109.110724021336</course>
        <speed>6.93664005250419</speed>
      </trkpt>
      <trkpt lat="47.69883" lon="9.63976">
        <ele>515</ele>
        <time>2010-07-21T00:52:35Z</time>
        <course>132.821724125796</course>
        <speed>6.95018512281274</speed>
      </trkpt>
      <trkpt lat="47.69876" lon="9.63985">
        <ele>515</ele>
        <time>2010-07-21T00:52:37Z</time>
        <course>159.304782242601</course>
        <speed>6.93161395523197</speed>
      </trkpt>
      <trkpt lat="47.69836" lon="9.64003">
        <ele>514</ele>
        <time>2010-07-21T00:52:43Z</time>
        <course>134.370810167438</course>
        <speed>6.92680185146125</speed>
      </trkpt>
      <trkpt lat="47.69813" lon="9.64031">
        <ele>513</ele>
        <time>2010-07-21T00:52:48Z</time>
        <course>123.005567735895</course>
        <speed>6.92099996282445</speed>
      </trkpt>
      <trkpt lat="47.69801" lon="9.64053">
        <ele>513</ele>
        <time>2010-07-21T00:52:51Z</time>
        <course>112.226303686518</course>
        <speed>6.93104536123541</speed>
      </trkpt>
      <trkpt lat="47.69756" lon="9.64184">
        <ele>512</ele>
        <time>2010-07-21T00:53:07Z</time>
        <course>115.548317433525</course>
        <speed>5.44324140299065</speed>
      </trkpt>
      <trkpt lat="47.6968" lon="9.64373">
        <ele>513</ele>
        <time>2010-07-21T00:53:37Z</time>
        <course>107.141581843146</course>
        <speed>5.45077097571408</speed>
      </trkpt>
      <trkpt lat="47.69673" lon="9.644">
        <ele>513</ele>
        <time>2010-07-21T00:53:41Z</time>
        <course>96.1706840911863</course>
        <speed>5.44366520846078</speed>
      </trkpt>
      <trkpt lat="47.69671" lon="9.64422">
        <ele>514</ele>
        <time>2010-07-21T00:53:44Z</time>
        <course>83.650832407679</course>
        <speed>5.83204087137727</speed>
      </trkpt>
      <trkpt lat="47.69678" lon="9.64497">
        <ele>514</ele>
        <time>2010-07-21T00:53:54Z</time>
        <course>79.5575117774727</course>
        <speed>5.83355398702236</speed>
      </trkpt>
      <trkpt lat="47.69693" lon="9.64594">
        <ele>514</ele>
        <time>2010-07-21T00:54:07Z</time>
        <course>76.824562168225</course>
        <speed>5.83143804423791</speed>
      </trkpt>
      <trkpt lat="47.69734" lon="9.64803">
        <ele>516</ele>
        <time>2010-07-21T00:54:35Z</time>
        <course>76.824562168225</course>
        <speed>5.83143804423791</speed>
      </trkpt>
      <trkpt lat="47.69734" lon="9.64803">
        <ele>516</ele>
        <time>2010-07-21T00:54:36Z</time>
        <course>80.3474327620337</course>
        <speed>6.95046304245134</speed>
      </trkpt>
      <trkpt lat="47.69735" lon="9.6481">
        <ele>515</ele>
        <time>2010-07-21T00:54:37Z</time>
        <course>171.206530118018</course>
        <speed>6.93219871365066</speed>
      </trkpt>
      <trkpt lat="47.6961" lon="9.64833">
        <ele>515</ele>
        <time>2010-07-21T00:54:57Z</time>
        <course>179.47612927947</course>
        <speed>6.93106005553458</speed>
      </trkpt>
      <trkpt lat="47.69518" lon="9.64834">
        <ele>515</ele>
        <time>2010-07-21T00:55:12Z</time>
        <course>182.824111169141</course>
        <speed>6.93282633307693</speed>
      </trkpt>
      <trkpt lat="47.69296" lon="9.64821">
        <ele>515</ele>
        <time>2010-07-21T00:55:47Z</time>
        <course>173.260321520478</course>
        <speed>4.05110465919965</speed>
      </trkpt>
      <trkpt lat="47.69189" lon="9.64836">
        <ele>518</ele>
        <time>2010-07-21T00:56:17Z</time>
        <course>165.933777950255</course>
        <speed>4.04998038062706</speed>
      </trkpt>
      <trkpt lat="47.69088" lon="9.64866">
        <ele>521</ele>
        <time>2010-07-21T00:56:45Z</time>
        <course>155.736565134972</course>
        <speed>5.1469612116108</speed>
      </trkpt>
      <trkpt lat="47.68985" lon="9.64921">
        <ele>522</ele>
        <time>2010-07-21T00:57:09Z</time>
        <course>152.266169765351</course>
        <speed>5.1469233723128</speed>
      </trkpt>
      <trkpt lat="47.68887" lon="9.64982">
        <ele>524</ele>
        <time>2010-07-21T00:57:31Z</time>
        <course>184.599468937416</course>
        <speed>6.9386071505543</speed>
      </trkpt>
      <trkpt lat="47.68866" lon="9.6498">
        <ele>523</ele>
        <time>2010-07-21T00:57:35Z</time>
        <course>153.118749523646</course>
        <speed>6.93526464510628</speed>
      </trkpt>
      <trkpt lat="47.68841" lon="9.64995">
        <ele>523</ele>
        <time>2010-07-21T00:57:39Z</time>
        <course>42.6623665699317</course>
        <speed>6.92468194544691</speed>
      </trkpt>
      <trkpt lat="47.68852" lon="9.65007">
        <ele>523</ele>
        <time>2010-07-21T00:57:41Z</time>
        <course>42.6623665699317</course>
        <speed>6.92468194544691</speed>
      </trkpt>
      <trkpt lat="47.68852" lon="9.65007">
        <ele>523</ele>
        <time>2010-07-21T00:57:42Z</time>
        <course>222.666045350769</course>
        <speed>6.92468194544691</speed>
      </trkpt>
      <trkpt lat="47.68841" lon="9.64995">
        <ele>522</ele>
        <time>2010-07-21T00:57:45Z</time>
        <course>139.804931567815</course>
        <speed>6.94048569142309</speed>
      </trkpt>
      <trkpt lat="47.68831" lon="9.65005">
        <ele>522</ele>
        <time>2010-07-21T00:57:46Z</time>
        <course>123.890863366763</course>
        <speed>6.92928243122026</speed>
      </trkpt>
      <trkpt lat="47.68785" lon="9.65086">
        <ele>522</ele>
        <time>2010-07-21T00:57:58Z</time>
        <course>99.5919693630986</course>
        <speed>6.95167538655274</speed>
      </trkpt>
      <trkpt lat="47.68783" lon="9.651">
        <ele>522</ele>
        <time>2010-07-21T00:57:59Z</time>
        <course>117.341920418668</course>
        <speed>6.93288545163997</speed>
      </trkpt>
      <trkpt lat="47.6872" lon="9.65244">
        <ele>522</ele>
        <time>2010-07-21T00:58:18Z</time>
        <course>109.471416014564</course>
        <speed>6.93309554676037</speed>
      </trkpt>
      <trkpt lat="47.6867" lon="9.65411">
        <ele>522</ele>
        <time>2010-07-21T00:58:38Z</time>
        <course>118.546098786615</course>
        <speed>6.92850894543722</speed>
      </trkpt>
      <trkpt lat="47.68641" lon="9.65474">
        <ele>522</ele>
        <time>2010-07-21T00:58:46Z</time>
        <course>122.9543091079</course>
        <speed>6.93045924433859</speed>
      </trkpt>
      <trkpt lat="47.68557" lon="9.65627">
        <ele>522</ele>
        <time>2010-07-21T00:59:07Z</time>
        <course>118.915578161464</course>
        <speed>4.67902482588413</speed>
      </trkpt>
      <trkpt lat="47.68528" lon="9.65689">
        <ele>522</ele>
        <time>2010-07-21T00:59:19Z</time>
        <course>112.621006403193</course>
        <speed>4.67714373382584</speed>
      </trkpt>
      <trkpt lat="47.68504" lon="9.65757">
        <ele>523</ele>
        <time>2010-07-21T00:59:32Z</time>
        <course>107.922937615366</course>
        <speed>4.6777285288133</speed>
      </trkpt>
      <trkpt lat="47.68445" lon="9.65972">
        <ele>527</ele>
        <time>2010-07-21T01:00:09Z</time>
        <course>113.117156048072</course>
        <speed>5.54346235754514</speed>
      </trkpt>
      <trkpt lat="47.68428" lon="9.66019">
        <ele>527</ele>
        <time>2010-07-21T01:00:16Z</time>
        <course>118.985095782263</course>
        <speed>5.54618075922534</speed>
      </trkpt>
      <trkpt lat="47.68277" lon="9.6634">
        <ele>530</ele>
        <time>2010-07-21T01:01:09Z</time>
        <course>137.642667664544</course>
        <speed>6.92769831647124</speed>
      </trkpt>
      <trkpt lat="47.68237" lon="9.66383">
        <ele>528</ele>
        <time>2010-07-21T01:01:17Z</time>
        <course>157.536628050556</course>
        <speed>6.93209463821372</speed>
      </trkpt>
      <trkpt lat="47.68046" lon="9.66476">
        <ele>520</ele>
        <time>2010-07-21T01:01:49Z</time>
        <course>152.030292231812</course>
        <speed>3.21485741204378</speed>
      </trkpt>
      <trkpt lat="47.6795" lon="9.66536">
        <ele>524</ele>
        <time>2010-07-21T01:02:25Z</time>
        <course>159.866621595364</course>
        <speed>3.21421508629784</speed>
      </trkpt>
      <trkpt lat="47.67899" lon="9.66558">
        <ele>527</ele>
        <time>2010-07-21T01:02:43Z</time>
        <course>179.48140355287</course>
        <speed>3.21450929124276</speed>
      </trkpt>
      <trkpt lat="47.67711" lon="9.6656">
        <ele>536</ele>
        <time>2010-07-21T01:03:48Z</time>
        <course>169.79361454906</course>
        <speed>3.1928645030137</speed>
      </trkpt>
      <trkpt lat="47.67659" lon="9.66571">
        <ele>538</ele>
        <time>2010-07-21T01:04:07Z</time>
        <course>162.356454462652</course>
        <speed>3.19346258222019</speed>
      </trkpt>
      <trkpt lat="47.67576" lon="9.66602">
        <ele>542</ele>
        <time>2010-07-21T01:04:36Z</time>
        <course>150.837424288661</course>
        <speed>3.19321133681633</speed>
      </trkpt>
      <trkpt lat="47.67547" lon="9.66621">
        <ele>543</ele>
        <time>2010-07-21T01:04:47Z</time>
        <course>137.231656075251</course>
        <speed>3.19259790351115</speed>
      </trkpt>
      <trkpt lat="47.67512" lon="9.66659">
        <ele>546</ele>
        <time>2010-07-21T01:05:02Z</time>
        <course>125.0649298567</course>
        <speed>2.38106286107969</speed>
      </trkpt>
      <trkpt lat="47.6743" lon="9.66796">
        <ele>555</ele>
        <time>2010-07-21T01:06:00Z</time>
        <course>130.464623677463</course>
        <speed>2.38126193865411</speed>
      </trkpt>
      <trkpt lat="47.67398" lon="9.6684">
        <ele>558</ele>
        <time>2010-07-21T01:06:20Z</time>
        <course>146.243475661177</course>
        <speed>2.3803867648284</speed>
      </trkpt>
      <trkpt lat="47.67361" lon="9.66869">
        <ele>562</ele>
        <time>2010-07-21T01:06:40Z</time>
        <course>160.558882520571</course>
        <speed>3.27161914010957</speed>
      </trkpt>
      <trkpt lat="47.67303" lon="9.66893">
        <ele>564</ele>
        <time>2010-07-21T01:07:00Z</time>
        <course>180</course>
        <speed>3.2715532994392</speed>
      </trkpt>
      <trkpt lat="47.67274" lon="9.66893">
        <ele>566</ele>
        <time>2010-07-21T01:07:10Z</time>
        <course>180</course>
        <speed>3.2715532994392</speed>
      </trkpt>
      <trkpt lat="47.67274" lon="9.66893">
        <ele>566</ele>
        <time>2010-07-21T01:07:11Z</time>
        <course>180</course>
        <speed>6.93166986564536</speed>
      </trkpt>
      <trkpt lat="47.67144" lon="9.66893">
        <ele>558</ele>
        <time>2010-07-21T01:07:32Z</time>
        <course>166.805206928831</course>
        <speed>6.93517302214656</speed>
      </trkpt>
      <trkpt lat="47.67093" lon="9.66907">
        <ele>555</ele>
        <time>2010-07-21T01:07:40Z</time>
        <course>156.867625496133</course>
        <speed>3.49824328646553</speed>
      </trkpt>
      <trkpt lat="47.67033" lon="9.66937">
        <ele>557</ele>
        <time>2010-07-21T01:08:00Z</time>
        <course>138.725131916558</course>
        <speed>3.49819578986953</speed>
      </trkpt>
      <trkpt lat="47.66996" lon="9.66975">
        <ele>559</ele>
        <time>2010-07-21T01:08:15Z</time>
        <course>145.557090427207</course>
        <speed>3.4978643796262</speed>
      </trkpt>
      <trkpt lat="47.6689" lon="9.6706">
        <ele>564</ele>
        <time>2010-07-21T01:08:53Z</time>
        <course>166.173927205611</course>
        <speed>6.93168612126296</speed>
      </trkpt>
      <trkpt lat="47.66817" lon="9.67081">
        <ele>562</ele>
        <time>2010-07-21T01:09:05Z</time>
        <course>171.34987124456</course>
        <speed>6.92724580075473</speed>
      </trkpt>
      <trkpt lat="47.66772" lon="9.67089">
        <ele>560</ele>
        <time>2010-07-21T01:09:12Z</time>
        <course>182.029752278106</course>
        <speed>6.93275472080186</speed>
      </trkpt>
      <trkpt lat="47.66627" lon="9.67083">
        <ele>557</ele>
        <time>2010-07-21T01:09:35Z</time>
        <course>173.887408239792</course>
        <speed>3.13752959390228</speed>
      </trkpt>
      <trkpt lat="47.66579" lon="9.67089">
        <ele>559</ele>
        <time>2010-07-21T01:09:53Z</time>
        <course>167.730974625788</course>
        <speed>3.13791118595736</speed>
      </trkpt>
      <trkpt lat="47.66512" lon="9.67106">
        <ele>562</ele>
        <time>2010-07-21T01:10:17Z</time>
        <course>177.416592263791</course>
        <speed>3.13908748095617</speed>
      </trkpt>
      <trkpt lat="47.66474" lon="9.67108">
        <ele>564</ele>
        <time>2010-07-21T01:10:30Z</time>
        <course>182.233864368826</course>
        <speed>3.13813659904633</speed>
      </trkpt>
      <trkpt lat="47.66298" lon="9.671">
        <ele>573</ele>
        <time>2010-07-21T01:11:32Z</time>
        <course>162.953110359988</course>
        <speed>6.93262725388106</speed>
      </trkpt>
      <trkpt lat="47.66228" lon="9.67125">
        <ele>569</ele>
        <time>2010-07-21T01:11:44Z</time>
        <course>145.50677174543</course>
        <speed>6.9353362380619</speed>
      </trkpt>
      <trkpt lat="47.66173" lon="9.67169">
        <ele>566</ele>
        <time>2010-07-21T01:11:54Z</time>
        <course>161.881303552196</course>
        <speed>6.92271316659038</speed>
      </trkpt>
      <trkpt lat="47.66152" lon="9.67177">
        <ele>565</ele>
        <time>2010-07-21T01:11:57Z</time>
        <course>170.384408008806</course>
        <speed>6.93316766577449</speed>
      </trkpt>
      <trkpt lat="47.66015" lon="9.67204">
        <ele>559</ele>
        <time>2010-07-21T01:12:20Z</time>
        <course>159.226828084829</course>
        <speed>6.92679358670301</speed>
      </trkpt>
      <trkpt lat="47.65981" lon="9.67219">
        <ele>558</ele>
        <time>2010-07-21T01:12:25Z</time>
        <course>152.023889215116</course>
        <speed>6.93552623110625</speed>
      </trkpt>
      <trkpt lat="47.65947" lon="9.6724">
        <ele>558</ele>
        <time>2010-07-21T01:12:31Z</time>
        <course>136.161581551129</course>
        <speed>6.93035487129736</speed>
      </trkpt>
      <trkpt lat="47.65878" lon="9.67317">
        <ele>557</ele>
        <time>2010-07-21T01:12:45Z</time>
        <course>144.851632746008</course>
        <speed>6.93197385986929</speed>
      </trkpt>
      <trkpt lat="47.65845" lon="9.67344">
        <ele>557</ele>
        <time>2010-07-21T01:12:51Z</time>
        <course>155.890095208394</course>
        <speed>5.6172981143231</speed>
      </trkpt>
      <trkpt lat="47.6582" lon="9.67357">
        <ele>557</ele>
        <time>2010-07-21T01:12:56Z</time>
        <course>174.21737668549</course>
        <speed>5.61470099970218</speed>
      </trkpt>
      <trkpt lat="47.65786" lon="9.67361">
        <ele>557</ele>
        <time>2010-07-21T01:13:03Z</time>
        <course>188.166857798792</course>
        <speed>5.61168359348048</speed>
      </trkpt>
      <trkpt lat="47.65732" lon="9.67352">
        <ele>558</ele>
        <time>2010-07-21T01:13:14Z</time>
        <course>177.534162544051</course>
        <speed>5.61530302111626</speed>
      </trkpt>
      <trkpt lat="47.65692" lon="9.67354">
        <ele>558</ele>
        <time>2010-07-21T01:13:22Z</time>
        <course>163.705425849716</course>
        <speed>5.61402858745321</speed>
      </trkpt>
      <trkpt lat="47.65636" lon="9.67373">
        <ele>559</ele>
        <time>2010-07-21T01:13:33Z</time>
        <course>180</course>
        <speed>6.92980306340366</speed>
      </trkpt>
      <trkpt lat="47.65579" lon="9.67373">
        <ele>554</ele>
        <time>2010-07-21T01:13:42Z</time>
        <course>204.65562237538</course>
        <speed>6.93311024693241</speed>
      </trkpt>
      <trkpt lat="47.65423" lon="9.6729">
        <ele>541</ele>
        <time>2010-07-21T01:14:09Z</time>
        <course>188.786291681128</course>
        <speed>6.93070918608062</speed>
      </trkpt>
      <trkpt lat="47.65356" lon="9.67278">
        <ele>537</ele>
        <time>2010-07-21T01:14:20Z</time>
        <course>172.074517201022</course>
        <speed>6.92998305642686</speed>
      </trkpt>
      <trkpt lat="47.65325" lon="9.67283">
        <ele>535</ele>
        <time>2010-07-21T01:14:25Z</time>
        <course>154.785863791295</course>
        <speed>6.92668720848041</speed>
      </trkpt>
      <trkpt lat="47.65303" lon="9.67295">
        <ele>534</ele>
        <time>2010-07-21T01:14:28Z</time>
        <course>140.641139395028</course>
        <speed>6.92521329379204</speed>
      </trkpt>
      <trkpt lat="47.65283" lon="9.67314">
        <ele>532</ele>
        <time>2010-07-21T01:14:32Z</time>
        <course>125.245764244342</course>
        <speed>6.93219586912955</speed>
      </trkpt>
      <trkpt lat="47.65236" lon="9.67391">
        <ele>529</ele>
        <time>2010-07-21T01:14:43Z</time>
        <course>117.516422456131</course>
        <speed>4.23122070586633</speed>
      </trkpt>
      <trkpt lat="47.65218" lon="9.67431">
        <ele>529</ele>
        <time>2010-07-21T01:14:52Z</time>
        <course>100.91969492058</course>
        <speed>4.23168935472726</speed>
      </trkpt>
      <trkpt lat="47.65215" lon="9.67449">
        <ele>530</ele>
        <time>2010-07-21T01:14:55Z</time>
        <course>69.9068567991207</course>
        <speed>4.23379917616021</speed>
      </trkpt>
      <trkpt lat="47.65233" lon="9.67506">
        <ele>531</ele>
        <time>2010-07-21T01:15:06Z</time>
        <course>87.2342635674573</course>
        <speed>4.23509947736131</speed>
      </trkpt>
      <trkpt lat="47.65234" lon="9.6753">
        <ele>531</ele>
        <time>2010-07-21T01:15:11Z</time>
        <course>111.100987915714</course>
        <speed>4.23225858160648</speed>
      </trkpt>
      <trkpt lat="47.65224" lon="9.6756">
        <ele>532</ele>
        <time>2010-07-21T01:15:16Z</time>
        <course>134.199642541101</course>
        <speed>4.23082713186398</speed>
      </trkpt>
      <trkpt lat="47.65203" lon="9.67585">
        <ele>532</ele>
        <time>2010-07-21T01:15:24Z</time>
        <course>154.36426308635</course>
        <speed>4.23737813562184</speed>
      </trkpt>
      <trkpt lat="47.65194" lon="9.6759">
        <ele>533</ele>
        <time>2010-07-21T01:15:26Z</time>
        <course>173.834844173414</course>
        <speed>4.23244800805315</speed>
      </trkpt>
      <trkpt lat="47.65122" lon="9.67599">
        <ele>535</ele>
        <time>2010-07-21T01:15:45Z</time>
        <course>153.418368915404</course>
        <speed>4.02515963290608</speed>
      </trkpt>
      <trkpt lat="47.65103" lon="9.6761">
        <ele>535</ele>
        <time>2010-07-21T01:15:51Z</time>
        <course>120.894663374497</course>
        <speed>4.02485601511965</speed>
      </trkpt>
      <trkpt lat="47.65088" lon="9.67639">
        <ele>536</ele>
        <time>2010-07-21T01:15:57Z</time>
        <course>106.714160731122</course>
        <speed>4.02705314969078</speed>
      </trkpt>
      <trkpt lat="47.65068" lon="9.67716">
        <ele>537</ele>
        <time>2010-07-21T01:16:13Z</time>
        <course>116.894990270046</course>
        <speed>4.02704162488615</speed>
      </trkpt>
      <trkpt lat="47.65025" lon="9.67814">
        <ele>540</ele>
        <time>2010-07-21T01:16:35Z</time>
        <course>134.375290789245</course>
        <speed>4.02677675239417</speed>
      </trkpt>
      <trkpt lat="47.65003" lon="9.6784">
        <ele>541</ele>
        <time>2010-07-21T01:16:42Z</time>
        <course>150.031964068411</course>
        <speed>4.04044260958069</speed>
      </trkpt>
      <trkpt lat="47.64976" lon="9.67858">
        <ele>541</ele>
        <time>2010-07-21T01:16:50Z</time>
        <course>174.50966653168</course>
        <speed>4.03978924985445</speed>
      </trkpt>
      <trkpt lat="47.6494" lon="9.67862">
        <ele>542</ele>
        <time>2010-07-21T01:17:00Z</time>
        <course>89.9991377195718</course>
        <speed>4.04636239942225</speed>
      </trkpt>
      <trkpt lat="47.6494" lon="9.67868">
        <ele>543</ele>
        <time>2010-07-21T01:17:01Z</time>
        <course>89.9991377195718</course>
        <speed>4.04636239942225</speed>
      </trkpt>
      <trkpt lat="47.6494" lon="9.67868">
        <ele>543</ele>
        <time>2010-07-21T01:17:02Z</time>
        <course>96.2211196985214</course>
        <speed>2.82639196353799</speed>
      </trkpt>
      <trkpt lat="47.64924" lon="9.68037">
        <ele>549</ele>
        <time>2010-07-21T01:17:48Z</time>
        <course>72.0464761962253</course>
        <speed>2.82657601328553</speed>
      </trkpt>
      <trkpt lat="47.64959" lon="9.68162">
        <ele>555</ele>
        <time>2010-07-21T01:18:24Z</time>
        <course>89.9856239500679</course>
        <speed>6.93124370944436</speed>
      </trkpt>
      <trkpt lat="47.64959" lon="9.68262">
        <ele>554</ele>
        <time>2010-07-21T01:18:34Z</time>
        <course>100.389235237032</course>
        <speed>6.93156829494939</speed>
      </trkpt>
      <trkpt lat="47.64949" lon="9.68325">
        <ele>553</ele>
        <time>2010-07-21T01:18:41Z</time>
        <course>120.623090096859</course>
        <speed>6.93440382018701</speed>
      </trkpt>
      <trkpt lat="47.64928" lon="9.68366">
        <ele>553</ele>
        <time>2010-07-21T01:18:47Z</time>
        <course>139.545996902493</course>
        <speed>6.93107144096987</speed>
      </trkpt>
      <trkpt lat="47.64798" lon="9.68494">
        <ele>552</ele>
        <time>2010-07-21T01:19:12Z</time>
        <course>131.156013829532</course>
        <speed>6.1395392949782</speed>
      </trkpt>
      <trkpt lat="47.64745" lon="9.68564">
        <ele>552</ele>
        <time>2010-07-21T01:19:25Z</time>
        <course>144.170002681246</course>
        <speed>6.14139890220696</speed>
      </trkpt>
      <trkpt lat="47.64685" lon="9.68614">
        <ele>552</ele>
        <time>2010-07-21T01:19:37Z</time>
        <course>134.104853873166</course>
        <speed>6.14233669308096</speed>
      </trkpt>
      <trkpt lat="47.64643" lon="9.68664">
        <ele>553</ele>
        <time>2010-07-21T01:19:47Z</time>
        <course>121.999935236696</course>
        <speed>6.93352400012208</speed>
      </trkpt>
      <trkpt lat="47.64617" lon="9.68712">
        <ele>552</ele>
        <time>2010-07-21T01:19:54Z</time>
        <course>132.188870475242</course>
        <speed>6.92530170287086</speed>
      </trkpt>
      <trkpt lat="47.64595" lon="9.6874">
        <ele>552</ele>
        <time>2010-07-21T01:19:58Z</time>
        <course>118.123176173246</course>
        <speed>6.93741917941489</speed>
      </trkpt>
      <trkpt lat="47.64576" lon="9.68781">
        <ele>552</ele>
        <time>2010-07-21T01:20:04Z</time>
        <course>100.878372332484</course>
        <speed>6.92692186472893</speed>
      </trkpt>
      <trkpt lat="47.64571" lon="9.68811">
        <ele>552</ele>
        <time>2010-07-21T01:20:07Z</time>
        <course>81.6574795668312</course>
        <speed>6.9355653758818</speed>
      </trkpt>
      <trkpt lat="47.64579" lon="9.68874">
        <ele>552</ele>
        <time>2010-07-21T01:20:14Z</time>
        <course>91.8518575496766</course>
        <speed>6.9335341605785</speed>
      </trkpt>
      <trkpt lat="47.64574" lon="9.6905">
        <ele>552</ele>
        <time>2010-07-21T01:20:33Z</time>
        <course>113.015505858042</course>
        <speed>6.92815805906707</speed>
      </trkpt>
      <trkpt lat="47.64553" lon="9.69107">
        <ele>549</ele>
        <time>2010-07-21T01:20:40Z</time>
        <course>107.164378227858</course>
        <speed>6.93467117292064</speed>
      </trkpt>
      <trkpt lat="47.64527" lon="9.69204">
        <ele>546</ele>
        <time>2010-07-21T01:20:51Z</time>
        <course>93.7840525794443</course>
        <speed>6.93168353117725</speed>
      </trkpt>
      <trkpt lat="47.64518" lon="9.6936">
        <ele>541</ele>
        <time>2010-07-21T01:21:08Z</time>
        <course>82.8830702741408</course>
        <speed>5.92479773591278</speed>
      </trkpt>
      <trkpt lat="47.64526" lon="9.69434">
        <ele>541</ele>
        <time>2010-07-21T01:21:18Z</time>
        <course>67.3734906092135</course>
        <speed>5.92599239617419</speed>
      </trkpt>
      <trkpt lat="47.64565" lon="9.69542">
        <ele>541</ele>
        <time>2010-07-21T01:21:33Z</time>
        <course>59.2151520793825</course>
        <speed>5.92584077084889</speed>
      </trkpt>
      <trkpt lat="47.64663" lon="9.69732">
        <ele>543</ele>
        <time>2010-07-21T01:22:03Z</time>
        <course>49.6943998897512</course>
        <speed>3.6972424861156</speed>
      </trkpt>
      <trkpt lat="47.64699" lon="9.69781">
        <ele>544</ele>
        <time>2010-07-21T01:22:18Z</time>
        <course>36.7141286541749</course>
        <speed>3.69682869430393</speed>
      </trkpt>
      <trkpt lat="47.64735" lon="9.69812">
        <ele>546</ele>
        <time>2010-07-21T01:22:30Z</time>
        <course>18.0579761346881</course>
        <speed>3.69654823450357</speed>
      </trkpt>
      <trkpt lat="47.64812" lon="9.69841">
        <ele>548</ele>
        <time>2010-07-21T01:22:54Z</time>
        <course>23.776900126966</course>
        <speed>3.69625013522813</speed>
      </trkpt>
      <trkpt lat="47.64867" lon="9.69869">
        <ele>551</ele>
        <time>2010-07-21T01:23:12Z</time>
        <course>12.20516998859</course>
        <speed>3.07195566219235</speed>
      </trkpt>
      <trkpt lat="47.64911" lon="9.6988">
        <ele>553</ele>
        <time>2010-07-21T01:23:28Z</time>
        <course>36.2053901257814</course>
        <speed>3.07351209673627</speed>
      </trkpt>
      <trkpt lat="47.64924" lon="9.69891">
        <ele>554</ele>
        <time>2010-07-21T01:23:33Z</time>
        <course>59.9744963263574</course>
        <speed>6.90544516421344</speed>
      </trkpt>
      <trkpt lat="47.64925" lon="9.69893">
        <ele>554</ele>
        <time>2010-07-21T01:23:34Z</time>
        <course>85.2781854928817</course>
        <speed>6.93345593684793</speed>
      </trkpt>
      <trkpt lat="47.64926" lon="9.69907">
        <ele>553</ele>
        <time>2010-07-21T01:23:35Z</time>
        <course>100.466846789378</course>
        <speed>6.93572943805127</speed>
      </trkpt>
      <trkpt lat="47.64914" lon="9.69982">
        <ele>552</ele>
        <time>2010-07-21T01:23:43Z</time>
        <course>105.730681866232</course>
        <speed>6.93025454131623</speed>
      </trkpt>
      <trkpt lat="47.64894" lon="9.70064">
        <ele>551</ele>
        <time>2010-07-21T01:23:53Z</time>
        <course>89.9915276356714</course>
        <speed>6.93350621416413</speed>
      </trkpt>
      <trkpt lat="47.64894" lon="9.70123">
        <ele>550</ele>
        <time>2010-07-21T01:23:59Z</time>
        <course>102.15043691066</course>
        <speed>6.93293203796763</speed>
      </trkpt>
      <trkpt lat="47.64883" lon="9.70182">
        <ele>550</ele>
        <time>2010-07-21T01:24:06Z</time>
        <course>116.808893806628</course>
        <speed>4.47696218712154</speed>
      </trkpt>
      <trkpt lat="47.64855" lon="9.70246">
        <ele>551</ele>
        <time>2010-07-21T01:24:19Z</time>
        <course>132.207608601204</course>
        <speed>4.47528082293164</speed>
      </trkpt>
      <trkpt lat="47.64756" lon="9.70372">
        <ele>554</ele>
        <time>2010-07-21T01:24:51Z</time>
        <course>158.209224038738</course>
        <speed>6.92876081339242</speed>
      </trkpt>
      <trkpt lat="47.64717" lon="9.7039">
        <ele>551</ele>
        <time>2010-07-21T01:24:58Z</time>
        <course>168.254687817879</course>
        <speed>6.93122639766022</speed>
      </trkpt>
      <trkpt lat="47.64692" lon="9.70396">
        <ele>550</ele>
        <time>2010-07-21T01:25:02Z</time>
        <course>174.498993757372</course>
        <speed>6.93073955791162</speed>
      </trkpt>
      <trkpt lat="47.64602" lon="9.70406">
        <ele>544</ele>
        <time>2010-07-21T01:25:16Z</time>
        <course>154.438180472393</course>
        <speed>6.93123698589598</speed>
      </trkpt>
      <trkpt lat="47.64573" lon="9.70422">
        <ele>543</ele>
        <time>2010-07-21T01:25:21Z</time>
        <course>139.073162941465</course>
        <speed>4.35556896342631</speed>
      </trkpt>
      <trkpt lat="47.64552" lon="9.70443">
        <ele>543</ele>
        <time>2010-07-21T01:25:28Z</time>
        <course>127.552990324657</course>
        <speed>4.35808265258386</speed>
      </trkpt>
      <trkpt lat="47.64536" lon="9.70467">
        <ele>544</ele>
        <time>2010-07-21T01:25:33Z</time>
        <course>115.514312109412</course>
        <speed>4.35693119667062</speed>
      </trkpt>
      <trkpt lat="47.64478" lon="9.70607">
        <ele>546</ele>
        <time>2010-07-21T01:26:02Z</time>
        <course>102.047710334202</course>
        <speed>4.3582239811808</speed>
      </trkpt>
      <trkpt lat="47.64473" lon="9.70634">
        <ele>547</ele>
        <time>2010-07-21T01:26:06Z</time>
        <course>74.8928636677614</course>
        <speed>4.35659152560682</speed>
      </trkpt>
      <trkpt lat="47.64484" lon="9.70681">
        <ele>548</ele>
        <time>2010-07-21T01:26:15Z</time>
        <course>89.9968631995141</course>
        <speed>4.82995096613555</speed>
      </trkpt>
      <trkpt lat="47.64484" lon="9.70703">
        <ele>548</ele>
        <time>2010-07-21T01:26:18Z</time>
        <course>94.3931190695903</course>
        <speed>4.82242782986565</speed>
      </trkpt>
      <trkpt lat="47.64483" lon="9.70718">
        <ele>548</ele>
        <time>2010-07-21T01:26:21Z</time>
        <course>111.848080924019</course>
        <speed>4.8324504234596</speed>
      </trkpt>
      <trkpt lat="47.64475" lon="9.70741">
        <ele>548</ele>
        <time>2010-07-21T01:26:25Z</time>
        <course>136.579479242383</course>
        <speed>4.83105473216316</speed>
      </trkpt>
      <trkpt lat="47.64464" lon="9.70753">
        <ele>548</ele>
        <time>2010-07-21T01:26:28Z</time>
        <course>154.057014786674</course>
        <speed>4.83329152464875</speed>
      </trkpt>
      <trkpt lat="47.64398" lon="9.7079">
        <ele>550</ele>
        <time>2010-07-21T01:26:44Z</time>
        <course>141.496635842906</course>
        <speed>4.83716845972505</speed>
      </trkpt>
      <trkpt lat="47.64386" lon="9.70801">
        <ele>550</ele>
        <time>2010-07-21T01:26:47Z</time>
        <course>124.652477572432</course>
        <speed>4.83298425381041</speed>
      </trkpt>
      <trkpt lat="47.64365" lon="9.70836">
        <ele>551</ele>
        <time>2010-07-21T01:26:55Z</time>
        <course>89.9998577139295</course>
        <speed>6.80599504127961</speed>
      </trkpt>
      <trkpt lat="47.64365" lon="9.70837">
        <ele>551</ele>
        <time>2010-07-21T01:26:55Z</time>
        <course>123.357299231773</course>
        <speed>6.94111744444422</speed>
      </trkpt>
      <trkpt lat="47.64357" lon="9.70851">
        <ele>549</ele>
        <time>2010-07-21T01:26:57Z</time>
        <course>210.058395591946</course>
        <speed>6.9212708972414</speed>
      </trkpt>
      <trkpt lat="47.64342" lon="9.70841">
        <ele>548</ele>
        <time>2010-07-21T01:26:59Z</time>
        <course>180</course>
        <speed>6.94499999974803</speed>
      </trkpt>
      <trkpt lat="47.64331" lon="9.70841">
        <ele>547</ele>
        <time>2010-07-21T01:27:01Z</time>
        <course>155.108813474009</course>
        <speed>6.93026511630018</speed>
      </trkpt>
      <trkpt lat="47.64258" lon="9.7088">
        <ele>541</ele>
        <time>2010-07-21T01:27:13Z</time>
        <course>163.027534157758</course>
        <speed>6.92634380379354</speed>
      </trkpt>
      <trkpt lat="47.64221" lon="9.70893">
        <ele>537</ele>
        <time>2010-07-21T01:27:20Z</time>
        <course>199.440918908994</course>
        <speed>6.92976714373211</speed>
      </trkpt>
      <trkpt lat="47.64189" lon="9.7088">
        <ele>535</ele>
        <time>2010-07-21T01:27:25Z</time>
        <course>218.314133306134</course>
        <speed>6.93127604247308</speed>
      </trkpt>
      <trkpt lat="47.64134" lon="9.7083">
        <ele>533</ele>
        <time>2010-07-21T01:27:35Z</time>
        <course>204.96963320343</course>
        <speed>6.93466826460109</speed>
      </trkpt>
      <trkpt lat="47.64106" lon="9.70815">
        <ele>532</ele>
        <time>2010-07-21T01:27:40Z</time>
        <course>180</course>
        <speed>6.94500000012539</speed>
      </trkpt>
      <trkpt lat="47.6409" lon="9.70815">
        <ele>531</ele>
        <time>2010-07-21T01:27:43Z</time>
        <course>199.175746548913</course>
        <speed>6.93282624658302</speed>
      </trkpt>
      <trkpt lat="47.6407" lon="9.70807">
        <ele>531</ele>
        <time>2010-07-21T01:27:46Z</time>
        <course>231.170466851593</course>
        <speed>6.92956593419541</speed>
      </trkpt>
      <trkpt lat="47.64035" lon="9.70757">
        <ele>529</ele>
        <time>2010-07-21T01:27:54Z</time>
        <course>244.070383418121</course>
        <speed>6.93249713331117</speed>
      </trkpt>
      <trkpt lat="47.63966" lon="9.70594">
        <ele>526</ele>
        <time>2010-07-21T01:28:14Z</time>
        <course>247.372962566729</course>
        <speed>6.93291721971144</speed>
      </trkpt>
      <trkpt lat="47.63913" lon="9.70448">
        <ele>523</ele>
        <time>2010-07-21T01:28:32Z</time>
        <course>255.042281626299</course>
        <speed>6.92973403522518</speed>
      </trkpt>
      <trkpt lat="47.63886" lon="9.70332">
        <ele>521</ele>
        <time>2010-07-21T01:28:46Z</time>
        <course>267.16605652359</course>
        <speed>6.93035073394161</speed>
      </trkpt>
      <trkpt lat="47.63878" lon="9.70148">
        <ele>518</ele>
        <time>2010-07-21T01:29:06Z</time>
        <course>275.228743479476</course>
        <speed>6.93147460949046</speed>
      </trkpt>
      <trkpt lat="47.63894" lon="9.69946">
        <ele>516</ele>
        <time>2010-07-21T01:29:28Z</time>
        <course>263.901045648569</course>
        <speed>6.93066813007175</speed>
      </trkpt>
      <trkpt lat="47.63874" lon="9.69732">
        <ele>506</ele>
        <time>2010-07-21T01:29:51Z</time>
        <course>255.544511624554</course>
        <speed>6.93018254067179</speed>
      </trkpt>
      <trkpt lat="47.63863" lon="9.69683">
        <ele>504</ele>
        <time>2010-07-21T01:29:56Z</time>
        <course>245.553741780618</course>
        <speed>6.9354116135623</speed>
      </trkpt>
      <trkpt lat="47.63844" lon="9.69635">
        <ele>498</ele>
        <time>2010-07-21T01:30:02Z</time>
        <course>231.746343997459</course>
        <speed>6.93237229897761</speed>
      </trkpt>
      <trkpt lat="47.63787" lon="9.69552">
        <ele>487</ele>
        <time>2010-07-21T01:30:15Z</time>
        <course>210.459682085837</course>
        <speed>6.93108476602221</speed>
      </trkpt>
      <trkpt lat="47.63707" lon="9.69498">
        <ele>476</ele>
        <time>2010-07-21T01:30:29Z</time>
        <course>192.98833915408</course>
        <speed>6.92727094960294</speed>
      </trkpt>
      <trkpt lat="47.63673" lon="9.69489">
        <ele>475</ele>
        <time>2010-07-21T01:30:35Z</time>
        <course>223.03628389279</course>
        <speed>6.92687734150858</speed>
      </trkpt>
      <trkpt lat="47.63659" lon="9.69474">
        <ele>474</ele>
        <time>2010-07-21T01:30:38Z</time>
        <course>246.920412046119</course>
        <speed>6.92692275546657</speed>
      </trkpt>
      <trkpt lat="47.63646" lon="9.69439">
        <ele>474</ele>
        <time>2010-07-21T01:30:42Z</time>
        <course>263.465528845254</course>
        <speed>6.92872795203476</speed>
      </trkpt>
      <trkpt lat="47.63638" lon="9.69359">
        <ele>472</ele>
        <time>2010-07-21T01:30:51Z</time>
        <course>280.773664327647</course>
        <speed>6.9315484326455</speed>
      </trkpt>
      <trkpt lat="47.63702" lon="9.68971">
        <ele>466</ele>
        <time>2010-07-21T01:31:34Z</time>
        <course>286.934681732518</course>
        <speed>1.92899564090517</speed>
      </trkpt>
      <trkpt lat="47.63724" lon="9.68888">
        <ele>472</ele>
        <time>2010-07-21T01:32:08Z</time>
        <course>277.854231905732</course>
        <speed>1.92897747121568</speed>
      </trkpt>
      <trkpt lat="47.63733" lon="9.68813">
        <ele>477</ele>
        <time>2010-07-21T01:32:38Z</time>
        <course>272.539242580577</course>
        <speed>1.92870255312737</speed>
      </trkpt>
      <trkpt lat="47.63736" lon="9.68735">
        <ele>483</ele>
        <time>2010-07-21T01:33:08Z</time>
        <course>265.319979633869</course>
        <speed>1.92886191172179</speed>
      </trkpt>
      <trkpt lat="47.63732" lon="9.68679">
        <ele>487</ele>
        <time>2010-07-21T01:33:30Z</time>
        <course>258.715758441841</course>
        <speed>6.93396499955696</speed>
      </trkpt>
      <trkpt lat="47.63724" lon="9.68633">
        <ele>486</ele>
        <time>2010-07-21T01:33:35Z</time>
        <course>270.006753087402</course>
        <speed>6.93823612959212</speed>
      </trkpt>
      <trkpt lat="47.63724" lon="9.68585">
        <ele>486</ele>
        <time>2010-07-21T01:33:41Z</time>
        <course>280.318077555599</course>
        <speed>6.93312375643271</speed>
      </trkpt>
      <trkpt lat="47.63746" lon="9.68446">
        <ele>485</ele>
        <time>2010-07-21T01:33:56Z</time>
        <course>274.482232601344</course>
        <speed>6.92743490760363</speed>
      </trkpt>
      <trkpt lat="47.63749" lon="9.68402">
        <ele>485</ele>
        <time>2010-07-21T01:34:01Z</time>
        <course>261.35433549945</course>
        <speed>6.93102735330032</speed>
      </trkpt>
      <trkpt lat="47.63736" lon="9.68304">
        <ele>482</ele>
        <time>2010-07-21T01:34:12Z</time>
        <course>280.138479190763</course>
        <speed>6.92983546239571</speed>
      </trkpt>
      <trkpt lat="47.6375" lon="9.68214">
        <ele>479</ele>
        <time>2010-07-21T01:34:22Z</time>
        <course>272.864265988222</course>
        <speed>6.93052377761</speed>
      </trkpt>
      <trkpt lat="47.63752" lon="9.68168">
        <ele>478</ele>
        <time>2010-07-21T01:34:26Z</time>
        <course>265.146454981363</course>
        <speed>6.92946310133154</speed>
      </trkpt>
      <trkpt lat="47.63748" lon="9.68114">
        <ele>477</ele>
        <time>2010-07-21T01:34:32Z</time>
        <course>246.972060573889</course>
        <speed>6.92758722889867</speed>
      </trkpt>
      <trkpt lat="47.63728" lon="9.6806">
        <ele>475</ele>
        <time>2010-07-21T01:34:39Z</time>
        <course>252.249299117625</course>
        <speed>6.93500660837683</speed>
      </trkpt>
      <trkpt lat="47.63704" lon="9.67974">
        <ele>472</ele>
        <time>2010-07-21T01:34:49Z</time>
        <course>213.162106007503</course>
        <speed>6.91688283195112</speed>
      </trkpt>
      <trkpt lat="47.63696" lon="9.67968">
        <ele>471</ele>
        <time>2010-07-21T01:34:51Z</time>
        <course>249.067642988727</course>
        <speed>6.93994038643835</speed>
      </trkpt>
      <trkpt lat="47.63687" lon="9.67941">
        <ele>470</ele>
        <time>2010-07-21T01:34:54Z</time>
        <course>272.314150474725</course>
        <speed>6.92657092671891</speed>
      </trkpt>
      <trkpt lat="47.63689" lon="9.67884">
        <ele>468</ele>
        <time>2010-07-21T01:35:00Z</time>
        <course>267.869580668168</course>
        <speed>6.93127808924617</speed>
      </trkpt>
      <trkpt lat="47.63686" lon="9.67792">
        <ele>466</ele>
        <time>2010-07-21T01:35:10Z</time>
        <course>257.796752771233</course>
        <speed>6.93197129599389</speed>
      </trkpt>
      <trkpt lat="47.63666" lon="9.67686">
        <ele>465</ele>
        <time>2010-07-21T01:35:22Z</time>
        <course>257.796752771233</course>
        <speed>6.93197129599389</speed>
      </trkpt>
      <trkpt lat="47.63666" lon="9.67686">
        <ele>465</ele>
        <time>2010-07-21T01:35:23Z</time>
        <course>260.858408490992</course>
        <speed>6.93089055067447</speed>
      </trkpt>
      <trkpt lat="47.63658" lon="9.67629">
        <ele>462</ele>
        <time>2010-07-21T01:35:29Z</time>
        <course>256.661158261379</course>
        <speed>6.93047318958929</speed>
      </trkpt>
      <trkpt lat="47.63634" lon="9.67513">
        <ele>457</ele>
        <time>2010-07-21T01:35:42Z</time>
        <course>249.080962906872</course>
        <speed>6.92796537889929</speed>
      </trkpt>
      <trkpt lat="47.63611" lon="9.67444">
        <ele>454</ele>
        <time>2010-07-21T01:35:50Z</time>
        <course>255.399433907624</course>
        <speed>6.93306156851032</speed>
      </trkpt>
      <trkpt lat="47.63591" lon="9.67356">
        <ele>451</ele>
        <time>2010-07-21T01:36:01Z</time>
        <course>249.088423771523</course>
        <speed>6.93491250095639</speed>
      </trkpt>
      <trkpt lat="47.63562" lon="9.67269">
        <ele>450</ele>
        <time>2010-07-21T01:36:11Z</time>
        <course>246.552596360493</course>
        <speed>6.92991742188484</speed>
      </trkpt>
      <trkpt lat="47.63534" lon="9.67195">
        <ele>450</ele>
        <time>2010-07-21T01:36:20Z</time>
        <course>243.107163953061</course>
        <speed>6.93153064994821</speed>
      </trkpt>
      <trkpt lat="47.63429" lon="9.66958">
        <ele>449</ele>
        <time>2010-07-21T01:36:51Z</time>
        <course>235.74815718972</course>
        <speed>6.13769571301173</speed>
      </trkpt>
      <trkpt lat="47.63363" lon="9.66847">
        <ele>449</ele>
        <time>2010-07-21T01:37:09Z</time>
        <course>244.57752938441</course>
        <speed>6.13768894981757</speed>
      </trkpt>
      <trkpt lat="47.63314" lon="9.66729">
        <ele>450</ele>
        <time>2010-07-21T01:37:26Z</time>
        <course>258.497619885043</course>
        <speed>6.92830156255097</speed>
      </trkpt>
      <trkpt lat="47.63306" lon="9.66684">
        <ele>449</ele>
        <time>2010-07-21T01:37:31Z</time>
        <course>275.700280458526</course>
        <speed>6.93231191744272</speed>
      </trkpt>
      <trkpt lat="47.63314" lon="9.66592">
        <ele>449</ele>
        <time>2010-07-21T01:37:41Z</time>
        <course>270.00782123859</course>
        <speed>6.93113450852583</speed>
      </trkpt>
      <trkpt lat="47.63314" lon="9.66536">
        <ele>448</ele>
        <time>2010-07-21T01:37:47Z</time>
        <course>279.296333728719</course>
        <speed>6.93612644935895</speed>
      </trkpt>
      <trkpt lat="47.63318" lon="9.66508">
        <ele>448</ele>
        <time>2010-07-21T01:37:50Z</time>
        <course>294.295720750032</course>
        <speed>6.93057422273125</speed>
      </trkpt>
      <trkpt lat="47.63344" lon="9.66442">
        <ele>448</ele>
        <time>2010-07-21T01:37:58Z</time>
        <course>282.126801107029</course>
        <speed>5.86604548148847</speed>
      </trkpt>
      <trkpt lat="47.6335" lon="9.6641">
        <ele>448</ele>
        <time>2010-07-21T01:38:02Z</time>
        <course>257.879808147818</course>
        <speed>5.86604391873547</speed>
      </trkpt>
      <trkpt lat="47.63347" lon="9.66394">
        <ele>448</ele>
        <time>2010-07-21T01:38:05Z</time>
        <course>246.803056256988</course>
        <speed>5.86461853158524</speed>
      </trkpt>
      <trkpt lat="47.6323" lon="9.66082">
        <ele>450</ele>
        <time>2010-07-21T01:38:50Z</time>
        <course>251.044928333904</course>
        <speed>5.50792899451527</speed>
      </trkpt>
      <trkpt lat="47.63172" lon="9.65889">
        <ele>451</ele>
        <time>2010-07-21T01:39:19Z</time>
        <course>227.091727453702</course>
        <speed>5.50911816633693</speed>
      </trkpt>
      <trkpt lat="47.63133" lon="9.65841">
        <ele>452</ele>
        <time>2010-07-21T01:39:29Z</time>
        <course>235.945258761258</course>
        <speed>6.11179373304284</speed>
      </trkpt>
      <trkpt lat="47.63107" lon="9.65797">
        <ele>452</ele>
        <time>2010-07-21T01:39:36Z</time>
        <course>240.549995027185</course>
        <speed>6.11369431187626</speed>
      </trkpt>
      <trkpt lat="47.63067" lon="9.65716">
        <ele>452</ele>
        <time>2010-07-21T01:39:49Z</time>
        <course>284.262119120979</course>
        <speed>6.1177370083144</speed>
      </trkpt>
      <trkpt lat="47.63069" lon="9.65707">
        <ele>452</ele>
        <time>2010-07-21T01:39:50Z</time>
        <course>252.257249941193</course>
        <speed>6.11547249437463</speed>
      </trkpt>
      <trkpt lat="47.63041" lon="9.65607">
        <ele>453</ele>
        <time>2010-07-21T01:40:03Z</time>
        <course>240.245493538527</course>
        <speed>6.93560001546975</speed>
      </trkpt>
      <trkpt lat="47.63023" lon="9.65571">
        <ele>452</ele>
        <time>2010-07-21T01:40:08Z</time>
        <course>245.194805943991</course>
        <speed>6.93038365984051</speed>
      </trkpt>
      <trkpt lat="47.6297" lon="9.6544">
        <ele>450</ele>
        <time>2010-07-21T01:40:24Z</time>
        <course>254.416294456059</course>
        <speed>6.93312714002061</speed>
      </trkpt>
      <trkpt lat="47.62949" lon="9.65354">
        <ele>449</ele>
        <time>2010-07-21T01:40:34Z</time>
        <course>259.010648111619</course>
        <speed>6.9322495206693</speed>
      </trkpt>
      <trkpt lat="47.62925" lon="9.65213">
        <ele>449</ele>
        <time>2010-07-21T01:40:50Z</time>
        <course>247.644275130042</course>
        <speed>6.93640215062129</speed>
      </trkpt>
      <trkpt lat="47.62907" lon="9.65163">
        <ele>449</ele>
        <time>2010-07-21T01:40:56Z</time>
        <course>229.866414583886</course>
        <speed>6.93041894340884</speed>
      </trkpt>
      <trkpt lat="47.62828" lon="9.65056">
        <ele>449</ele>
        <time>2010-07-21T01:41:13Z</time>
        <course>241.195151414622</course>
        <speed>6.94129721581215</speed>
      </trkpt>
      <trkpt lat="47.62815" lon="9.65029">
        <ele>448</ele>
        <time>2010-07-21T01:41:17Z</time>
        <course>254.918302154497</course>
        <speed>6.93360220158592</speed>
      </trkpt>
      <trkpt lat="47.62798" lon="9.64957">
        <ele>447</ele>
        <time>2010-07-21T01:41:25Z</time>
        <course>262.123232088738</course>
        <speed>6.93638427381814</speed>
      </trkpt>
      <trkpt lat="47.62794" lon="9.64924">
        <ele>447</ele>
        <time>2010-07-21T01:41:29Z</time>
        <course>262.123232088738</course>
        <speed>6.93638427381814</speed>
      </trkpt>
      <trkpt lat="47.62794" lon="9.64924">
        <ele>447</ele>
        <time>2010-07-21T01:41:30Z</time>
        <course>263.990489298339</course>
        <speed>4.07205569351023</speed>
      </trkpt>
      <trkpt lat="47.62783" lon="9.64805">
        <ele>449</ele>
        <time>2010-07-21T01:41:52Z</time>
        <course>269.359498885802</course>
        <speed>4.07095223275282</speed>
      </trkpt>
      <trkpt lat="47.62781" lon="9.64609">
        <ele>453</ele>
        <time>2010-07-21T01:42:28Z</time>
        <course>279.274296961084</course>
        <speed>6.92932527055547</speed>
      </trkpt>
      <trkpt lat="47.6279" lon="9.64546">
        <ele>451</ele>
        <time>2010-07-21T01:42:35Z</time>
        <course>282.883874969373</course>
        <speed>6.93012608830137</speed>
      </trkpt>
      <trkpt lat="47.62815" lon="9.64421">
        <ele>449</ele>
        <time>2010-07-21T01:42:49Z</time>
        <course>286.950776032157</course>
        <speed>6.9349066474538</speed>
      </trkpt>
      <trkpt lat="47.62835" lon="9.64346">
        <ele>448</ele>
        <time>2010-07-21T01:42:58Z</time>
        <course>289.058586839801</course>
        <speed>2.69827607153302</speed>
      </trkpt>
      <trkpt lat="47.62848" lon="9.64303">
        <ele>449</ele>
        <time>2010-07-21T01:43:11Z</time>
        <course>294.16482060891</course>
        <speed>2.6980837928522</speed>
      </trkpt>
      <trkpt lat="47.62928" lon="9.64099">
        <ele>460</ele>
        <time>2010-07-21T01:44:16Z</time>
        <course>290.604588251069</course>
        <speed>6.93560422123763</speed>
      </trkpt>
      <trkpt lat="47.62952" lon="9.64026">
        <ele>454</ele>
        <time>2010-07-21T01:44:25Z</time>
        <course>286.203382519089</course>
        <speed>6.93256362476545</speed>
      </trkpt>
      <trkpt lat="47.63003" lon="9.63825">
        <ele>441</ele>
        <time>2010-07-21T01:44:48Z</time>
        <course>282.151337733793</course>
        <speed>3.12171751357659</speed>
      </trkpt>
      <trkpt lat="47.63049" lon="9.6358">
        <ele>449</ele>
        <time>2010-07-21T01:45:49Z</time>
        <course>280.311905565872</course>
        <speed>3.12191184867877</speed>
      </trkpt>
      <trkpt lat="47.63094" lon="9.63296">
        <ele>459</ele>
        <time>2010-07-21T01:46:59Z</time>
        <course>284.269483340773</course>
        <speed>6.9302118784222</speed>
      </trkpt>
      <trkpt lat="47.63104" lon="9.63251">
        <ele>457</ele>
        <time>2010-07-21T01:47:04Z</time>
        <course>272.7935421589</course>
        <speed>6.92840413360559</speed>
      </trkpt>
      <trkpt lat="47.63106" lon="9.63204">
        <ele>455</ele>
        <time>2010-07-21T01:47:09Z</time>
        <course>266.476948247922</course>
        <speed>6.93169031968628</speed>
      </trkpt>
      <trkpt lat="47.631" lon="9.63093">
        <ele>451</ele>
        <time>2010-07-21T01:47:21Z</time>
        <course>276.406368561155</course>
        <speed>6.92870484768519</speed>
      </trkpt>
      <trkpt lat="47.63105" lon="9.63042">
        <ele>449</ele>
        <time>2010-07-21T01:47:27Z</time>
        <course>290.064739757163</course>
        <speed>6.9293212368377</speed>
      </trkpt>
      <trkpt lat="47.6312" lon="9.62995">
        <ele>447</ele>
        <time>2010-07-21T01:47:33Z</time>
        <course>299.209106120148</course>
        <speed>6.18374253291109</speed>
      </trkpt>
      <trkpt lat="47.63202" lon="9.62827">
        <ele>447</ele>
        <time>2010-07-21T01:47:58Z</time>
        <course>328.253224590329</course>
        <speed>6.18227621833125</speed>
      </trkpt>
      <trkpt lat="47.63226" lon="9.6281">
        <ele>447</ele>
        <time>2010-07-21T01:48:02Z</time>
        <course>348.605184220117</course>
        <speed>6.18585269303764</speed>
      </trkpt>
      <trkpt lat="47.63265" lon="9.62801">
        <ele>448</ele>
        <time>2010-07-21T01:48:10Z</time>
        <course>357.273486595457</course>
        <speed>6.93393109142269</speed>
      </trkpt>
      <trkpt lat="47.6332" lon="9.62798">
        <ele>443</ele>
        <time>2010-07-21T01:48:18Z</time>
        <course>343.360016690639</course>
        <speed>6.93169588532955</speed>
      </trkpt>
      <trkpt lat="47.63393" lon="9.62773">
        <ele>437</ele>
        <time>2010-07-21T01:48:30Z</time>
        <course>314.905734645546</course>
        <speed>6.93368196331761</speed>
      </trkpt>
      <trkpt lat="47.63433" lon="9.62727">
        <ele>433</ele>
        <time>2010-07-21T01:48:38Z</time>
        <course>293.396487722979</course>
        <speed>6.93368213037391</speed>
      </trkpt>
      <trkpt lat="47.63453" lon="9.62674">
        <ele>433</ele>
        <time>2010-07-21T01:48:45Z</time>
        <course>278.417463383198</course>
        <speed>6.93085250094397</speed>
      </trkpt>
      <trkpt lat="47.63457" lon="9.62643">
        <ele>433</ele>
        <time>2010-07-21T01:48:48Z</time>
        <course>268.875942157592</course>
        <speed>6.92886968230468</speed>
      </trkpt>
      <trkpt lat="47.63456" lon="9.62585">
        <ele>433</ele>
        <time>2010-07-21T01:48:55Z</time>
        <course>237.987436533363</course>
        <speed>6.92608939416043</speed>
      </trkpt>
      <trkpt lat="47.6345" lon="9.62574">
        <ele>433</ele>
        <time>2010-07-21T01:48:56Z</time>
        <course>256.061990447428</course>
        <speed>6.92991787224579</speed>
      </trkpt>
      <trkpt lat="47.63437" lon="9.62514">
        <ele>433</ele>
        <time>2010-07-21T01:49:03Z</time>
        <course>241.419071479658</course>
        <speed>6.93306451682921</speed>
      </trkpt>
      <trkpt lat="47.63398" lon="9.62432">
        <ele>433</ele>
        <time>2010-07-21T01:49:14Z</time>
        <course>232.398430837309</course>
        <speed>6.93125238856815</speed>
      </trkpt>
      <trkpt lat="47.63258" lon="9.62224">
        <ele>433</ele>
        <time>2010-07-21T01:49:46Z</time>
        <course>236.552332280131</course>
        <speed>6.9308765435636</speed>
      </trkpt>
      <trkpt lat="47.63202" lon="9.62127">
        <ele>432</ele>
        <time>2010-07-21T01:49:59Z</time>
        <course>247.07906859477</course>
        <speed>6.93124731997067</speed>
      </trkpt>
      <trkpt lat="47.63128" lon="9.61927">
        <ele>431</ele>
        <time>2010-07-21T01:50:24Z</time>
        <course>229.120065486112</course>
        <speed>6.93214016235004</speed>
      </trkpt>
      <trkpt lat="47.631" lon="9.6189">
        <ele>431</ele>
        <time>2010-07-21T01:50:30Z</time>
        <course>218.594435738945</course>
        <speed>6.93416769960814</speed>
      </trkpt>
      <trkpt lat="47.6302" lon="9.61817">
        <ele>431</ele>
        <time>2010-07-21T01:50:45Z</time>
        <course>226.911402326972</course>
        <speed>6.92860291445951</speed>
      </trkpt>
      <trkpt lat="47.63002" lon="9.61795">
        <ele>431</ele>
        <time>2010-07-21T01:50:49Z</time>
        <course>233.548822683146</course>
        <speed>6.93039272273816</speed>
      </trkpt>
      <trkpt lat="47.62927" lon="9.61679">
        <ele>431</ele>
        <time>2010-07-21T01:51:06Z</time>
        <course>223.672538198765</course>
        <speed>6.92744022232783</speed>
      </trkpt>
      <trkpt lat="47.62905" lon="9.61655">
        <ele>430</ele>
        <time>2010-07-21T01:51:11Z</time>
        <course>212.016575649758</course>
        <speed>6.92993069344851</speed>
      </trkpt>
      <trkpt lat="47.62856" lon="9.6162">
        <ele>430</ele>
        <time>2010-07-21T01:51:19Z</time>
        <course>193.515093298843</course>
        <speed>6.93536130788486</speed>
      </trkpt>
      <trkpt lat="47.62805" lon="9.61606">
        <ele>430</ele>
        <time>2010-07-21T01:51:28Z</time>
        <course>211.724143679737</course>
        <speed>6.92683768769386</speed>
      </trkpt>
      <trkpt lat="47.62771" lon="9.61582">
        <ele>430</ele>
        <time>2010-07-21T01:51:34Z</time>
        <course>226.133505277661</course>
        <speed>6.92859076574988</speed>
      </trkpt>
      <trkpt lat="47.62723" lon="9.61525">
        <ele>430</ele>
        <time>2010-07-21T01:51:44Z</time>
        <course>203.233960183674</course>
        <speed>4.81433039064192</speed>
      </trkpt>
      <trkpt lat="47.62625" lon="9.61477">
        <ele>431</ele>
        <time>2010-07-21T01:52:07Z</time>
        <course>234.019738710108</course>
        <speed>4.82126320627743</speed>
      </trkpt>
      <trkpt lat="47.62618" lon="9.61466">
        <ele>432</ele>
        <time>2010-07-21T01:52:10Z</time>
        <course>234.019738710108</course>
        <speed>4.82126320627743</speed>
      </trkpt>
      <trkpt lat="47.62618" lon="9.61466">
        <ele>432</ele>
        <time>2010-07-21T01:52:11Z</time>
        <course>54.0167042610569</course>
        <speed>5.58126528805516</speed>
      </trkpt>
      <trkpt lat="47.62625" lon="9.61477">
        <ele>432</ele>
        <time>2010-07-21T01:52:13Z</time>
        <course>113.48903877919</course>
        <speed>5.59307061412706</speed>
      </trkpt>
      <trkpt lat="47.62617" lon="9.61498">
        <ele>432</ele>
        <time>2010-07-21T01:52:16Z</time>
        <course>83.9620780186248</course>
        <speed>5.59191622845976</speed>
      </trkpt>
      <trkpt lat="47.62622" lon="9.61552">
        <ele>432</ele>
        <time>2010-07-21T01:52:23Z</time>
        <course>71.2573724497949</course>
        <speed>5.58778455680042</speed>
      </trkpt>
      <trkpt lat="47.62633" lon="9.61589">
        <ele>432</ele>
        <time>2010-07-21T01:52:29Z</time>
        <course>142.301775501524</course>
        <speed>5.5902221268721</speed>
      </trkpt>
      <trkpt lat="47.62532" lon="9.61678">
        <ele>434</ele>
        <time>2010-07-21T01:52:52Z</time>
        <course>148.186835984705</course>
        <speed>1.77412039342754</speed>
      </trkpt>
      <trkpt lat="47.62416" lon="9.6176">
        <ele>448</ele>
        <time>2010-07-21T01:54:13Z</time>
        <course>174.721840675663</course>
        <speed>1.77417168560468</speed>
      </trkpt>
      <trkpt lat="47.62378" lon="9.61764">
        <ele>453</ele>
        <time>2010-07-21T01:54:36Z</time>
        <course>136.243651785425</course>
        <speed>1.77446170956133</speed>
      </trkpt>
      <trkpt lat="47.62367" lon="9.61776">
        <ele>455</ele>
        <time>2010-07-21T01:54:45Z</time>
        <course>111.220194587602</course>
        <speed>2.24630182828152</speed>
      </trkpt>
      <trkpt lat="47.62352" lon="9.6182">
        <ele>457</ele>
        <time>2010-07-21T01:55:01Z</time>
        <course>130.509820943637</course>
        <speed>2.24470479680563</speed>
      </trkpt>
      <trkpt lat="47.62343" lon="9.61832">
        <ele>458</ele>
        <time>2010-07-21T01:55:07Z</time>
        <course>158.685471046598</course>
        <speed>2.24513275893524</speed>
      </trkpt>
      <trkpt lat="47.62325" lon="9.6184">
        <ele>460</ele>
        <time>2010-07-21T01:55:17Z</time>
        <course>182.513627795325</course>
        <speed>2.24612286412704</speed>
      </trkpt>
      <trkpt lat="47.62305" lon="9.61839">
        <ele>462</ele>
        <time>2010-07-21T01:55:27Z</time>
        <course>208.874173511946</course>
        <speed>2.24608371750175</speed>
      </trkpt>
      <trkpt lat="47.62262" lon="9.61812">
        <ele>465</ele>
        <time>2010-07-21T01:55:50Z</time>
        <course>191.288619525058</course>
        <speed>2.24628161523353</speed>
      </trkpt>
      <trkpt lat="47.6224" lon="9.61807">
        <ele>467</ele>
        <time>2010-07-21T01:56:01Z</time>
        <course>170.80778421428</course>
        <speed>2.2465590503637</speed>
      </trkpt>
      <trkpt lat="47.62202" lon="9.61814">
        <ele>471</ele>
        <time>2010-07-21T01:56:20Z</time>
        <course>127.183803337413</course>
        <speed>6.93375259278</speed>
      </trkpt>
      <trkpt lat="47.62164" lon="9.61871">
        <ele>469</ele>
        <time>2010-07-21T01:56:28Z</time>
        <course>115.657001712584</course>
        <speed>6.93260566615351</speed>
      </trkpt>
      <trkpt lat="47.62115" lon="9.61987">
        <ele>467</ele>
        <time>2010-07-21T01:56:43Z</time>
        <course>137.805169021281</course>
        <speed>6.92876493648277</speed>
      </trkpt>
      <trkpt lat="47.62083" lon="9.6202">
        <ele>466</ele>
        <time>2010-07-21T01:56:49Z</time>
        <course>154.579859066337</course>
        <speed>6.93475242666378</speed>
      </trkpt>
      <trkpt lat="47.62046" lon="9.6204">
        <ele>465</ele>
        <time>2010-07-21T01:56:56Z</time>
        <course>184.570437370903</course>
        <speed>6.93831518125059</speed>
      </trkpt>
      <trkpt lat="47.62024" lon="9.62038">
        <ele>465</ele>
        <time>2010-07-21T01:56:59Z</time>
        <course>149.213914384981</course>
        <speed>6.93558844778193</speed>
      </trkpt>
      <trkpt lat="47.61993" lon="9.62059">
        <ele>465</ele>
        <time>2010-07-21T01:57:05Z</time>
        <course>117.03730936049</course>
        <speed>6.93183895359165</speed>
      </trkpt>
      <trkpt lat="47.61931" lon="9.62197">
        <ele>465</ele>
        <time>2010-07-21T01:57:23Z</time>
        <course>110.571961070781</course>
        <speed>4.13597487331541</speed>
      </trkpt>
      <trkpt lat="47.61892" lon="9.62315">
        <ele>467</ele>
        <time>2010-07-21T01:57:46Z</time>
        <course>88.4567364251292</course>
        <speed>4.13668430427192</speed>
      </trkpt>
      <trkpt lat="47.61894" lon="9.624">
        <ele>468</ele>
        <time>2010-07-21T01:58:02Z</time>
        <course>94.5518709758362</course>
        <speed>4.13531164150214</speed>
      </trkpt>
      <trkpt lat="47.6189" lon="9.62457">
        <ele>470</ele>
        <time>2010-07-21T01:58:12Z</time>
        <course>117.509003652142</course>
        <speed>3.64737482991617</speed>
      </trkpt>
      <trkpt lat="47.61879" lon="9.62481">
        <ele>470</ele>
        <time>2010-07-21T01:58:18Z</time>
        <course>163.645275651408</course>
        <speed>3.64935865316464</speed>
      </trkpt>
      <trkpt lat="47.61807" lon="9.62505">
        <ele>473</ele>
        <time>2010-07-21T01:58:41Z</time>
        <course>118.983887814292</course>
        <speed>3.64850999730825</speed>
      </trkpt>
      <trkpt lat="47.61787" lon="9.62546">
        <ele>474</ele>
        <time>2010-07-21T01:58:51Z</time>
        <course>147.145975860715</course>
        <speed>3.64931314723576</speed>
      </trkpt>
      <trkpt lat="47.61757" lon="9.62568">
        <ele>475</ele>
        <time>2010-07-21T01:59:01Z</time>
        <course>184.129797953637</course>
        <speed>3.64981648068116</speed>
      </trkpt>
      <trkpt lat="47.61696" lon="9.62563">
        <ele>478</ele>
        <time>2010-07-21T01:59:20Z</time>
        <course>170.007279483311</course>
        <speed>4.02604274476709</speed>
      </trkpt>
      <trkpt lat="47.61676" lon="9.62567">
        <ele>478</ele>
        <time>2010-07-21T01:59:25Z</time>
        <course>136.649795339274</course>
        <speed>4.02305299973611</speed>
      </trkpt>
      <trkpt lat="47.61662" lon="9.62582">
        <ele>479</ele>
        <time>2010-07-21T01:59:30Z</time>
        <course>119.941222169696</course>
        <speed>4.02326322230443</speed>
      </trkpt>
      <trkpt lat="47.61629" lon="9.62647">
        <ele>480</ele>
        <time>2010-07-21T01:59:45Z</time>
        <course>113.584829774602</course>
        <speed>4.0238977557888</speed>
      </trkpt>
      <trkpt lat="47.61572" lon="9.62795">
        <ele>484</ele>
        <time>2010-07-21T02:00:17Z</time>
        <course>133.382500833982</course>
        <speed>6.92967351440386</speed>
      </trkpt>
      <trkpt lat="47.61532" lon="9.62843">
        <ele>483</ele>
        <time>2010-07-21T02:00:25Z</time>
        <course>128.784691534941</course>
        <speed>6.93078821410488</speed>
      </trkpt>
      <trkpt lat="47.61476" lon="9.62922">
        <ele>482</ele>
        <time>2010-07-21T02:00:38Z</time>
        <course>128.784691534941</course>
        <speed>6.93078821410488</speed>
      </trkpt>
      <trkpt lat="47.61476" lon="9.62922">
        <ele>482</ele>
        <time>2010-07-21T02:00:39Z</time>
        <course>129.002012287179</course>
        <speed>4.14070948152284</speed>
      </trkpt>
      <trkpt lat="47.61466" lon="9.62936">
        <ele>482</ele>
        <time>2010-07-21T02:00:42Z</time>
        <course>58.5928140928027</course>
        <speed>4.1405998744548</speed>
      </trkpt>
      <trkpt lat="47.61473" lon="9.62949">
        <ele>482</ele>
        <time>2010-07-21T02:00:45Z</time>
        <course>91.0225823398378</course>
        <speed>4.13713728721361</speed>
      </trkpt>
      <trkpt lat="47.61472" lon="9.63012">
        <ele>483</ele>
        <time>2010-07-21T02:00:57Z</time>
        <course>84.5989658608923</course>
        <speed>4.13575728036706</speed>
      </trkpt>
      <trkpt lat="47.61474" lon="9.63036">
        <ele>484</ele>
        <time>2010-07-21T02:01:01Z</time>
        <course>69.2927832977153</course>
        <speed>4.1323232760188</speed>
      </trkpt>
      <trkpt lat="47.6148" lon="9.63054">
        <ele>484</ele>
        <time>2010-07-21T02:01:05Z</time>
        <course>40.5573609422254</course>
        <speed>4.13676936531483</speed>
      </trkpt>
      <trkpt lat="47.61584" lon="9.63155">
        <ele>488</ele>
        <time>2010-07-21T02:01:38Z</time>
        <course>62.8948400736698</course>
        <speed>6.93254054231847</speed>
      </trkpt>
      <trkpt lat="47.61607" lon="9.63206">
        <ele>487</ele>
        <time>2010-07-21T02:01:45Z</time>
        <course>69.2728828980019</course>
        <speed>6.93468562947382</speed>
      </trkpt>
      <trkpt lat="47.61627" lon="9.63266">
        <ele>486</ele>
        <time>2010-07-21T02:01:52Z</time>
        <course>45.0654568158435</course>
        <speed>6.93060854031525</speed>
      </trkpt>
      <trkpt lat="47.61685" lon="9.63332">
        <ele>485</ele>
        <time>2010-07-21T02:02:04Z</time>
        <course>41.5236939663782</course>
        <speed>6.93307936140675</speed>
      </trkpt>
      <trkpt lat="47.61843" lon="9.63491">
        <ele>483</ele>
        <time>2010-07-21T02:02:34Z</time>
        <course>37.2322562398931</course>
        <speed>6.93310133122163</speed>
      </trkpt>
      <trkpt lat="47.61887" lon="9.63529">
        <ele>483</ele>
        <time>2010-07-21T02:02:42Z</time>
        <course>19.6890304531243</course>
        <speed>6.92972625558902</speed>
      </trkpt>
      <trkpt lat="47.61946" lon="9.63553">
        <ele>483</ele>
        <time>2010-07-21T02:02:52Z</time>
        <course>41.3339665675422</course>
        <speed>6.93766484104845</speed>
      </trkpt>
      <trkpt lat="47.61965" lon="9.63572">
        <ele>483</ele>
        <time>2010-07-21T02:02:56Z</time>
        <course>66.44401851309</course>
        <speed>6.93139629920647</speed>
      </trkpt>
      <trkpt lat="47.62006" lon="9.63679">
        <ele>483</ele>
        <time>2010-07-21T02:03:09Z</time>
        <course>89.9983634226308</course>
        <speed>6.91382284009775</speed>
      </trkpt>
      <trkpt lat="47.62006" lon="9.63691">
        <ele>482</ele>
        <time>2010-07-21T02:03:11Z</time>
        <course>108.830381448886</course>
        <speed>6.93305505173336</speed>
      </trkpt>
      <trkpt lat="47.61994" lon="9.63731">
        <ele>482</ele>
        <time>2010-07-21T02:03:15Z</time>
        <course>100.307412929942</course>
        <speed>6.92276803780495</speed>
      </trkpt>
      <trkpt lat="47.6199" lon="9.63756">
        <ele>481</ele>
        <time>2010-07-21T02:03:18Z</time>
        <course>88.2809384890466</course>
        <speed>6.93033372986275</speed>
      </trkpt>
      <trkpt lat="47.61991" lon="9.63794">
        <ele>481</ele>
        <time>2010-07-21T02:03:22Z</time>
        <course>123.010592508799</course>
        <speed>6.94295193859558</speed>
      </trkpt>
      <trkpt lat="47.61983" lon="9.63808">
        <ele>481</ele>
        <time>2010-07-21T02:03:24Z</time>
        <course>123.010592508799</course>
        <speed>6.94295193859558</speed>
      </trkpt>
      <trkpt lat="47.61983" lon="9.63808">
        <ele>481</ele>
        <time>2010-07-21T02:03:25Z</time>
        <course>134.84744088462</course>
        <speed>3.60100738051628</speed>
      </trkpt>
      <trkpt lat="47.61962" lon="9.63832">
        <ele>481</ele>
        <time>2010-07-21T02:03:33Z</time>
        <course>171.48261060425</course>
        <speed>3.60308550704152</speed>
      </trkpt>
      <trkpt lat="47.61915" lon="9.6384">
        <ele>483</ele>
        <time>2010-07-21T02:03:48Z</time>
        <course>159.334360561665</course>
        <speed>3.60300300808035</speed>
      </trkpt>
      <trkpt lat="47.61866" lon="9.63861">
        <ele>485</ele>
        <time>2010-07-21T02:04:04Z</time>
        <course>149.28544785584</course>
        <speed>3.60312350271974</speed>
      </trkpt>
      <trkpt lat="47.61783" lon="9.63917">
        <ele>489</ele>
        <time>2010-07-21T02:04:32Z</time>
        <course>163.636494667533</course>
        <speed>6.93097748104233</speed>
      </trkpt>
      <trkpt lat="47.61702" lon="9.63944">
        <ele>487</ele>
        <time>2010-07-21T02:04:45Z</time>
        <course>158.42641037707</course>
        <speed>6.9316805301144</speed>
      </trkpt>
      <trkpt lat="47.61595" lon="9.63992">
        <ele>485</ele>
        <time>2010-07-21T02:05:03Z</time>
        <course>121.624132568459</course>
        <speed>2.54239352355115</speed>
      </trkpt>
      <trkpt lat="47.61576" lon="9.64027">
        <ele>487</ele>
        <time>2010-07-21T02:05:16Z</time>
        <course>109.844994889361</course>
        <speed>2.54153702998169</speed>
      </trkpt>
      <trkpt lat="47.61569" lon="9.64049">
        <ele>488</ele>
        <time>2010-07-21T02:05:23Z</time>
        <course>138.602430001322</course>
        <speed>2.54448615881374</speed>
      </trkpt>
      <trkpt lat="47.6156" lon="9.64058">
        <ele>488</ele>
        <time>2010-07-21T02:05:28Z</time>
        <course>212.489220024382</course>
        <speed>2.54241244481694</speed>
      </trkpt>
      <trkpt lat="47.61524" lon="9.64032">
        <ele>491</ele>
        <time>2010-07-21T02:05:46Z</time>
        <course>200.173270063692</course>
        <speed>2.54135906905387</speed>
      </trkpt>
      <trkpt lat="47.61512" lon="9.64027">
        <ele>492</ele>
        <time>2010-07-21T02:05:51Z</time>
        <course>177.475327827597</course>
        <speed>2.54132803177511</speed>
      </trkpt>
      <trkpt lat="47.61492" lon="9.64028">
        <ele>494</ele>
        <time>2010-07-21T02:06:00Z</time>
        <course>177.475327827597</course>
        <speed>2.54132803177511</speed>
      </trkpt>
      <trkpt lat="47.61492" lon="9.64028">
        <ele>494</ele>
        <time>2010-07-21T02:06:01Z</time>
        <course>119.550849526182</course>
        <speed>6.95128274785235</speed>
      </trkpt>
      <trkpt lat="47.61486" lon="9.6404">
        <ele>493</ele>
        <time>2010-07-21T02:06:02Z</time>
        <course>102.520947148528</course>
        <speed>6.93135965656555</speed>
      </trkpt>
      <trkpt lat="47.61466" lon="9.64142">
        <ele>490</ele>
        <time>2010-07-21T02:06:14Z</time>
        <course>113.907384981036</course>
        <speed>6.93146443267357</speed>
      </trkpt>
      <trkpt lat="47.61421" lon="9.64257">
        <ele>487</ele>
        <time>2010-07-21T02:06:28Z</time>
        <course>121.302943794452</course>
        <speed>6.93533859054629</speed>
      </trkpt>
      <trkpt lat="47.61399" lon="9.64298">
        <ele>486</ele>
        <time>2010-07-21T02:06:34Z</time>
        <course>43.6119150741307</course>
        <speed>6.92794384604279</speed>
      </trkpt>
      <trkpt lat="47.61424" lon="9.64325">
        <ele>485</ele>
        <time>2010-07-21T02:06:39Z</time>
        <course>30.2015057798722</course>
        <speed>6.93397199731362</speed>
      </trkpt>
      <trkpt lat="47.61474" lon="9.64358">
        <ele>484</ele>
        <time>2010-07-21T02:06:48Z</time>
        <course>63.6127934706417</course>
        <speed>6.93593737517766</speed>
      </trkpt>
      <trkpt lat="47.61481" lon="9.64374">
        <ele>484</ele>
        <time>2010-07-21T02:06:50Z</time>
        <course>102.903754251326</course>
        <speed>6.93260771365395</speed>
      </trkpt>
      <trkpt lat="47.61463" lon="9.64463">
        <ele>483</ele>
        <time>2010-07-21T02:07:00Z</time>
        <course>109.72609100824</course>
        <speed>6.93247146327531</speed>
      </trkpt>
      <trkpt lat="47.61438" lon="9.64542">
        <ele>483</ele>
        <time>2010-07-21T02:07:09Z</time>
        <course>124.215286735209</course>
        <speed>6.93189970026481</speed>
      </trkpt>
      <trkpt lat="47.61411" lon="9.64587">
        <ele>483</ele>
        <time>2010-07-21T02:07:16Z</time>
        <course>110.683543966659</course>
        <speed>6.93372342553951</speed>
      </trkpt>
      <trkpt lat="47.61379" lon="9.64683">
        <ele>483</ele>
        <time>2010-07-21T02:07:27Z</time>
        <course>100.947547228127</course>
        <speed>6.93383367012026</speed>
      </trkpt>
      <trkpt lat="47.61359" lon="9.648">
        <ele>483</ele>
        <time>2010-07-21T02:07:40Z</time>
        <course>95.8606772473762</course>
        <speed>5.62067908723666</speed>
      </trkpt>
      <trkpt lat="47.61345" lon="9.64954">
        <ele>483</ele>
        <time>2010-07-21T02:08:01Z</time>
        <course>84.1068111230677</course>
        <speed>5.61796956973639</speed>
      </trkpt>
      <trkpt lat="47.61353" lon="9.65042">
        <ele>484</ele>
        <time>2010-07-21T02:08:13Z</time>
        <course>99.363715452264</course>
        <speed>5.61858365712824</speed>
      </trkpt>
      <trkpt lat="47.6132" lon="9.65268">
        <ele>486</ele>
        <time>2010-07-21T02:08:44Z</time>
        <course>89.1010227106171</course>
        <speed>6.93222726905864</speed>
      </trkpt>
      <trkpt lat="47.61321" lon="9.65341">
        <ele>486</ele>
        <time>2010-07-21T02:08:52Z</time>
        <course>89.1010227106171</course>
        <speed>6.93222726905864</speed>
      </trkpt>
      <trkpt lat="47.61321" lon="9.65341">
        <ele>486</ele>
        <time>2010-07-21T02:08:53Z</time>
        <course>82.8214729235935</course>
        <speed>3.32227849537359</speed>
      </trkpt>
      <trkpt lat="47.61324" lon="9.65368">
        <ele>486</ele>
        <time>2010-07-21T02:08:59Z</time>
        <course>53.3251488551268</course>
        <speed>3.32250922603301</speed>
      </trkpt>
      <trkpt lat="47.61347" lon="9.65403">
        <ele>488</ele>
        <time>2010-07-21T02:09:10Z</time>
        <course>37.1755754314914</course>
        <speed>3.32147960096455</speed>
      </trkpt>
      <trkpt lat="47.61404" lon="9.65452">
        <ele>491</ele>
        <time>2010-07-21T02:09:32Z</time>
        <course>20.7061539117834</course>
        <speed>3.32164806705968</speed>
      </trkpt>
      <trkpt lat="47.6146" lon="9.65476">
        <ele>493</ele>
        <time>2010-07-21T02:09:51Z</time>
        <course>37.0879050050596</course>
        <speed>3.32722893007115</speed>
      </trkpt>
      <trkpt lat="47.61467" lon="9.65482">
        <ele>494</ele>
        <time>2010-07-21T02:09:54Z</time>
        <course>67.5918325285942</course>
        <speed>6.93496557451134</speed>
      </trkpt>
      <trkpt lat="47.61471" lon="9.65493">
        <ele>493</ele>
        <time>2010-07-21T02:09:55Z</time>
        <course>114.167578087056</course>
        <speed>6.93194379840774</speed>
      </trkpt>
      <trkpt lat="47.61408" lon="9.65652">
        <ele>483</ele>
        <time>2010-07-21T02:10:15Z</time>
        <course>118.894739359755</course>
        <speed>6.93169466648354</speed>
      </trkpt>
      <trkpt lat="47.6137" lon="9.6573">
        <ele>479</ele>
        <time>2010-07-21T02:10:26Z</time>
        <course>131.806841709763</course>
        <speed>6.92872754411085</speed>
      </trkpt>
      <trkpt lat="47.61325" lon="9.65787">
        <ele>477</ele>
        <time>2010-07-21T02:10:35Z</time>
        <course>159.002984024922</course>
        <speed>6.93562238539206</speed>
      </trkpt>
      <trkpt lat="47.61302" lon="9.65797">
        <ele>477</ele>
        <time>2010-07-21T02:10:39Z</time>
        <course>132.180102098684</course>
        <speed>6.93614232303125</speed>
      </trkpt>
      <trkpt lat="47.61282" lon="9.65822">
        <ele>477</ele>
        <time>2010-07-21T02:10:43Z</time>
        <course>132.180102098684</course>
        <speed>6.93614232303125</speed>
      </trkpt>
      <trkpt lat="47.61282" lon="9.65822">
        <ele>477</ele>
        <time>2010-07-21T02:10:44Z</time>
        <course>128.974349998303</course>
        <speed>3.47260945107833</speed>
      </trkpt>
      <trkpt lat="47.61277" lon="9.65829">
        <ele>477</ele>
        <time>2010-07-21T02:10:46Z</time>
        <course>190.38631504288</course>
        <speed>3.47965311257601</speed>
      </trkpt>
      <trkpt lat="47.61224" lon="9.65818">
        <ele>479</ele>
        <time>2010-07-21T02:11:04Z</time>
        <course>170.877094119993</course>
        <speed>3.47872252567338</speed>
      </trkpt>
      <trkpt lat="47.61202" lon="9.65822">
        <ele>480</ele>
        <time>2010-07-21T02:11:11Z</time>
        <course>148.513040118926</course>
        <speed>3.47939138342176</speed>
      </trkpt>
      <trkpt lat="47.61049" lon="9.65928">
        <ele>487</ele>
        <time>2010-07-21T02:12:05Z</time>
        <course>165.424329675608</course>
        <speed>6.92740167683794</speed>
      </trkpt>
      <trkpt lat="47.61015" lon="9.65938">
        <ele>486</ele>
        <time>2010-07-21T02:12:10Z</time>
        <course>181.94803231124</course>
        <speed>6.93067408532578</speed>
      </trkpt>
      <trkpt lat="47.60963" lon="9.65936">
        <ele>486</ele>
        <time>2010-07-21T02:12:18Z</time>
        <course>161.019827615898</course>
        <speed>6.93879833360425</speed>
      </trkpt>
      <trkpt lat="47.60945" lon="9.65943">
        <ele>485</ele>
        <time>2010-07-21T02:12:21Z</time>
        <course>136.777436608939</course>
        <speed>6.94283936183811</speed>
      </trkpt>
      <trkpt lat="47.60929" lon="9.6596">
        <ele>485</ele>
        <time>2010-07-21T02:12:25Z</time>
        <course>147.423735556314</course>
        <speed>6.93041223330001</speed>
      </trkpt>
      <trkpt lat="47.60893" lon="9.65986">
        <ele>485</ele>
        <time>2010-07-21T02:12:31Z</time>
        <course>159.309690627243</course>
        <speed>6.93259865768537</speed>
      </trkpt>
      <trkpt lat="47.6075" lon="9.66047">
        <ele>484</ele>
        <time>2010-07-21T02:12:55Z</time>
        <course>180</course>
        <speed>6.93359605913686</speed>
      </trkpt>
      <trkpt lat="47.60712" lon="9.66047">
        <ele>481</ele>
        <time>2010-07-21T02:13:01Z</time>
        <course>197.683501328968</course>
        <speed>6.93848744688791</speed>
      </trkpt>
      <trkpt lat="47.60687" lon="9.66038">
        <ele>480</ele>
        <time>2010-07-21T02:13:05Z</time>
        <course>207.104504897308</course>
        <speed>6.93333797905633</speed>
      </trkpt>
      <trkpt lat="47.60642" lon="9.66012">
        <ele>477</ele>
        <time>2010-07-21T02:13:13Z</time>
        <course>182.669859092908</course>
        <speed>6.92658641328606</speed>
      </trkpt>
      <trkpt lat="47.60604" lon="9.6601">
        <ele>475</ele>
        <time>2010-07-21T02:13:19Z</time>
        <course>170.566305006344</course>
        <speed>6.93257445486049</speed>
      </trkpt>
      <trkpt lat="47.60572" lon="9.66016">
        <ele>474</ele>
        <time>2010-07-21T02:13:24Z</time>
        <course>139.456209842427</course>
        <speed>6.93235617024058</speed>
      </trkpt>
      <trkpt lat="47.60515" lon="9.66071">
        <ele>469</ele>
        <time>2010-07-21T02:13:35Z</time>
        <course>139.456209842427</course>
        <speed>6.93235617024058</speed>
      </trkpt>
      <trkpt lat="47.60515" lon="9.66071">
        <ele>469</ele>
        <time>2010-07-21T02:13:36Z</time>
        <course>101.990025244951</course>
        <speed>6.93488399341854</speed>
      </trkpt>
      <trkpt lat="47.60502" lon="9.6614">
        <ele>468</ele>
        <time>2010-07-21T02:13:44Z</time>
        <course>126.802461534135</course>
        <speed>6.93108480516154</speed>
      </trkpt>
      <trkpt lat="47.60427" lon="9.66253">
        <ele>467</ele>
        <time>2010-07-21T02:14:01Z</time>
        <course>116.414330110224</course>
        <speed>6.93022996349573</speed>
      </trkpt>
      <trkpt lat="47.60401" lon="9.66312">
        <ele>467</ele>
        <time>2010-07-21T02:14:08Z</time>
        <course>106.824302362698</course>
        <speed>6.93100894985826</speed>
      </trkpt>
      <trkpt lat="47.6039" lon="9.66353">
        <ele>467</ele>
        <time>2010-07-21T02:14:13Z</time>
        <course>99.5334600111412</course>
        <speed>6.93373058378428</speed>
      </trkpt>
      <trkpt lat="47.6037" lon="9.66487">
        <ele>467</ele>
        <time>2010-07-21T02:14:28Z</time>
        <course>131.424048062836</course>
        <speed>6.93132829221807</speed>
      </trkpt>
      <trkpt lat="47.60236" lon="9.66658">
        <ele>467</ele>
        <time>2010-07-21T02:14:56Z</time>
        <course>135.771001291091</course>
        <speed>3.99845273341174</speed>
      </trkpt>
      <trkpt lat="47.60184" lon="9.66715">
        <ele>468</ele>
        <time>2010-07-21T02:15:14Z</time>
        <course>155.523819797362</course>
        <speed>3.99915366805026</speed>
      </trkpt>
      <trkpt lat="47.6002" lon="9.66799">
        <ele>474</ele>
        <time>2010-07-21T02:16:03Z</time>
        <course>177.321514203283</course>
        <speed>6.92658744904725</speed>
      </trkpt>
      <trkpt lat="47.59982" lon="9.66801">
        <ele>472</ele>
        <time>2010-07-21T02:16:09Z</time>
        <course>192.803731540045</course>
        <speed>6.93183267497266</speed>
      </trkpt>
      <trkpt lat="47.59892" lon="9.66778">
        <ele>470</ele>
        <time>2010-07-21T02:16:23Z</time>
        <course>168.572649815004</course>
        <speed>6.92768001696421</speed>
      </trkpt>
      <trkpt lat="47.5987" lon="9.66783">
        <ele>469</ele>
        <time>2010-07-21T02:16:27Z</time>
        <course>153.855610087415</course>
        <speed>6.93200157008079</speed>
      </trkpt>
      <trkpt lat="47.59812" lon="9.66815">
        <ele>468</ele>
        <time>2010-07-21T02:16:37Z</time>
        <course>145.148744028869</course>
        <speed>4.91466401889905</speed>
      </trkpt>
      <trkpt lat="47.59789" lon="9.66833">
        <ele>468</ele>
        <time>2010-07-21T02:16:43Z</time>
        <course>157.975174315798</course>
        <speed>4.91711721137178</speed>
      </trkpt>
      <trkpt lat="47.59745" lon="9.66853">
        <ele>469</ele>
        <time>2010-07-21T02:16:53Z</time>
        <course>134.684247611948</course>
        <speed>4.91814606540023</speed>
      </trkpt>
      <trkpt lat="47.59686" lon="9.6692">
        <ele>470</ele>
        <time>2010-07-21T02:17:10Z</time>
        <course>170.177717012261</course>
        <speed>4.91420524336013</speed>
      </trkpt>
      <trkpt lat="47.5965" lon="9.66927">
        <ele>471</ele>
        <time>2010-07-21T02:17:18Z</time>
        <course>117.854794658131</course>
        <speed>4.05582764041624</speed>
      </trkpt>
      <trkpt lat="47.59642" lon="9.66944">
        <ele>471</ele>
        <time>2010-07-21T02:17:22Z</time>
        <course>104.008097334895</course>
        <speed>4.05179725188251</speed>
      </trkpt>
      <trkpt lat="47.59634" lon="9.6698">
        <ele>472</ele>
        <time>2010-07-21T02:17:29Z</time>
        <course>135.301488494228</course>
        <speed>4.05078523149071</speed>
      </trkpt>
      <trkpt lat="47.59616" lon="9.67">
        <ele>472</ele>
        <time>2010-07-21T02:17:35Z</time>
        <course>175.151128817943</course>
        <speed>4.05256091030684</speed>
      </trkpt>
      <trkpt lat="47.59574" lon="9.67004">
        <ele>473</ele>
        <time>2010-07-21T02:17:47Z</time>
        <course>160.969979943667</course>
        <speed>4.05253672729287</speed>
      </trkpt>
      <trkpt lat="47.59512" lon="9.67028">
        <ele>475</ele>
        <time>2010-07-21T02:18:04Z</time>
        <course>167.325635489708</course>
        <speed>4.05165576730606</speed>
      </trkpt>
      <trkpt lat="47.59401" lon="9.67056">
        <ele>479</ele>
        <time>2010-07-21T02:18:35Z</time>
        <course>180.824073296603</course>
        <speed>6.93143615832632</speed>
      </trkpt>
      <trkpt lat="47.59339" lon="9.67055">
        <ele>479</ele>
        <time>2010-07-21T02:18:45Z</time>
        <course>173.123123133433</course>
        <speed>6.93279355632249</speed>
      </trkpt>
      <trkpt lat="47.59191" lon="9.67075">
        <ele>479</ele>
        <time>2010-07-21T02:19:09Z</time>
        <course>263.608015343411</course>
        <speed>6.95040641872398</speed>
      </trkpt>
      <trkpt lat="47.5919" lon="9.67065">
        <ele>479</ele>
        <time>2010-07-21T02:19:10Z</time>
        <course>263.608015343411</course>
        <speed>6.95040641872398</speed>
      </trkpt>
      <trkpt lat="47.5919" lon="9.67065">
        <ele>479</ele>
        <time>2010-07-21T02:19:11Z</time>
        <course>264.015851540853</course>
        <speed>4.49469826774989</speed>
      </trkpt>
      <trkpt lat="47.59181" lon="9.66969">
        <ele>480</ele>
        <time>2010-07-21T02:19:27Z</time>
        <course>277.73839914296</course>
        <speed>4.49490515881583</speed>
      </trkpt>
      <trkpt lat="47.59185" lon="9.66936">
        <ele>480</ele>
        <time>2010-07-21T02:19:33Z</time>
        <course>290.710556785925</course>
        <speed>4.49505476006621</speed>
      </trkpt>
      <trkpt lat="47.59214" lon="9.6685">
        <ele>482</ele>
        <time>2010-07-21T02:19:49Z</time>
        <course>279.894394686737</course>
        <speed>4.49458500973721</speed>
      </trkpt>
      <trkpt lat="47.59221" lon="9.66805">
        <ele>483</ele>
        <time>2010-07-21T02:19:56Z</time>
        <course>273.791434655298</course>
        <speed>6.93330547525579</speed>
      </trkpt>
      <trkpt lat="47.5923" lon="9.66652">
        <ele>479</ele>
        <time>2010-07-21T02:20:13Z</time>
        <course>261.509177722124</course>
        <speed>6.93405136464837</speed>
      </trkpt>
      <trkpt lat="47.59222" lon="9.66592">
        <ele>478</ele>
        <time>2010-07-21T02:20:20Z</time>
        <course>242.414913591349</course>
        <speed>6.93195790701487</speed>
      </trkpt>
      <trkpt lat="47.59152" lon="9.66442">
        <ele>474</ele>
        <time>2010-07-21T02:20:39Z</time>
        <course>239.235326771359</course>
        <speed>6.92892838932133</speed>
      </trkpt>
      <trkpt lat="47.5911" lon="9.66363">
        <ele>471</ele>
        <time>2010-07-21T02:20:50Z</time>
        <course>235.922375423134</course>
        <speed>6.928992445468</speed>
      </trkpt>
      <trkpt lat="47.59081" lon="9.66315">
        <ele>470</ele>
        <time>2010-07-21T02:20:57Z</time>
        <course>228.422516513293</course>
        <speed>6.93259282790463</speed>
      </trkpt>
      <trkpt lat="47.59039" lon="9.66262">
        <ele>468</ele>
        <time>2010-07-21T02:21:06Z</time>
        <course>243.262489701965</course>
        <speed>6.93023114024982</speed>
      </trkpt>
      <trkpt lat="47.5903" lon="9.66242">
        <ele>468</ele>
        <time>2010-07-21T02:21:09Z</time>
        <course>255.518865835326</course>
        <speed>6.92627606871358</speed>
      </trkpt>
      <trkpt lat="47.59021" lon="9.66203">
        <ele>468</ele>
        <time>2010-07-21T02:21:13Z</time>
        <course>348.353527110505</course>
        <speed>6.92867796483046</speed>
      </trkpt>
      <trkpt lat="47.59034" lon="9.662">
        <ele>468</ele>
        <time>2010-07-21T02:21:15Z</time>
        <course>298.258038120221</course>
        <speed>6.92658011625515</speed>
      </trkpt>
      <trkpt lat="47.59046" lon="9.66175">
        <ele>468</ele>
        <time>2010-07-21T02:21:19Z</time>
        <course>298.258038120221</course>
        <speed>6.92658011625515</speed>
      </trkpt>
      <trkpt lat="47.59046" lon="9.66175">
        <ele>468</ele>
        <time>2010-07-21T02:21:20Z</time>
        <course>289.120573119356</course>
        <speed>6.92644958583987</speed>
      </trkpt>
      <trkpt lat="47.59059" lon="9.66133">
        <ele>467</ele>
        <time>2010-07-21T02:21:25Z</time>
        <course>305.609580862496</course>
        <speed>6.9297210139181</speed>
      </trkpt>
      <trkpt lat="47.59098" lon="9.66072">
        <ele>466</ele>
        <time>2010-07-21T02:21:34Z</time>
        <course>282.535766955341</course>
        <speed>6.93273867800098</speed>
      </trkpt>
      <trkpt lat="47.59121" lon="9.65956">
        <ele>465</ele>
        <time>2010-07-21T02:21:47Z</time>
        <course>287.903645646821</course>
        <speed>6.93315086681039</speed>
      </trkpt>
      <trkpt lat="47.59155" lon="9.65838">
        <ele>464</ele>
        <time>2010-07-21T02:22:01Z</time>
        <course>297.605378172847</course>
        <speed>1.76271633158499</speed>
      </trkpt>
      <trkpt lat="47.59169" lon="9.65808">
        <ele>466</ele>
        <time>2010-07-21T02:22:16Z</time>
        <course>312.789310012488</course>
        <speed>1.76294116500199</speed>
      </trkpt>
      <trkpt lat="47.59188" lon="9.65785">
        <ele>469</ele>
        <time>2010-07-21T02:22:32Z</time>
        <course>329.481665505217</course>
        <speed>1.76307576168131</speed>
      </trkpt>
      <trkpt lat="47.59244" lon="9.65748">
        <ele>476</ele>
        <time>2010-07-21T02:23:10Z</time>
        <course>304.808760150971</course>
        <speed>1.76291328647908</speed>
      </trkpt>
      <trkpt lat="47.59319" lon="9.65627">
        <ele>490</ele>
        <time>2010-07-21T02:24:20Z</time>
        <course>314.112298428237</course>
        <speed>6.93359293928806</speed>
      </trkpt>
      <trkpt lat="47.59389" lon="9.65546">
        <ele>483</ele>
        <time>2010-07-21T02:24:34Z</time>
        <course>301.23371379376</course>
        <speed>6.9267390298175</speed>
      </trkpt>
      <trkpt lat="47.59409" lon="9.65509">
        <ele>481</ele>
        <time>2010-07-21T02:24:39Z</time>
        <course>295.179394600059</course>
        <speed>6.93091313232509</speed>
      </trkpt>
      <trkpt lat="47.59509" lon="9.6527">
        <ele>467</ele>
        <time>2010-07-21T02:25:10Z</time>
        <course>302.686840101649</course>
        <speed>6.93317587630228</speed>
      </trkpt>
      <trkpt lat="47.59557" lon="9.65186">
        <ele>467</ele>
        <time>2010-07-21T02:25:22Z</time>
        <course>306.820216763484</course>
        <speed>6.93061020654382</speed>
      </trkpt>
      <trkpt lat="47.59593" lon="9.65132">
        <ele>467</ele>
        <time>2010-07-21T02:25:30Z</time>
        <course>315.973512458701</course>
        <speed>6.93135135284393</speed>
      </trkpt>
      <trkpt lat="47.59686" lon="9.65031">
        <ele>467</ele>
        <time>2010-07-21T02:25:48Z</time>
        <course>308.184202751089</course>
        <speed>6.93828197346413</speed>
      </trkpt>
      <trkpt lat="47.59707" lon="9.65001">
        <ele>464</ele>
        <time>2010-07-21T02:25:53Z</time>
        <course>304.30225850799</course>
        <speed>6.93664676004056</speed>
      </trkpt>
      <trkpt lat="47.59724" lon="9.64973">
        <ele>462</ele>
        <time>2010-07-21T02:25:57Z</time>
        <course>294.748526251459</course>
        <speed>6.93243511182416</speed>
      </trkpt>
      <trkpt lat="47.59765" lon="9.64873">
        <ele>457</ele>
        <time>2010-07-21T02:26:10Z</time>
        <course>298.758663706951</course>
        <speed>6.93137424775527</speed>
      </trkpt>
      <trkpt lat="47.59806" lon="9.64789">
        <ele>452</ele>
        <time>2010-07-21T02:26:21Z</time>
        <course>312.303450874379</course>
        <speed>3.433750604494</speed>
      </trkpt>
      <trkpt lat="47.59823" lon="9.64768">
        <ele>452</ele>
        <time>2010-07-21T02:26:28Z</time>
        <course>325.265607263472</course>
        <speed>3.43549796717071</speed>
      </trkpt>
      <trkpt lat="47.59882" lon="9.64722">
        <ele>455</ele>
        <time>2010-07-21T02:26:50Z</time>
        <course>318.358233855495</course>
        <speed>3.43648626002881</speed>
      </trkpt>
      <trkpt lat="47.5991" lon="9.64694">
        <ele>457</ele>
        <time>2010-07-21T02:27:01Z</time>
        <course>318.358233855495</course>
        <speed>3.43648626002881</speed>
      </trkpt>
      <trkpt lat="47.5991" lon="9.64694">
        <ele>457</ele>
        <time>2010-07-21T02:27:02Z</time>
        <course>317.09365032223</course>
        <speed>6.93976287617607</speed>
      </trkpt>
      <trkpt lat="47.59932" lon="9.64671">
        <ele>456</ele>
        <time>2010-07-21T02:27:06Z</time>
        <course>296.800797115508</course>
        <speed>6.93544855587005</speed>
      </trkpt>
      <trkpt lat="47.59954" lon="9.64622">
        <ele>456</ele>
        <time>2010-07-21T02:27:12Z</time>
        <course>288.008615589543</course>
        <speed>6.93425301173904</speed>
      </trkpt>
      <trkpt lat="47.59967" lon="9.64577">
        <ele>456</ele>
        <time>2010-07-21T02:27:18Z</time>
        <course>273.932936526968</course>
        <speed>6.93305064340399</speed>
      </trkpt>
      <trkpt lat="47.59976" lon="9.64429">
        <ele>456</ele>
        <time>2010-07-21T02:27:34Z</time>
        <course>281.803623253134</course>
        <speed>6.93255901679216</speed>
      </trkpt>
      <trkpt lat="47.59999" lon="9.64305">
        <ele>453</ele>
        <time>2010-07-21T02:27:48Z</time>
        <course>266.576708320599</course>
        <speed>6.93409240224739</speed>
      </trkpt>
      <trkpt lat="47.59992" lon="9.64174">
        <ele>450</ele>
        <time>2010-07-21T02:28:02Z</time>
        <course>271.459982272538</course>
        <speed>6.92870813005037</speed>
      </trkpt>
      <trkpt lat="47.59994" lon="9.64085">
        <ele>449</ele>
        <time>2010-07-21T02:28:11Z</time>
        <course>293.292102016644</course>
        <speed>1.37904016639355</speed>
      </trkpt>
      <trkpt lat="47.60033" lon="9.63983">
        <ele>461</ele>
        <time>2010-07-21T02:29:15Z</time>
        <course>268.951148454531</course>
        <speed>1.37917331352788</speed>
      </trkpt>
      <trkpt lat="47.60032" lon="9.63922">
        <ele>468</ele>
        <time>2010-07-21T02:29:48Z</time>
        <course>270.016422756934</course>
        <speed>1.37897568854348</speed>
      </trkpt>
      <trkpt lat="47.60032" lon="9.63797">
        <ele>482</ele>
        <time>2010-07-21T02:30:56Z</time>
        <course>263.740203873522</course>
        <speed>6.92865714603548</speed>
      </trkpt>
      <trkpt lat="47.60028" lon="9.63756">
        <ele>481</ele>
        <time>2010-07-21T02:31:01Z</time>
        <course>252.94353339473</course>
        <speed>6.92783955229498</speed>
      </trkpt>
      <trkpt lat="47.60019" lon="9.63723">
        <ele>481</ele>
        <time>2010-07-21T02:31:05Z</time>
        <course>241.587996517131</course>
        <speed>6.93144689236896</speed>
      </trkpt>
      <trkpt lat="47.59981" lon="9.63644">
        <ele>480</ele>
        <time>2010-07-21T02:31:15Z</time>
        <course>236.44342240714</course>
        <speed>6.93246497073363</speed>
      </trkpt>
      <trkpt lat="47.59958" lon="9.63605">
        <ele>479</ele>
        <time>2010-07-21T02:31:21Z</time>
        <course>248.016672096906</course>
        <speed>6.92579723080937</speed>
      </trkpt>
      <trkpt lat="47.59944" lon="9.63566">
        <ele>479</ele>
        <time>2010-07-21T02:31:25Z</time>
        <course>257.991640017921</course>
        <speed>6.93840160955049</speed>
      </trkpt>
      <trkpt lat="47.59937" lon="9.63529">
        <ele>478</ele>
        <time>2010-07-21T02:31:30Z</time>
        <course>268.353155996032</course>
        <speed>6.92975870735169</speed>
      </trkpt>
      <trkpt lat="47.59936" lon="9.6349">
        <ele>477</ele>
        <time>2010-07-21T02:31:34Z</time>
        <course>280.290768275054</course>
        <speed>6.93275122158162</speed>
      </trkpt>
      <trkpt lat="47.59946" lon="9.63428">
        <ele>476</ele>
        <time>2010-07-21T02:31:41Z</time>
        <course>286.86758355168</course>
        <speed>6.93218719200179</speed>
      </trkpt>
      <trkpt lat="47.60062" lon="9.62996">
        <ele>470</ele>
        <time>2010-07-21T02:32:31Z</time>
        <course>278.889328625922</course>
        <speed>6.93707314191214</speed>
      </trkpt>
      <trkpt lat="47.60067" lon="9.6296">
        <ele>469</ele>
        <time>2010-07-21T02:32:35Z</time>
        <course>265.712832634195</course>
        <speed>6.92879040577332</speed>
      </trkpt>
      <trkpt lat="47.60065" lon="9.6293">
        <ele>468</ele>
        <time>2010-07-21T02:32:38Z</time>
        <course>248.983297652275</course>
        <speed>6.92852436861259</speed>
      </trkpt>
      <trkpt lat="47.60051" lon="9.62889">
        <ele>467</ele>
        <time>2010-07-21T02:32:43Z</time>
        <course>231.946542322844</course>
        <speed>6.93575942498604</speed>
      </trkpt>
      <trkpt lat="47.60035" lon="9.62866">
        <ele>466</ele>
        <time>2010-07-21T02:32:47Z</time>
        <course>205.761508373159</course>
        <speed>6.93150370373127</speed>
      </trkpt>
      <trkpt lat="47.59965" lon="9.62828">
        <ele>464</ele>
        <time>2010-07-21T02:32:59Z</time>
        <course>239.67805272042</course>
        <speed>6.9370383706645</speed>
      </trkpt>
      <trkpt lat="47.59952" lon="9.62803">
        <ele>464</ele>
        <time>2010-07-21T02:33:02Z</time>
        <course>263.586024291051</course>
        <speed>6.92823146007469</speed>
      </trkpt>
      <trkpt lat="47.59949" lon="9.62773">
        <ele>464</ele>
        <time>2010-07-21T02:33:05Z</time>
        <course>263.586024291051</course>
        <speed>6.92823146007469</speed>
      </trkpt>
      <trkpt lat="47.59949" lon="9.62773">
        <ele>464</ele>
        <time>2010-07-21T02:33:06Z</time>
        <course>277.126389091708</course>
        <speed>6.93864482854949</speed>
      </trkpt>
      <trkpt lat="47.59951" lon="9.62755">
        <ele>463</ele>
        <time>2010-07-21T02:33:08Z</time>
        <course>291.424435168288</course>
        <speed>6.93235568621932</speed>
      </trkpt>
      <trkpt lat="47.59997" lon="9.62623">
        <ele>462</ele>
        <time>2010-07-21T02:33:24Z</time>
        <course>285.722564212896</course>
        <speed>6.93519672124053</speed>
      </trkpt>
      <trkpt lat="47.60019" lon="9.62535">
        <ele>462</ele>
        <time>2010-07-21T02:33:34Z</time>
        <course>274.808917625858</course>
        <speed>6.92844862327939</speed>
      </trkpt>
      <trkpt lat="47.60024" lon="9.62468">
        <ele>462</ele>
        <time>2010-07-21T02:33:42Z</time>
        <course>265.581619478053</course>
        <speed>6.93413823312204</speed>
      </trkpt>
      <trkpt lat="47.60014" lon="9.62323">
        <ele>461</ele>
        <time>2010-07-21T02:33:58Z</time>
        <course>270.019175090248</course>
        <speed>6.93252788168702</speed>
      </trkpt>
      <trkpt lat="47.60014" lon="9.62177">
        <ele>461</ele>
        <time>2010-07-21T02:34:13Z</time>
        <course>276.7042911648</course>
        <speed>6.93183656536331</speed>
      </trkpt>
      <trkpt lat="47.60029" lon="9.62033">
        <ele>459</ele>
        <time>2010-07-21T02:34:29Z</time>
        <course>272.485104250126</course>
        <speed>6.93177930725061</speed>
      </trkpt>
      <trkpt lat="47.60031" lon="9.61981">
        <ele>459</ele>
        <time>2010-07-21T02:34:35Z</time>
        <course>266.219569950656</course>
        <speed>6.93642683535872</speed>
      </trkpt>
      <trkpt lat="47.60028" lon="9.6193">
        <ele>458</ele>
        <time>2010-07-21T02:34:40Z</time>
        <course>258.039306690491</course>
        <speed>6.9354828521621</speed>
      </trkpt>
      <trkpt lat="47.60015" lon="9.61861">
        <ele>458</ele>
        <time>2010-07-21T02:34:48Z</time>
        <course>245.962087627005</course>
        <speed>6.93487997464937</speed>
      </trkpt>
      <trkpt lat="47.59992" lon="9.61803">
        <ele>457</ele>
        <time>2010-07-21T02:34:55Z</time>
        <course>239.494785458157</course>
        <speed>6.93036862947275</speed>
      </trkpt>
      <trkpt lat="47.5997" lon="9.61761">
        <ele>457</ele>
        <time>2010-07-21T02:35:01Z</time>
        <course>246.948091682113</course>
        <speed>6.92597856325338</speed>
      </trkpt>
      <trkpt lat="47.59956" lon="9.61724">
        <ele>457</ele>
        <time>2010-07-21T02:35:06Z</time>
        <course>257.721596650605</course>
        <speed>6.92434192157157</speed>
      </trkpt>
      <trkpt lat="47.5995" lon="9.61693">
        <ele>457</ele>
        <time>2010-07-21T02:35:09Z</time>
        <course>257.721596650605</course>
        <speed>6.92434192157157</speed>
      </trkpt>
      <trkpt lat="47.5995" lon="9.61693">
        <ele>457</ele>
        <time>2010-07-21T02:35:10Z</time>
        <course>271.291753740773</course>
        <speed>6.93072528852464</speed>
      </trkpt>
      <trkpt lat="47.59953" lon="9.61541">
        <ele>451</ele>
        <time>2010-07-21T02:35:27Z</time>
        <course>286.893767546531</course>
        <speed>6.93652537773711</speed>
      </trkpt>
      <trkpt lat="47.5997" lon="9.61478">
        <ele>449</ele>
        <time>2010-07-21T02:35:34Z</time>
        <course>296.225070760347</course>
        <speed>6.93311110089819</speed>
      </trkpt>
      <trkpt lat="47.60026" lon="9.6135">
        <ele>444</ele>
        <time>2010-07-21T02:35:50Z</time>
        <course>290.03865368793</course>
        <speed>6.93531752943184</speed>
      </trkpt>
      <trkpt lat="47.60049" lon="9.61279">
        <ele>442</ele>
        <time>2010-07-21T02:35:59Z</time>
        <course>314.33106534722</course>
        <speed>6.93081916011542</speed>
      </trkpt>
      <trkpt lat="47.60108" lon="9.61211">
        <ele>440</ele>
        <time>2010-07-21T02:36:11Z</time>
        <course>297.825735377933</course>
        <speed>6.93610628684431</speed>
      </trkpt>
      <trkpt lat="47.60123" lon="9.61179">
        <ele>439</ele>
        <time>2010-07-21T02:36:15Z</time>
        <course>279.939670612925</course>
        <speed>6.93438807607373</speed>
      </trkpt>
      <trkpt lat="47.6013" lon="9.61134">
        <ele>439</ele>
        <time>2010-07-21T02:36:20Z</time>
        <course>270.364526116611</course>
        <speed>6.93110516424522</speed>
      </trkpt>
      <trkpt lat="47.60131" lon="9.60944">
        <ele>437</ele>
        <time>2010-07-21T02:36:41Z</time>
        <course>260.416814272046</course>
        <speed>6.94644363654058</speed>
      </trkpt>
      <trkpt lat="47.60128" lon="9.60924">
        <ele>437</ele>
        <time>2010-07-21T02:36:43Z</time>
        <course>249.643926790716</course>
        <speed>6.93226356360091</speed>
      </trkpt>
      <trkpt lat="47.60097" lon="9.6083">
        <ele>437</ele>
        <time>2010-07-21T02:36:54Z</time>
        <course>262.879036925033</course>
        <speed>6.93343167608491</speed>
      </trkpt>
      <trkpt lat="47.6009" lon="9.60767">
        <ele>434</ele>
        <time>2010-07-21T02:37:01Z</time>
        <course>249.436976066642</course>
        <speed>6.92248745023338</speed>
      </trkpt>
      <trkpt lat="47.60081" lon="9.6074">
        <ele>433</ele>
        <time>2010-07-21T02:37:04Z</time>
        <course>230.769192889684</course>
        <speed>6.93160707435621</speed>
      </trkpt>
      <trkpt lat="47.59967" lon="9.60583">
        <ele>424</ele>
        <time>2010-07-21T02:37:29Z</time>
        <course>239.753757203906</course>
        <speed>6.93495188862649</speed>
      </trkpt>
      <trkpt lat="47.59939" lon="9.60529">
        <ele>423</ele>
        <time>2010-07-21T02:37:37Z</time>
        <course>247.331323526422</course>
        <speed>6.93070429439878</speed>
      </trkpt>
      <trkpt lat="47.59926" lon="9.60494">
        <ele>422</ele>
        <time>2010-07-21T02:37:41Z</time>
        <course>255.587744360265</course>
        <speed>6.94011375790001</speed>
      </trkpt>
      <trkpt lat="47.59918" lon="9.60459">
        <ele>422</ele>
        <time>2010-07-21T02:37:45Z</time>
        <course>262.889112512579</course>
        <speed>6.93165538762295</speed>
      </trkpt>
      <trkpt lat="47.59908" lon="9.60369">
        <ele>421</ele>
        <time>2010-07-21T02:37:55Z</time>
        <course>262.889112512579</course>
        <speed>6.93165538762295</speed>
      </trkpt>
      <trkpt lat="47.59908" lon="9.60369">
        <ele>421</ele>
        <time>2010-07-21T02:37:56Z</time>
        <course>254.297245826352</course>
        <speed>6.94901999571733</speed>
      </trkpt>
      <trkpt lat="47.59907" lon="9.60365">
        <ele>420</ele>
        <time>2010-07-21T02:37:56Z</time>
        <course>343.49251167927</course>
        <speed>6.93057275933139</speed>
      </trkpt>
      <trkpt lat="47.59937" lon="9.60355">
        <ele>420</ele>
        <time>2010-07-21T02:38:01Z</time>
        <course>316.142545973138</course>
        <speed>6.93177184753796</speed>
      </trkpt>
      <trkpt lat="47.59974" lon="9.60315">
        <ele>420</ele>
        <time>2010-07-21T02:38:08Z</time>
        <course>328.279553029197</course>
        <speed>6.93036819577617</speed>
      </trkpt>
      <trkpt lat="47.60043" lon="9.60267">
        <ele>419</ele>
        <time>2010-07-21T02:38:21Z</time>
        <course>321.089601372379</course>
        <speed>6.93274683399842</speed>
      </trkpt>
      <trkpt lat="47.60153" lon="9.60167">
        <ele>419</ele>
        <time>2010-07-21T02:38:41Z</time>
        <course>343.068304816866</course>
        <speed>6.17922063732184</speed>
      </trkpt>
      <trkpt lat="47.60188" lon="9.60155">
        <ele>419</ele>
        <time>2010-07-21T02:38:48Z</time>
        <course>8.22304393124225</course>
        <speed>6.18643333072187</speed>
      </trkpt>
      <trkpt lat="47.60231" lon="9.60162">
        <ele>419</ele>
        <time>2010-07-21T02:38:56Z</time>
        <course>357.600023012178</course>
        <speed>6.18458095688246</speed>
      </trkpt>
      <trkpt lat="47.60358" lon="9.60156">
        <ele>420</ele>
        <time>2010-07-21T02:39:18Z</time>
        <course>12.4994796304688</course>
        <speed>5.70226362112484</speed>
      </trkpt>
      <trkpt lat="47.60442" lon="9.60177">
        <ele>420</ele>
        <time>2010-07-21T02:39:35Z</time>
        <course>24.1563804047991</course>
        <speed>5.70549512774649</speed>
      </trkpt>
      <trkpt lat="47.60525" lon="9.60219">
        <ele>421</ele>
        <time>2010-07-21T02:39:52Z</time>
        <course>34.9392764128659</course>
        <speed>5.70530048866054</speed>
      </trkpt>
      <trkpt lat="47.60577" lon="9.6026">
        <ele>422</ele>
        <time>2010-07-21T02:40:04Z</time>
        <course>44.2604388169937</course>
        <speed>6.92880769279274</speed>
      </trkpt>
      <trkpt lat="47.60607" lon="9.60293">
        <ele>422</ele>
        <time>2010-07-21T02:40:10Z</time>
        <course>314.053404769567</course>
        <speed>6.95297966253673</speed>
      </trkpt>
      <trkpt lat="47.60613" lon="9.60286">
        <ele>422</ele>
        <time>2010-07-21T02:40:11Z</time>
        <course>314.053404769567</course>
        <speed>6.95297966253673</speed>
      </trkpt>
      <trkpt lat="47.60613" lon="9.60286">
        <ele>422</ele>
        <time>2010-07-21T02:40:12Z</time>
        <course>315.806416376886</course>
        <speed>6.93115880036714</speed>
      </trkpt>
      <trkpt lat="47.60755" lon="9.6013">
        <ele>421</ele>
        <time>2010-07-21T02:40:40Z</time>
        <course>331.04608201462</course>
        <speed>6.93998866593201</speed>
      </trkpt>
      <trkpt lat="47.60771" lon="9.6012">
        <ele>421</ele>
        <time>2010-07-21T02:40:43Z</time>
        <course>346.60024253417</course>
        <speed>4.94054256917643</speed>
      </trkpt>
      <trkpt lat="47.60849" lon="9.60099">
        <ele>422</ele>
        <time>2010-07-21T02:41:01Z</time>
        <course>325.464830821944</course>
        <speed>4.93115363444629</speed>
      </trkpt>
      <trkpt lat="47.60858" lon="9.60092">
        <ele>422</ele>
        <time>2010-07-21T02:41:03Z</time>
        <course>297.736201172329</course>
        <speed>4.94143851342644</speed>
      </trkpt>
      <trkpt lat="47.60878" lon="9.60049">
        <ele>423</ele>
        <time>2010-07-21T02:41:11Z</time>
        <course>285.103678665858</course>
        <speed>4.94113957766119</speed>
      </trkpt>
      <trkpt lat="47.60919" lon="9.59877">
        <ele>425</ele>
        <time>2010-07-21T02:41:39Z</time>
        <course>297.563385429757</course>
        <speed>6.93245398070169</speed>
      </trkpt>
      <trkpt lat="47.60943" lon="9.59825">
        <ele>424</ele>
        <time>2010-07-21T02:41:45Z</time>
        <course>289.348927238148</course>
        <speed>6.93234979833593</speed>
      </trkpt>
      <trkpt lat="47.6097" lon="9.59738">
        <ele>423</ele>
        <time>2010-07-21T02:41:56Z</time>
        <course>297.93248295432</course>
        <speed>6.93533576564806</speed>
      </trkpt>
      <trkpt lat="47.60985" lon="9.59706">
        <ele>423</ele>
        <time>2010-07-21T02:42:00Z</time>
        <course>307.023923164778</course>
        <speed>6.93313153490571</speed>
      </trkpt>
      <trkpt lat="47.61019" lon="9.59655">
        <ele>423</ele>
        <time>2010-07-21T02:42:08Z</time>
        <course>315.170284780027</course>
        <speed>4.30155816067049</speed>
      </trkpt>
      <trkpt lat="47.61083" lon="9.59583">
        <ele>424</ele>
        <time>2010-07-21T02:42:28Z</time>
        <course>307.972307217627</course>
        <speed>4.29853983449667</speed>
      </trkpt>
      <trkpt lat="47.61103" lon="9.59554">
        <ele>425</ele>
        <time>2010-07-21T02:42:36Z</time>
        <course>334.619626284375</course>
        <speed>4.3002964322861</speed>
      </trkpt>
      <trkpt lat="47.61157" lon="9.59525">
        <ele>427</ele>
        <time>2010-07-21T02:42:51Z</time>
        <course>325.964572531912</course>
        <speed>4.30220723574755</speed>
      </trkpt>
      <trkpt lat="47.61191" lon="9.59499">
        <ele>428</ele>
        <time>2010-07-21T02:43:00Z</time>
        <course>308.092010455769</course>
        <speed>4.48842726192954</speed>
      </trkpt>
      <trkpt lat="47.612" lon="9.59486">
        <ele>428</ele>
        <time>2010-07-21T02:43:03Z</time>
        <course>287.928006894381</course>
        <speed>4.48448390510691</speed>
      </trkpt>
      <trkpt lat="47.61204" lon="9.59472">
        <ele>428</ele>
        <time>2010-07-21T02:43:06Z</time>
        <course>277.083152603423</course>
        <speed>4.48607242240055</speed>
      </trkpt>
      <trkpt lat="47.61212" lon="9.59399">
        <ele>429</ele>
        <time>2010-07-21T02:43:18Z</time>
        <course>333.382509800807</course>
        <speed>4.48738138881201</speed>
      </trkpt>
      <trkpt lat="47.61249" lon="9.59378">
        <ele>430</ele>
        <time>2010-07-21T02:43:28Z</time>
        <course>36.0047849960815</course>
        <speed>4.48729050608731</speed>
      </trkpt>
      <trkpt lat="47.61351" lon="9.59462">
        <ele>433</ele>
        <time>2010-07-21T02:43:57Z</time>
        <course>299.535035302058</course>
        <speed>6.90849035556851</speed>
      </trkpt>
      <trkpt lat="47.61353" lon="9.59458">
        <ele>428</ele>
        <time>2010-07-21T02:43:58Z</time>
        <course>299.535035302058</course>
        <speed>6.90849035556851</speed>
      </trkpt>
      <trkpt lat="47.61353" lon="9.59458">
        <ele>428</ele>
        <time>2010-07-21T02:43:59Z</time>
        <course>295.023983136958</course>
        <speed>6.93248590905146</speed>
      </trkpt>
      <trkpt lat="47.61381" lon="9.5939">
        <ele>427</ele>
        <time>2010-07-21T02:44:07Z</time>
        <course>284.282678657855</course>
        <speed>6.93229219147922</speed>
      </trkpt>
      <trkpt lat="47.61418" lon="9.59225">
        <ele>426</ele>
        <time>2010-07-21T02:44:26Z</time>
        <course>284.282678657855</course>
        <speed>6.93229219147922</speed>
      </trkpt>
      <trkpt lat="47.61418" lon="9.59225">
        <ele>426</ele>
        <time>2010-07-21T02:44:27Z</time>
        <course>5.21285192078118</course>
        <speed>4.97352757729816</speed>
      </trkpt>
      <trkpt lat="47.61476" lon="9.59231">
        <ele>426</ele>
        <time>2010-07-21T02:44:40Z</time>
        <course>14.5634107328279</course>
        <speed>4.97354057096885</speed>
      </trkpt>
      <trkpt lat="47.61571" lon="9.59259">
        <ele>428</ele>
        <time>2010-07-21T02:45:02Z</time>
        <course>354.079962385925</course>
        <speed>4.97367756740562</speed>
      </trkpt>
      <trkpt lat="47.61588" lon="9.59257">
        <ele>428</ele>
        <time>2010-07-21T02:45:05Z</time>
        <course>334.987492145166</course>
        <speed>4.97699641657376</speed>
      </trkpt>
      <trkpt lat="47.61605" lon="9.59248">
        <ele>429</ele>
        <time>2010-07-21T02:45:09Z</time>
        <course>326.781755913082</course>
        <speed>6.93176831361803</speed>
      </trkpt>
      <trkpt lat="47.61722" lon="9.59161">
        <ele>423</ele>
        <time>2010-07-21T02:45:30Z</time>
        <course>337.248853714929</course>
        <speed>6.92313552283382</speed>
      </trkpt>
      <trkpt lat="47.61743" lon="9.59151">
        <ele>423</ele>
        <time>2010-07-21T02:45:34Z</time>
        <course>348.928086433466</course>
        <speed>6.9262869359815</speed>
      </trkpt>
      <trkpt lat="47.61761" lon="9.59147">
        <ele>422</ele>
        <time>2010-07-21T02:45:37Z</time>
        <course>12.0936366240902</course>
        <speed>6.93241926674013</speed>
      </trkpt>
      <trkpt lat="47.61876" lon="9.59175">
        <ele>418</ele>
        <time>2010-07-21T02:45:56Z</time>
        <course>42.5049333011869</course>
        <speed>6.93127815743238</speed>
      </trkpt>
      <trkpt lat="47.61994" lon="9.59298">
        <ele>418</ele>
        <time>2010-07-21T02:46:19Z</time>
        <course>38.0427589136658</course>
        <speed>6.93178193244807</speed>
      </trkpt>
      <trkpt lat="47.62076" lon="9.59371">
        <ele>418</ele>
        <time>2010-07-21T02:46:34Z</time>
        <course>33.3902732274161</course>
        <speed>6.93658309291726</speed>
      </trkpt>
      <trkpt lat="47.62116" lon="9.59401">
        <ele>418</ele>
        <time>2010-07-21T02:46:41Z</time>
        <course>27.4603005968295</course>
        <speed>6.93194332924196</speed>
      </trkpt>
      <trkpt lat="47.62263" lon="9.59488">
        <ele>418</ele>
        <time>2010-07-21T02:47:07Z</time>
        <course>20.0532542833105</course>
        <speed>6.09375431733191</speed>
      </trkpt>
      <trkpt lat="47.62376" lon="9.59535">
        <ele>418</ele>
        <time>2010-07-21T02:47:28Z</time>
        <course>31.8059345539587</course>
        <speed>6.09656524053544</speed>
      </trkpt>
      <trkpt lat="47.62434" lon="9.59576">
        <ele>419</ele>
        <time>2010-07-21T02:47:40Z</time>
        <course>13.6913669267591</course>
        <speed>6.24685006081583</speed>
      </trkpt>
      <trkpt lat="47.62506" lon="9.59596">
        <ele>419</ele>
        <time>2010-07-21T02:47:53Z</time>
        <course>22.2545510534989</course>
        <speed>6.25151998930882</speed>
      </trkpt>
      <trkpt lat="47.62536" lon="9.5961">
        <ele>419</ele>
        <time>2010-07-21T02:47:58Z</time>
        <course>32.2732977778942</course>
        <speed>6.24712892782198</speed>
      </trkpt>
      <trkpt lat="47.62647" lon="9.5969">
        <ele>420</ele>
        <time>2010-07-21T02:48:20Z</time>
        <course>28.1960901515729</course>
        <speed>4.8358286377264</speed>
      </trkpt>
      <trkpt lat="47.62913" lon="9.59853">
        <ele>425</ele>
        <time>2010-07-21T02:49:26Z</time>
        <course>89.9998613392262</course>
        <speed>6.80788660062138</speed>
      </trkpt>
      <trkpt lat="47.62913" lon="9.59854">
        <ele>425</ele>
        <time>2010-07-21T02:49:27Z</time>
        <course>13.4218865000134</course>
        <speed>6.94298634424125</speed>
      </trkpt>
      <trkpt lat="47.62924" lon="9.59857">
        <ele>424</ele>
        <time>2010-07-21T02:49:28Z</time>
        <course>289.656190596545</course>
        <speed>6.91483814653825</speed>
      </trkpt>
      <trkpt lat="47.62929" lon="9.59841">
        <ele>424</ele>
        <time>2010-07-21T02:49:30Z</time>
        <course>336.789992113137</course>
        <speed>6.93121233942206</speed>
      </trkpt>
      <trkpt lat="47.63033" lon="9.5979">
        <ele>424</ele>
        <time>2010-07-21T02:49:48Z</time>
        <course>345.230837393164</course>
        <speed>6.9288883991312</speed>
      </trkpt>
      <trkpt lat="47.63096" lon="9.59771">
        <ele>424</ele>
        <time>2010-07-21T02:49:58Z</time>
        <course>350.808652236294</course>
        <speed>3.6887100173421</speed>
      </trkpt>
      <trkpt lat="47.63177" lon="9.59756">
        <ele>426</ele>
        <time>2010-07-21T02:50:23Z</time>
        <course>328.553258221379</course>
        <speed>3.68957675057138</speed>
      </trkpt>
      <trkpt lat="47.63207" lon="9.59735">
        <ele>428</ele>
        <time>2010-07-21T02:50:33Z</time>
        <course>303.866918148335</course>
        <speed>3.69005357653618</speed>
      </trkpt>
      <trkpt lat="47.63224" lon="9.59706">
        <ele>428</ele>
        <time>2010-07-21T02:50:40Z</time>
        <course>270.003904314437</course>
        <speed>3.68489331854483</speed>
      </trkpt>
      <trkpt lat="47.63224" lon="9.59678">
        <ele>429</ele>
        <time>2010-07-21T02:50:46Z</time>
        <course>244.184050897707</course>
        <speed>3.68798660921163</speed>
      </trkpt>
      <trkpt lat="47.63158" lon="9.59522">
        <ele>434</ele>
        <time>2010-07-21T02:51:24Z</time>
        <course>247.296047638764</course>
        <speed>6.93153100847984</speed>
      </trkpt>
      <trkpt lat="47.63128" lon="9.5944">
        <ele>431</ele>
        <time>2010-07-21T02:51:34Z</time>
        <course>256.242836979051</course>
        <speed>6.93339524122337</speed>
      </trkpt>
      <trkpt lat="47.63101" lon="9.59314">
        <ele>427</ele>
        <time>2010-07-21T02:51:48Z</time>
        <course>170.760551265639</course>
        <speed>6.92887610520099</speed>
      </trkpt>
      <trkpt lat="47.63058" lon="9.59322">
        <ele>426</ele>
        <time>2010-07-21T02:51:55Z</time>
        <course>184.686936758057</course>
        <speed>6.16423818620523</speed>
      </trkpt>
      <trkpt lat="47.63026" lon="9.59319">
        <ele>426</ele>
        <time>2010-07-21T02:52:01Z</time>
        <course>264.071357042569</course>
        <speed>6.15702145368333</speed>
      </trkpt>
      <trkpt lat="47.63022" lon="9.59275">
        <ele>426</ele>
        <time>2010-07-21T02:52:06Z</time>
        <course>278.672982508849</course>
        <speed>6.15619055263201</speed>
      </trkpt>
      <trkpt lat="47.63026" lon="9.59245">
        <ele>426</ele>
        <time>2010-07-21T02:52:10Z</time>
        <course>311.457603085593</course>
        <speed>6.16073501321792</speed>
      </trkpt>
      <trkpt lat="47.63114" lon="9.59131">
        <ele>427</ele>
        <time>2010-07-21T02:52:31Z</time>
        <course>316.887167126626</course>
        <speed>1.71220568197502</speed>
      </trkpt>
      <trkpt lat="47.63156" lon="9.59086">
        <ele>433</ele>
        <time>2010-07-21T02:53:04Z</time>
        <course>326.414421305004</course>
        <speed>1.71209597627831</speed>
      </trkpt>
      <trkpt lat="47.63181" lon="9.59067">
        <ele>436</ele>
        <time>2010-07-21T02:53:23Z</time>
        <course>336.714569023151</course>
        <speed>1.7123659123599</speed>
      </trkpt>
      <trkpt lat="47.6325" lon="9.59033">
        <ele>445</ele>
        <time>2010-07-21T02:54:10Z</time>
        <course>345.211733397003</course>
        <speed>1.71218894361271</speed>
      </trkpt>
      <trkpt lat="47.63293" lon="9.5902">
        <ele>451</ele>
        <time>2010-07-21T02:54:38Z</time>
        <course>356.432624951798</course>
        <speed>2.21390348514991</speed>
      </trkpt>
      <trkpt lat="47.63377" lon="9.59014">
        <ele>458</ele>
        <time>2010-07-21T02:55:21Z</time>
        <course>7.59224401878223</course>
        <speed>2.21385285791303</speed>
      </trkpt>
      <trkpt lat="47.63449" lon="9.59025">
        <ele>464</ele>
        <time>2010-07-21T02:55:57Z</time>
        <course>19.8830095980578</course>
        <speed>2.21357523258952</speed>
      </trkpt>
      <trkpt lat="47.6349" lon="9.59042">
        <ele>468</ele>
        <time>2010-07-21T02:56:18Z</time>
        <course>22.2341601470788</course>
        <speed>6.93124584739722</speed>
      </trkpt>
      <trkpt lat="47.63522" lon="9.59057">
        <ele>466</ele>
        <time>2010-07-21T02:56:24Z</time>
        <course>33.65217545332</course>
        <speed>6.92869680613718</speed>
      </trkpt>
      <trkpt lat="47.63577" lon="9.59099">
        <ele>464</ele>
        <time>2010-07-21T02:56:34Z</time>
        <course>42.1025574555014</course>
        <speed>6.93108000932603</speed>
      </trkpt>
      <trkpt lat="47.63684" lon="9.5921">
        <ele>460</ele>
        <time>2010-07-21T02:56:55Z</time>
        <course>46.8666217564248</course>
        <speed>4.2235671152136</speed>
      </trkpt>
      <trkpt lat="47.63834" lon="9.59394">
        <ele>465</ele>
        <time>2010-07-21T02:57:46Z</time>
        <course>43.7899318811563</course>
        <speed>2.27691448712698</speed>
      </trkpt>
      <trkpt lat="47.63893" lon="9.59459">
        <ele>471</ele>
        <time>2010-07-21T02:58:22Z</time>
        <course>35.1075505116874</course>
        <speed>2.2767044561184</speed>
      </trkpt>
      <trkpt lat="47.63966" lon="9.59518">
        <ele>477</ele>
        <time>2010-07-21T02:59:02Z</time>
        <course>31.3928463566393</course>
        <speed>2.27695386571076</speed>
      </trkpt>
      <trkpt lat="47.64023" lon="9.59558">
        <ele>483</ele>
        <time>2010-07-21T02:59:33Z</time>
        <course>20.818879049424</course>
        <speed>3.46135633412014</speed>
      </trkpt>
      <trkpt lat="47.64119" lon="9.596">
        <ele>487</ele>
        <time>2010-07-21T03:00:05Z</time>
        <course>10.5444895046018</course>
        <speed>3.46104860531599</speed>
      </trkpt>
      <trkpt lat="47.64217" lon="9.59621">
        <ele>491</ele>
        <time>2010-07-21T03:00:37Z</time>
        <course>2.88494374422626</course>
        <speed>5.30525541413768</speed>
      </trkpt>
      <trkpt lat="47.64372" lon="9.5963">
        <ele>492</ele>
        <time>2010-07-21T03:01:09Z</time>
        <course>359.408885499501</course>
        <speed>5.30563483453868</speed>
      </trkpt>
      <trkpt lat="47.64624" lon="9.59627">
        <ele>496</ele>
        <time>2010-07-21T03:02:02Z</time>
        <course>353.602854350085</course>
        <speed>6.93280887220434</speed>
      </trkpt>
      <trkpt lat="47.64871" lon="9.59595">
        <ele>485</ele>
        <time>2010-07-21T03:02:42Z</time>
        <course>343.604808796772</course>
        <speed>6.93256511977331</speed>
      </trkpt>
      <trkpt lat="47.65015" lon="9.59546">
        <ele>480</ele>
        <time>2010-07-21T03:03:06Z</time>
        <course>332.594485425812</course>
        <speed>6.93195964045246</speed>
      </trkpt>
      <trkpt lat="47.65115" lon="9.59486">
        <ele>477</ele>
        <time>2010-07-21T03:03:23Z</time>
        <course>322.429045487721</course>
        <speed>6.93430153864284</speed>
      </trkpt>
      <trkpt lat="47.65179" lon="9.59429">
        <ele>474</ele>
        <time>2010-07-21T03:03:35Z</time>
        <course>314.78673304642</course>
        <speed>6.93440749413996</speed>
      </trkpt>
      <trkpt lat="47.65221" lon="9.5938">
        <ele>472</ele>
        <time>2010-07-21T03:03:43Z</time>
        <course>325.363316578466</course>
        <speed>6.93562527167819</speed>
      </trkpt>
      <trkpt lat="47.65246" lon="9.5936">
        <ele>471</ele>
        <time>2010-07-21T03:03:48Z</time>
        <course>330.808347692861</course>
        <speed>6.93834360877022</speed>
      </trkpt>
      <trkpt lat="47.65263" lon="9.59349">
        <ele>470</ele>
        <time>2010-07-21T03:03:51Z</time>
        <course>348.517044412586</course>
        <speed>6.92978667211455</speed>
      </trkpt>
      <trkpt lat="47.6528" lon="9.59345">
        <ele>470</ele>
        <time>2010-07-21T03:03:54Z</time>
        <course>17.5628979710287</course>
        <speed>6.93692825790471</speed>
      </trkpt>
      <trkpt lat="47.6531" lon="9.59356">
        <ele>469</ele>
        <time>2010-07-21T03:03:59Z</time>
        <course>357.646468198497</course>
        <speed>6.92795313947343</speed>
      </trkpt>
      <trkpt lat="47.65331" lon="9.59355">
        <ele>469</ele>
        <time>2010-07-21T03:04:02Z</time>
        <course>339.580995966506</course>
        <speed>6.931552659991</speed>
      </trkpt>
      <trkpt lat="47.65426" lon="9.59314">
        <ele>469</ele>
        <time>2010-07-21T03:04:18Z</time>
        <course>346.404921040626</course>
        <speed>6.93052734684745</speed>
      </trkpt>
      <trkpt lat="47.65508" lon="9.59291">
        <ele>469</ele>
        <time>2010-07-21T03:04:31Z</time>
        <course>351.323883136269</course>
        <speed>6.10405698255487</speed>
      </trkpt>
      <trkpt lat="47.65604" lon="9.59274">
        <ele>469</ele>
        <time>2010-07-21T03:04:49Z</time>
        <course>360</course>
        <speed>6.10318181821695</speed>
      </trkpt>
      <trkpt lat="47.65691" lon="9.59274">
        <ele>470</ele>
        <time>2010-07-21T03:05:05Z</time>
        <course>7.09457323461898</course>
        <speed>6.93088198295041</speed>
      </trkpt>
      <trkpt lat="47.65774" lon="9.59286">
        <ele>468</ele>
        <time>2010-07-21T03:05:18Z</time>
        <course>10.4677274916181</course>
        <speed>6.93157782097632</speed>
      </trkpt>
      <trkpt lat="47.66132" lon="9.59363">
        <ele>463</ele>
        <time>2010-07-21T03:06:16Z</time>
        <course>3.87742911673267</course>
        <speed>4.8540999593133</speed>
      </trkpt>
      <trkpt lat="47.66423" lon="9.59386">
        <ele>468</ele>
        <time>2010-07-21T03:07:23Z</time>
        <course>42.8889844492684</course>
        <speed>3.38936164804757</speed>
      </trkpt>
      <trkpt lat="47.66435" lon="9.59399">
        <ele>468</ele>
        <time>2010-07-21T03:07:28Z</time>
        <course>42.8889844492684</course>
        <speed>3.38936164804757</speed>
      </trkpt>
      <trkpt lat="47.66435" lon="9.59399">
        <ele>468</ele>
        <time>2010-07-21T03:07:29Z</time>
        <course>40.6112344096457</course>
        <speed>3.39166041539781</speed>
      </trkpt>
      <trkpt lat="47.66439" lon="9.59403">
        <ele>468</ele>
        <time>2010-07-21T03:07:30Z</time>
        <course>87.3738587457762</course>
        <speed>3.39229038892628</speed>
      </trkpt>
      <trkpt lat="47.66441" lon="9.59454">
        <ele>470</ele>
        <time>2010-07-21T03:07:41Z</time>
        <course>9.73031743730966</course>
        <speed>3.38741596467015</speed>
      </trkpt>
      <trkpt lat="47.66451" lon="9.59456">
        <ele>470</ele>
        <time>2010-07-21T03:07:45Z</time>
        <course>65.287094119687</course>
        <speed>3.39244517063727</speed>
      </trkpt>
      <trkpt lat="47.66479" lon="9.59527">
        <ele>473</ele>
        <time>2010-07-21T03:08:03Z</time>
        <course>65.287094119687</course>
        <speed>3.39244517063727</speed>
      </trkpt>
      <trkpt lat="47.66479" lon="9.59527">
        <ele>473</ele>
        <time>2010-07-21T03:08:04Z</time>
        <course>63.4352151422181</course>
        <speed>4.48320730063885</speed>
      </trkpt>
      <trkpt lat="47.66485" lon="9.59541">
        <ele>473</ele>
        <time>2010-07-21T03:08:07Z</time>
        <course>356.096915429729</course>
        <speed>4.48932883628666</speed>
      </trkpt>
      <trkpt lat="47.66598" lon="9.59532">
        <ele>475</ele>
        <time>2010-07-21T03:08:35Z</time>
        <course>329.258655500721</course>
        <speed>4.48947092448982</speed>
      </trkpt>
      <trkpt lat="47.66693" lon="9.59466">
        <ele>478</ele>
        <time>2010-07-21T03:09:01Z</time>
        <course>338.303845672757</course>
        <speed>6.93179604123872</speed>
      </trkpt>
      <trkpt lat="47.66822" lon="9.59406">
        <ele>475</ele>
        <time>2010-07-21T03:09:22Z</time>
        <course>64.9385479049248</course>
        <speed>6.90761568813676</speed>
      </trkpt>
      <trkpt lat="47.66826" lon="9.59416">
        <ele>475</ele>
        <time>2010-07-21T03:09:24Z</time>
        <course>64.9385479049248</course>
        <speed>6.90761568813676</speed>
      </trkpt>
      <trkpt lat="47.66826" lon="9.59416">
        <ele>475</ele>
        <time>2010-07-21T03:09:25Z</time>
        <course>244.941515037417</course>
        <speed>6.90761568813676</speed>
      </trkpt>
      <trkpt lat="47.66822" lon="9.59406">
        <ele>474</ele>
        <time>2010-07-21T03:09:26Z</time>
        <course>334.986812053218</course>
        <speed>6.92644842324142</speed>
      </trkpt>
      <trkpt lat="47.66833" lon="9.594">
        <ele>474</ele>
        <time>2010-07-21T03:09:28Z</time>
        <course>303.468103292062</course>
        <speed>6.93512901886266</speed>
      </trkpt>
      <trkpt lat="47.66872" lon="9.59331">
        <ele>473</ele>
        <time>2010-07-21T03:09:37Z</time>
        <course>327.843263378861</course>
        <speed>6.93399909501558</speed>
      </trkpt>
      <trkpt lat="47.66906" lon="9.59306">
        <ele>472</ele>
        <time>2010-07-21T03:09:43Z</time>
        <course>355.556770894085</course>
        <speed>6.93436204797672</speed>
      </trkpt>
      <trkpt lat="47.66961" lon="9.59301">
        <ele>471</ele>
        <time>2010-07-21T03:09:52Z</time>
        <course>4.93745848814331</course>
        <speed>6.93187648896026</speed>
      </trkpt>
      <trkpt lat="47.6705" lon="9.5931">
        <ele>470</ele>
        <time>2010-07-21T03:10:07Z</time>
        <course>334.614744473781</course>
        <speed>6.93358729054657</speed>
      </trkpt>
      <trkpt lat="47.67077" lon="9.59295">
        <ele>469</ele>
        <time>2010-07-21T03:10:11Z</time>
        <course>322.926347389007</course>
        <speed>6.93173187285741</speed>
      </trkpt>
      <trkpt lat="47.67208" lon="9.59179">
        <ele>467</ele>
        <time>2010-07-21T03:10:36Z</time>
        <course>322.926347389007</course>
        <speed>6.93173187285741</speed>
      </trkpt>
      <trkpt lat="47.67208" lon="9.59179">
        <ele>467</ele>
        <time>2010-07-21T03:10:37Z</time>
        <course>335.044838173058</course>
        <speed>6.93376039432492</speed>
      </trkpt>
      <trkpt lat="47.67263" lon="9.59149">
        <ele>466</ele>
        <time>2010-07-21T03:10:46Z</time>
        <course>325.48262053225</course>
        <speed>6.93165618239297</speed>
      </trkpt>
      <trkpt lat="47.67325" lon="9.59099">
        <ele>466</ele>
        <time>2010-07-21T03:10:57Z</time>
        <course>309.532112677647</course>
        <speed>6.92447607195619</speed>
      </trkpt>
      <trkpt lat="47.67344" lon="9.59072">
        <ele>466</ele>
        <time>2010-07-21T03:11:02Z</time>
        <course>295.133181417394</course>
        <speed>6.9346213785845</speed>
      </trkpt>
      <trkpt lat="47.67352" lon="9.59052">
        <ele>466</ele>
        <time>2010-07-21T03:11:04Z</time>
        <course>270.001197188289</course>
        <speed>6.96029085504347</speed>
      </trkpt>
      <trkpt lat="47.67352" lon="9.59044">
        <ele>466</ele>
        <time>2010-07-21T03:11:05Z</time>
        <course>270.001197188289</course>
        <speed>6.96029085504347</speed>
      </trkpt>
      <trkpt lat="47.67352" lon="9.59044">
        <ele>466</ele>
        <time>2010-07-21T03:11:06Z</time>
        <course>89.9988028117113</course>
        <speed>5.20508707420642</speed>
      </trkpt>
      <trkpt lat="47.67352" lon="9.59052">
        <ele>466</ele>
        <time>2010-07-21T03:11:07Z</time>
        <course>3.90192686846923</course>
        <speed>5.20978962311837</speed>
      </trkpt>
      <trkpt lat="47.67377" lon="9.59054">
        <ele>466</ele>
        <time>2010-07-21T03:11:12Z</time>
        <course>15.5698624044494</course>
        <speed>5.20368180852206</speed>
      </trkpt>
      <trkpt lat="47.67429" lon="9.59071">
        <ele>467</ele>
        <time>2010-07-21T03:11:24Z</time>
        <course>53.2516620706933</course>
        <speed>5.19470390520278</speed>
      </trkpt>
      <trkpt lat="47.67436" lon="9.59082">
        <ele>467</ele>
        <time>2010-07-21T03:11:26Z</time>
        <course>69.7973281622415</course>
        <speed>5.20674534790249</speed>
      </trkpt>
      <trkpt lat="47.67457" lon="9.59149">
        <ele>467</ele>
        <time>2010-07-21T03:11:37Z</time>
        <course>28.0386767249131</course>
        <speed>5.21336301150842</speed>
      </trkpt>
      <trkpt lat="47.67465" lon="9.59154">
        <ele>468</ele>
        <time>2010-07-21T03:11:38Z</time>
        <course>6.65500948479492</course>
        <speed>5.20523545183014</speed>
      </trkpt>
      <trkpt lat="47.67538" lon="9.59164">
        <ele>469</ele>
        <time>2010-07-21T03:11:54Z</time>
        <course>12.7895623184976</course>
        <speed>4.40239638006347</speed>
      </trkpt>
      <trkpt lat="47.67628" lon="9.59188">
        <ele>471</ele>
        <time>2010-07-21T03:12:17Z</time>
        <course>350.341931468105</course>
        <speed>4.40191261030569</speed>
      </trkpt>
      <trkpt lat="47.67698" lon="9.59174">
        <ele>472</ele>
        <time>2010-07-21T03:12:35Z</time>
        <course>2.65646049474802</course>
        <speed>4.40296632357699</speed>
      </trkpt>
      <trkpt lat="47.67753" lon="9.59177">
        <ele>474</ele>
        <time>2010-07-21T03:12:49Z</time>
        <course>21.8112426241506</course>
        <speed>3.51970692479535</speed>
      </trkpt>
      <trkpt lat="47.67787" lon="9.59193">
        <ele>475</ele>
        <time>2010-07-21T03:13:00Z</time>
        <course>36.9014982844282</course>
        <speed>3.51962379019936</speed>
      </trkpt>
      <trkpt lat="47.67847" lon="9.59246">
        <ele>478</ele>
        <time>2010-07-21T03:13:22Z</time>
        <course>17.0138042152435</course>
        <speed>3.52024524694786</speed>
      </trkpt>
      <trkpt lat="47.67872" lon="9.59255">
        <ele>479</ele>
        <time>2010-07-21T03:13:30Z</time>
        <course>359.006506965185</course>
        <speed>3.51997024905157</speed>
      </trkpt>
      <trkpt lat="47.67921" lon="9.59254">
        <ele>481</ele>
        <time>2010-07-21T03:13:46Z</time>
        <course>12.4968354935173</course>
        <speed>1.90800115238477</speed>
      </trkpt>
      <trkpt lat="47.67944" lon="9.5926">
        <ele>483</ele>
        <time>2010-07-21T03:13:59Z</time>
        <course>32.7974030494586</course>
        <speed>1.90848277089391</speed>
      </trkpt>
      <trkpt lat="47.67973" lon="9.59282">
        <ele>486</ele>
        <time>2010-07-21T03:14:18Z</time>
        <course>46.4379212448552</course>
        <speed>1.90824408874372</speed>
      </trkpt>
      <trkpt lat="47.67994" lon="9.59308">
        <ele>489</ele>
        <time>2010-07-21T03:14:34Z</time>
        <course>55.854198520439</course>
        <speed>1.90863448186964</speed>
      </trkpt>
      <trkpt lat="47.68032" lon="9.59374">
        <ele>495</ele>
        <time>2010-07-21T03:15:08Z</time>
        <course>15.0090513297989</course>
        <speed>1.90846220377737</speed>
      </trkpt>
      <trkpt lat="47.68051" lon="9.5938">
        <ele>498</ele>
        <time>2010-07-21T03:15:20Z</time>
        <course>15.0090513297989</course>
        <speed>1.90846220377737</speed>
      </trkpt>
      <trkpt lat="47.68051" lon="9.5938">
        <ele>498</ele>
        <time>2010-07-21T03:15:21Z</time>
        <course>9.04049364400123</course>
        <speed>6.93143370476178</speed>
      </trkpt>
      <trkpt lat="47.68328" lon="9.59432">
        <ele>497</ele>
        <time>2010-07-21T03:16:05Z</time>
        <course>24.1641357301428</course>
        <speed>6.93923008124059</speed>
      </trkpt>
      <trkpt lat="47.68345" lon="9.59441">
        <ele>496</ele>
        <time>2010-07-21T03:16:08Z</time>
        <course>32.4360249288965</course>
        <speed>6.93167416666889</speed>
      </trkpt>
      <trkpt lat="47.68369" lon="9.59459">
        <ele>496</ele>
        <time>2010-07-21T03:16:13Z</time>
        <course>39.4191709846361</course>
        <speed>6.93258705056267</speed>
      </trkpt>
      <trkpt lat="47.68437" lon="9.59525">
        <ele>495</ele>
        <time>2010-07-21T03:16:26Z</time>
        <course>75.9348019277695</course>
        <speed>6.93912219264199</speed>
      </trkpt>
      <trkpt lat="47.68444" lon="9.59558">
        <ele>494</ele>
        <time>2010-07-21T03:16:29Z</time>
        <course>93.158015598662</course>
        <speed>6.93536271082218</speed>
      </trkpt>
      <trkpt lat="47.68441" lon="9.59622">
        <ele>494</ele>
        <time>2010-07-21T03:16:36Z</time>
        <course>93.158015598662</course>
        <speed>6.93536271082218</speed>
      </trkpt>
      <trkpt lat="47.68441" lon="9.59622">
        <ele>494</ele>
        <time>2010-07-21T03:16:37Z</time>
        <course>34.5995074756121</course>
        <speed>6.93410574570148</speed>
      </trkpt>
      <trkpt lat="47.68495" lon="9.59666">
        <ele>491</ele>
        <time>2010-07-21T03:16:47Z</time>
        <course>22.9389639894287</course>
        <speed>6.93391080062366</speed>
      </trkpt>
      <trkpt lat="47.68539" lon="9.59688">
        <ele>489</ele>
        <time>2010-07-21T03:16:55Z</time>
        <course>1.64234303509259</course>
        <speed>6.93212139809267</speed>
      </trkpt>
      <trkpt lat="47.68657" lon="9.59692">
        <ele>484</ele>
        <time>2010-07-21T03:17:13Z</time>
        <course>11.381867072036</course>
        <speed>5.39978094981407</speed>
      </trkpt>
      <trkpt lat="47.6872" lon="9.59707">
        <ele>484</ele>
        <time>2010-07-21T03:17:27Z</time>
        <course>18.3679022868546</course>
        <speed>5.39987451161171</speed>
      </trkpt>
      <trkpt lat="47.68776" lon="9.59729">
        <ele>485</ele>
        <time>2010-07-21T03:17:39Z</time>
        <course>35.9123640817022</course>
        <speed>5.39901671347511</speed>
      </trkpt>
      <trkpt lat="47.68818" lon="9.59765">
        <ele>485</ele>
        <time>2010-07-21T03:17:49Z</time>
        <course>48.2851565712122</course>
        <speed>5.40133353781966</speed>
      </trkpt>
      <trkpt lat="47.68888" lon="9.59858">
        <ele>487</ele>
        <time>2010-07-21T03:18:08Z</time>
        <course>44.1547023671518</course>
        <speed>3.14022188037653</speed>
      </trkpt>
      <trkpt lat="47.68928" lon="9.59904">
        <ele>489</ele>
        <time>2010-07-21T03:18:26Z</time>
        <course>38.9929639559631</course>
        <speed>3.14012622116729</speed>
      </trkpt>
      <trkpt lat="47.68977" lon="9.59951">
        <ele>492</ele>
        <time>2010-07-21T03:18:46Z</time>
        <course>29.3489317728469</course>
        <speed>3.14012232976728</speed>
      </trkpt>
      <trkpt lat="47.69085" lon="9.60023">
        <ele>498</ele>
        <time>2010-07-21T03:19:28Z</time>
        <course>19.6085870469985</course>
        <speed>5.1979873843707</speed>
      </trkpt>
      <trkpt lat="47.69156" lon="9.60053">
        <ele>498</ele>
        <time>2010-07-21T03:19:44Z</time>
        <course>32.9640703887866</course>
        <speed>5.1971857463292</speed>
      </trkpt>
      <trkpt lat="47.69169" lon="9.60063">
        <ele>499</ele>
        <time>2010-07-21T03:19:47Z</time>
        <course>51.6611257239477</course>
        <speed>5.19155239029341</speed>
      </trkpt>
      <trkpt lat="47.69181" lon="9.60081">
        <ele>499</ele>
        <time>2010-07-21T03:19:51Z</time>
        <course>76.8109044911714</course>
        <speed>5.19638934197198</speed>
      </trkpt>
      <trkpt lat="47.69196" lon="9.60157">
        <ele>500</ele>
        <time>2010-07-21T03:20:02Z</time>
        <course>66.8317835676778</course>
        <speed>5.19714149101967</speed>
      </trkpt>
      <trkpt lat="47.69227" lon="9.60243">
        <ele>501</ele>
        <time>2010-07-21T03:20:16Z</time>
        <course>54.3070051896201</course>
        <speed>6.93709989211951</speed>
      </trkpt>
      <trkpt lat="47.6925" lon="9.60281">
        <ele>499</ele>
        <time>2010-07-21T03:20:22Z</time>
        <course>356.785617316273</course>
        <speed>6.93273131167735</speed>
      </trkpt>
      <trkpt lat="47.69295" lon="9.60278">
        <ele>496</ele>
        <time>2010-07-21T03:20:29Z</time>
        <course>339.053307839892</course>
        <speed>6.92818475500449</speed>
      </trkpt>
      <trkpt lat="47.69339" lon="9.60258">
        <ele>494</ele>
        <time>2010-07-21T03:20:36Z</time>
        <course>349.237018886713</course>
        <speed>6.93389143558759</speed>
      </trkpt>
      <trkpt lat="47.69401" lon="9.60244">
        <ele>491</ele>
        <time>2010-07-21T03:20:46Z</time>
        <course>6.00648423647506</course>
        <speed>5.55826089385673</speed>
      </trkpt>
      <trkpt lat="47.69417" lon="9.60246">
        <ele>491</ele>
        <time>2010-07-21T03:20:50Z</time>
        <course>33.955272115521</course>
        <speed>5.58431893816337</speed>
      </trkpt>
      <trkpt lat="47.69422" lon="9.6025">
        <ele>491</ele>
        <time>2010-07-21T03:20:51Z</time>
        <course>66.3576501212601</course>
        <speed>5.56710321930306</speed>
      </trkpt>
      <trkpt lat="47.69429" lon="9.60269">
        <ele>491</ele>
        <time>2010-07-21T03:20:54Z</time>
        <course>80.9217513582023</course>
        <speed>5.5603575981483</speed>
      </trkpt>
      <trkpt lat="47.69438" lon="9.60336">
        <ele>491</ele>
        <time>2010-07-21T03:21:03Z</time>
        <course>59.2847054193127</course>
        <speed>5.5624793479875</speed>
      </trkpt>
      <trkpt lat="47.69442" lon="9.60344">
        <ele>491</ele>
        <time>2010-07-21T03:21:04Z</time>
        <course>11.8782944144225</course>
        <speed>5.55883389833185</speed>
      </trkpt>
      <trkpt lat="47.6949" lon="9.60356">
        <ele>492</ele>
        <time>2010-07-21T03:21:14Z</time>
        <course>20.114799026762</course>
        <speed>5.56103520801731</speed>
      </trkpt>
      <trkpt lat="47.69552" lon="9.60383">
        <ele>493</ele>
        <time>2010-07-21T03:21:27Z</time>
        <course>35.2928292635508</course>
        <speed>6.93305370073992</speed>
      </trkpt>
      <trkpt lat="47.69679" lon="9.6049">
        <ele>490</ele>
        <time>2010-07-21T03:21:50Z</time>
        <course>44.1090939127482</course>
        <speed>6.92807741172945</speed>
      </trkpt>
      <trkpt lat="47.69705" lon="9.6052">
        <ele>489</ele>
        <time>2010-07-21T03:21:56Z</time>
        <course>70.3451230602605</course>
        <speed>6.93918823883694</speed>
      </trkpt>
      <trkpt lat="47.69714" lon="9.6055">
        <ele>489</ele>
        <time>2010-07-21T03:21:59Z</time>
        <course>89.9973586032173</course>
        <speed>2.20732170101883</speed>
      </trkpt>
      <trkpt lat="47.69714" lon="9.60567">
        <ele>489</ele>
        <time>2010-07-21T03:22:05Z</time>
        <course>121.526237852391</course>
        <speed>2.20787735563648</speed>
      </trkpt>
      <trkpt lat="47.69681" lon="9.60631">
        <ele>494</ele>
        <time>2010-07-21T03:22:32Z</time>
        <course>101.854476066896</course>
        <speed>2.20722452906113</speed>
      </trkpt>
      <trkpt lat="47.69675" lon="9.60665">
        <ele>496</ele>
        <time>2010-07-21T03:22:44Z</time>
        <course>84.0886749755817</course>
        <speed>2.20669503522388</speed>
      </trkpt>
      <trkpt lat="47.69677" lon="9.60688">
        <ele>498</ele>
        <time>2010-07-21T03:22:52Z</time>
        <course>84.0886749755817</course>
        <speed>2.20669503522388</speed>
      </trkpt>
      <trkpt lat="47.69677" lon="9.60688">
        <ele>498</ele>
        <time>2010-07-21T03:22:53Z</time>
        <course>83.2392593871978</course>
        <speed>3.17435286944266</speed>
      </trkpt>
      <trkpt lat="47.69691" lon="9.60829">
        <ele>502</ele>
        <time>2010-07-21T03:23:26Z</time>
        <course>346.155389309914</course>
        <speed>3.17409762759921</speed>
      </trkpt>
      <trkpt lat="47.69783" lon="9.60802">
        <ele>507</ele>
        <time>2010-07-21T03:23:59Z</time>
        <course>6.67955881729849</course>
        <speed>3.25478744447504</speed>
      </trkpt>
      <trkpt lat="47.69869" lon="9.60814">
        <ele>510</ele>
        <time>2010-07-21T03:24:29Z</time>
        <course>13.9046809180047</course>
        <speed>3.25515747736945</speed>
      </trkpt>
      <trkpt lat="47.6993" lon="9.60832">
        <ele>513</ele>
        <time>2010-07-21T03:24:50Z</time>
        <course>43.3343939278008</course>
        <speed>3.25459214291611</speed>
      </trkpt>
      <trkpt lat="47.6997" lon="9.60877">
        <ele>516</ele>
        <time>2010-07-21T03:25:07Z</time>
        <course>57.2406140721861</course>
        <speed>2.76747248677616</speed>
      </trkpt>
      <trkpt lat="47.70018" lon="9.60966">
        <ele>520</ele>
        <time>2010-07-21T03:25:38Z</time>
        <course>45.951060050583</course>
        <speed>2.76704406043184</speed>
      </trkpt>
      <trkpt lat="47.70112" lon="9.61082">
        <ele>528</ele>
        <time>2010-07-21T03:26:27Z</time>
        <course>52.5002625044025</course>
        <speed>6.92756479222147</speed>
      </trkpt>
      <trkpt lat="47.7013" lon="9.6111">
        <ele>527</ele>
        <time>2010-07-21T03:26:31Z</time>
        <course>54.389597664581</course>
        <speed>6.93344190281394</speed>
      </trkpt>
      <trkpt lat="47.70142" lon="9.6113">
        <ele>527</ele>
        <time>2010-07-21T03:26:34Z</time>
        <course>63.1082535738164</course>
        <speed>6.93221159247961</speed>
      </trkpt>
      <trkpt lat="47.70187" lon="9.61236">
        <ele>527</ele>
        <time>2010-07-21T03:26:48Z</time>
        <course>346.610871066372</course>
        <speed>6.93194913537088</speed>
      </trkpt>
      <trkpt lat="47.70296" lon="9.61205">
        <ele>527</ele>
        <time>2010-07-21T03:27:05Z</time>
        <course>356.076979976905</course>
        <speed>6.93424379478436</speed>
      </trkpt>
      <trkpt lat="47.70357" lon="9.612">
        <ele>527</ele>
        <time>2010-07-21T03:27:15Z</time>
        <course>356.076979976905</course>
        <speed>6.93424379478436</speed>
      </trkpt>
      <trkpt lat="47.70357" lon="9.612">
        <ele>527</ele>
        <time>2010-07-21T03:27:16Z</time>
        <course>355.708315875644</course>
        <speed>6.92989019526089</speed>
      </trkpt>
      <trkpt lat="47.70435" lon="9.61193">
        <ele>524</ele>
        <time>2010-07-21T03:27:29Z</time>
        <course>1.3277990209302</course>
        <speed>6.93150518335857</speed>
      </trkpt>
      <trkpt lat="47.70759" lon="9.61202">
        <ele>512</ele>
        <time>2010-07-21T03:28:21Z</time>
        <course>349.333806326047</course>
        <speed>6.93384880359955</speed>
      </trkpt>
      <trkpt lat="47.70821" lon="9.61188">
        <ele>507</ele>
        <time>2010-07-21T03:28:31Z</time>
        <course>339.015988135517</course>
        <speed>6.93215634350015</speed>
      </trkpt>
      <trkpt lat="47.70871" lon="9.61165">
        <ele>503</ele>
        <time>2010-07-21T03:28:39Z</time>
        <course>329.735059560184</course>
        <speed>6.92650266741029</speed>
      </trkpt>
      <trkpt lat="47.70901" lon="9.61144">
        <ele>500</ele>
        <time>2010-07-21T03:28:44Z</time>
        <course>319.317025854667</course>
        <speed>6.93431057531706</speed>
      </trkpt>
      <trkpt lat="47.70964" lon="9.61079">
        <ele>495</ele>
        <time>2010-07-21T03:28:57Z</time>
        <course>326.020137698447</course>
        <speed>6.93076706026114</speed>
      </trkpt>
      <trkpt lat="47.71069" lon="9.60994">
        <ele>489</ele>
        <time>2010-07-21T03:29:16Z</time>
        <course>309.478108300976</course>
        <speed>6.93207806336452</speed>
      </trkpt>
      <trkpt lat="47.71093" lon="9.60959">
        <ele>488</ele>
        <time>2010-07-21T03:29:21Z</time>
        <course>309.478108300976</course>
        <speed>6.93207806336452</speed>
      </trkpt>
      <trkpt lat="47.71093" lon="9.60959">
        <ele>488</ele>
        <time>2010-07-21T03:29:22Z</time>
        <course>291.822987442023</course>
        <speed>6.92594640844791</speed>
      </trkpt>
      <trkpt lat="47.711" lon="9.60938">
        <ele>487</ele>
        <time>2010-07-21T03:29:25Z</time>
        <course>270.003967427987</course>
        <speed>6.92308983306079</speed>
      </trkpt>
      <trkpt lat="47.711" lon="9.60913">
        <ele>486</ele>
        <time>2010-07-21T03:29:28Z</time>
        <course>6.54827405751003</course>
        <speed>6.93004012218593</speed>
      </trkpt>
      <trkpt lat="47.71158" lon="9.60921">
        <ele>485</ele>
        <time>2010-07-21T03:29:37Z</time>
        <course>16.762331163872</course>
        <speed>6.93151734198611</speed>
      </trkpt>
      <trkpt lat="47.71216" lon="9.60942">
        <ele>483</ele>
        <time>2010-07-21T03:29:46Z</time>
        <course>10.194291646185</course>
        <speed>6.93609579668407</speed>
      </trkpt>
      <trkpt lat="47.71253" lon="9.6095">
        <ele>482</ele>
        <time>2010-07-21T03:29:52Z</time>
        <course>357.929363923704</course>
        <speed>6.92914199198763</speed>
      </trkpt>
      <trkpt lat="47.71276" lon="9.60949">
        <ele>480</ele>
        <time>2010-07-21T03:29:56Z</time>
        <course>340.387316992401</course>
        <speed>6.93886442318451</speed>
      </trkpt>
      <trkpt lat="47.71297" lon="9.6094">
        <ele>479</ele>
        <time>2010-07-21T03:30:00Z</time>
        <course>318.649527272458</course>
        <speed>6.93394131475705</speed>
      </trkpt>
      <trkpt lat="47.71331" lon="9.60904">
        <ele>477</ele>
        <time>2010-07-21T03:30:06Z</time>
        <course>259.716897364418</course>
        <speed>6.93019368517814</speed>
      </trkpt>
      <trkpt lat="47.71323" lon="9.60851">
        <ele>475</ele>
        <time>2010-07-21T03:30:12Z</time>
        <course>281.340749067374</course>
        <speed>6.92366305946066</speed>
      </trkpt>
      <trkpt lat="47.71327" lon="9.60827">
        <ele>474</ele>
        <time>2010-07-21T03:30:15Z</time>
        <course>298.937124642253</course>
        <speed>6.93539086656137</speed>
      </trkpt>
      <trkpt lat="47.71344" lon="9.6079">
        <ele>473</ele>
        <time>2010-07-21T03:30:20Z</time>
        <course>308.432011664093</course>
        <speed>6.93007919303034</speed>
      </trkpt>
      <trkpt lat="47.71402" lon="9.60702">
        <ele>469</ele>
        <time>2010-07-21T03:30:33Z</time>
        <course>297.626936066678</course>
        <speed>6.94027517319181</speed>
      </trkpt>
      <trkpt lat="47.71412" lon="9.60679">
        <ele>468</ele>
        <time>2010-07-21T03:30:36Z</time>
        <course>280.114990852347</course>
        <speed>6.93626334703843</speed>
      </trkpt>
      <trkpt lat="47.71416" lon="9.60652">
        <ele>467</ele>
        <time>2010-07-21T03:30:39Z</time>
        <course>270.020728502802</course>
        <speed>6.93254546119628</speed>
      </trkpt>
      <trkpt lat="47.71416" lon="9.60522">
        <ele>463</ele>
        <time>2010-07-21T03:30:53Z</time>
        <course>265.637487610929</course>
        <speed>6.9302346810554</speed>
      </trkpt>
      <trkpt lat="47.71409" lon="9.60412">
        <ele>460</ele>
        <time>2010-07-21T03:31:05Z</time>
        <course>254.853789715928</course>
        <speed>6.93052057865246</speed>
      </trkpt>
      <trkpt lat="47.714" lon="9.60372">
        <ele>459</ele>
        <time>2010-07-21T03:31:09Z</time>
        <course>247.886674167305</course>
        <speed>6.93270016975751</speed>
      </trkpt>
      <trkpt lat="47.71375" lon="9.60298">
        <ele>459</ele>
        <time>2010-07-21T03:31:18Z</time>
        <course>247.886674167305</course>
        <speed>6.93270016975751</speed>
      </trkpt>
      <trkpt lat="47.71375" lon="9.60298">
        <ele>459</ele>
        <time>2010-07-21T03:31:19Z</time>
        <course>68.1386771895843</course>
        <speed>3.79261479904402</speed>
      </trkpt>
      <trkpt lat="47.71384" lon="9.60325">
        <ele>459</ele>
        <time>2010-07-21T03:31:25Z</time>
        <course>22.5541373815793</course>
        <speed>3.79097810814653</speed>
      </trkpt>
      <trkpt lat="47.71438" lon="9.60352">
        <ele>461</ele>
        <time>2010-07-21T03:31:42Z</time>
        <course>7.69889470494021</course>
        <speed>3.79080099090187</speed>
      </trkpt>
      <trkpt lat="47.71481" lon="9.60359">
        <ele>463</ele>
        <time>2010-07-21T03:31:55Z</time>
        <course>326.292642679643</course>
        <speed>6.93186167993734</speed>
      </trkpt>
      <trkpt lat="47.7186603010313" lon="9.60048714277946">
        <ele>459</ele>
        <time>2010-07-21T03:33:05Z</time>
        <course>97.2491314095528</course>
        <speed>7.20681818590189</speed>
      </trkpt>
      <trkpt lat="47.71866" lon="9.60049">
        <ele>459</ele>
        <time>2010-07-21T03:33:05Z</time>
        <course>291.926849742239</course>
        <speed>5.27550994956812</speed>
      </trkpt>
      <trkpt lat="47.71875" lon="9.60022">
        <ele>459</ele>
        <time>2010-07-21T03:33:09Z</time>
        <course>305.405556318103</course>
        <speed>5.27827196822937</speed>
      </trkpt>
      <trkpt lat="47.71935" lon="9.5992">
        <ele>460</ele>
        <time>2010-07-21T03:33:28Z</time>
        <course>297.029970516594</course>
        <speed>5.27831075920322</speed>
      </trkpt>
      <trkpt lat="47.72045" lon="9.59659">
        <ele>463</ele>
        <time>2010-07-21T03:34:12Z</time>
        <course>297.029970516594</course>
        <speed>5.27831075920322</speed>
      </trkpt>
      <trkpt lat="47.72045" lon="9.59659">
        <ele>463</ele>
        <time>2010-07-21T03:34:13Z</time>
        <course>286.816091880485</course>
        <speed>6.9348344413811</speed>
      </trkpt>
      <trkpt lat="47.72047" lon="9.59651">
        <ele>463</ele>
        <time>2010-07-21T03:34:14Z</time>
        <course>35.3381398937014</course>
        <speed>6.90689634103015</speed>
      </trkpt>
      <trkpt lat="47.72054" lon="9.59657">
        <ele>463</ele>
        <time>2010-07-21T03:34:15Z</time>
        <course>67.8063870151146</course>
        <speed>6.93479912185845</speed>
      </trkpt>
      <trkpt lat="47.72083" lon="9.59743">
        <ele>463</ele>
        <time>2010-07-21T03:34:26Z</time>
        <course>325.426110257904</course>
        <speed>6.94859604369082</speed>
      </trkpt>
      <trkpt lat="47.72089" lon="9.59738">
        <ele>463</ele>
        <time>2010-07-21T03:34:27Z</time>
        <course>325.426110257904</course>
        <speed>6.94859604369082</speed>
      </trkpt>
      <trkpt lat="47.72089" lon="9.59738">
        <ele>463</ele>
        <time>2010-07-21T03:34:28Z</time>
        <course>326.862986028364</course>
        <speed>6.92921843661706</speed>
      </trkpt>
      <trkpt lat="47.72108" lon="9.59723">
        <ele>462</ele>
        <time>2010-07-21T03:34:31Z</time>
        <course>26.9886509664326</course>
        <speed>6.9336944362381</speed>
      </trkpt>
      <trkpt lat="47.72194" lon="9.59776">
        <ele>461</ele>
        <time>2010-07-21T03:34:46Z</time>
        <course>16.5658295337384</course>
        <speed>6.93763833489215</speed>
      </trkpt>
      <trkpt lat="47.72219" lon="9.59785">
        <ele>461</ele>
        <time>2010-07-21T03:34:50Z</time>
        <course>106.8320893284</course>
        <speed>6.93463326711619</speed>
      </trkpt>
      <trkpt lat="47.72217" lon="9.59793">
        <ele>461</ele>
        <time>2010-07-21T03:34:51Z</time>
        <course>106.8320893284</course>
        <speed>6.93463326711619</speed>
      </trkpt>
      <trkpt lat="47.72217" lon="9.59793">
        <ele>461</ele>
        <time>2010-07-21T03:34:52Z</time>
        <course>49.9473879679482</course>
        <speed>6.93142565332142</speed>
      </trkpt>
      <trkpt lat="47.72242" lon="9.59829">
        <ele>461</ele>
        <time>2010-07-21T03:34:58Z</time>
        <course>42.9990330078648</course>
        <speed>6.93215324269006</speed>
      </trkpt>
      <trkpt lat="47.72273" lon="9.59864">
        <ele>461</ele>
        <time>2010-07-21T03:35:04Z</time>
        <course>342.307835749388</course>
        <speed>6.93284380579544</speed>
      </trkpt>
      <trkpt lat="47.7239328242144" lon="9.59817507860862">
        <ele>452</ele>
        <time>2010-07-21T03:35:24Z</time>
        <course>44.3849590047462</course>
        <speed>6.9293773681817</speed>
      </trkpt>
      <trkpt lat="47.7243081237954" lon="9.59862032530509">
        <ele>452</ele>
        <time>2010-07-21T03:35:32Z</time>
        <course>354.583994911392</course>
        <speed>6.93148595516147</speed>
      </trkpt>
      <trkpt lat="47.72556752282" lon="9.59847548601829">
        <ele>451</ele>
        <time>2010-07-21T03:35:52Z</time>
        <course>64.2942659213453</course>
        <speed>2.74247803145567</speed>
      </trkpt>
      <trkpt lat="47.7257335158358" lon="9.59889391062461">
        <ele>453</ele>
        <time>2010-07-21T03:36:05Z</time>
        <course>104.847235906529</course>
        <speed>7.02509460748438</speed>
      </trkpt>
      <trkpt lat="47.72573" lon="9.59891">
        <ele>453</ele>
        <time>2010-07-21T03:36:05Z</time>
        <course>17.3591583754326</course>
        <speed>6.92859059872414</speed>
      </trkpt>
      <trkpt lat="47.72602" lon="9.59902">
        <ele>453</ele>
        <time>2010-07-21T03:36:10Z</time>
        <course>334.326461278353</course>
        <speed>6.91991877440669</speed>
      </trkpt>
      <trkpt lat="47.72614" lon="9.59895">
        <ele>453</ele>
        <time>2010-07-21T03:36:12Z</time>
        <course>337.607097809359</course>
        <speed>6.89627965550565</speed>
      </trkpt>
      <trkpt lat="47.72616" lon="9.59894">
        <ele>453</ele>
        <time>2010-07-21T03:36:12Z</time>
        <course>157.606773225127</course>
        <speed>6.89627965550565</speed>
      </trkpt>
      <trkpt lat="47.72614" lon="9.59895">
        <ele>453</ele>
        <time>2010-07-21T03:36:13Z</time>
        <course>64.8148297190819</course>
        <speed>3.01828689449862</speed>
      </trkpt>
      <trkpt lat="47.72662" lon="9.60019">
        <ele>458</ele>
        <time>2010-07-21T03:36:48Z</time>
        <course>64.8148297190819</course>
        <speed>3.01828689449862</speed>
      </trkpt>
      <trkpt lat="47.72662" lon="9.60019">
        <ele>458</ele>
        <time>2010-07-21T03:36:49Z</time>
        <course>64.0996744346145</course>
        <speed>6.90190152531686</speed>
      </trkpt>
      <trkpt lat="47.72664" lon="9.60024">
        <ele>457</ele>
        <time>2010-07-21T03:36:50Z</time>
        <course>325.927325354554</course>
        <speed>6.92929867735245</speed>
      </trkpt>
      <trkpt lat="47.7272" lon="9.59978">
        <ele>456</ele>
        <time>2010-07-21T03:37:00Z</time>
        <course>341.068595821517</course>
        <speed>6.93278239614916</speed>
      </trkpt>
      <trkpt lat="47.72768" lon="9.59958">
        <ele>454</ele>
        <time>2010-07-21T03:37:08Z</time>
        <course>312.13473482345</course>
        <speed>6.93148430689009</speed>
      </trkpt>
      <trkpt lat="47.72832" lon="9.59872">
        <ele>452</ele>
        <time>2010-07-21T03:37:22Z</time>
        <course>304.786398671793</course>
        <speed>5.34674095696321</speed>
      </trkpt>
      <trkpt lat="47.72852" lon="9.59837">
        <ele>452</ele>
        <time>2010-07-21T03:37:28Z</time>
        <course>295.77613148214</course>
        <speed>5.34606077261136</speed>
      </trkpt>
      <trkpt lat="47.72879" lon="9.59769">
        <ele>453</ele>
        <time>2010-07-21T03:37:39Z</time>
        <course>295.77613148214</course>
        <speed>5.34606077261136</speed>
      </trkpt>
      <trkpt lat="47.72879" lon="9.59769">
        <ele>453</ele>
        <time>2010-07-21T03:37:40Z</time>
        <course>38.7299931477478</course>
        <speed>6.9319219446028</speed>
      </trkpt>
      <trkpt lat="47.73195" lon="9.60078">
        <ele>453</ele>
        <time>2010-07-21T03:38:41Z</time>
        <course>41.569287872671</course>
        <speed>5.60195996732561</speed>
      </trkpt>
      <trkpt lat="47.73365" lon="9.60262">
        <ele>455</ele>
        <time>2010-07-21T03:39:23Z</time>
        <course>36.7455793019694</course>
        <speed>3.74255336711647</speed>
      </trkpt>
      <trkpt lat="47.7341" lon="9.60303">
        <ele>456</ele>
        <time>2010-07-21T03:39:38Z</time>
        <course>22.2774705636864</course>
        <speed>3.74153940500153</speed>
      </trkpt>
      <trkpt lat="47.7344" lon="9.60318">
        <ele>457</ele>
        <time>2010-07-21T03:39:48Z</time>
        <course>89.9991788289356</course>
        <speed>3.73678960089455</speed>
      </trkpt>
      <trkpt lat="47.7344" lon="9.60323">
        <ele>458</ele>
        <time>2010-07-21T03:39:49Z</time>
        <course>89.9991788289356</course>
        <speed>3.73678960089455</speed>
      </trkpt>
      <trkpt lat="47.7344" lon="9.60323">
        <ele>458</ele>
        <time>2010-07-21T03:39:50Z</time>
        <course>270.000821171064</course>
        <speed>4.5570604888958</speed>
      </trkpt>
      <trkpt lat="47.7344" lon="9.60318">
        <ele>458</ele>
        <time>2010-07-21T03:39:51Z</time>
        <course>16.0629042622508</course>
        <speed>4.56340647344223</speed>
      </trkpt>
      <trkpt lat="47.73531" lon="9.6035">
        <ele>460</ele>
        <time>2010-07-21T03:40:13Z</time>
        <course>30.4057952022395</course>
        <speed>4.56267660590039</speed>
      </trkpt>
      <trkpt lat="47.73584" lon="9.60388">
        <ele>461</ele>
        <time>2010-07-21T03:40:28Z</time>
        <course>37.4342537367954</course>
        <speed>4.56254089571988</speed>
      </trkpt>
      <trkpt lat="47.73615" lon="9.60417">
        <ele>462</ele>
        <time>2010-07-21T03:40:37Z</time>
        <course>302.698563461579</course>
        <speed>6.93285983980741</speed>
      </trkpt>
      <trkpt lat="47.73657" lon="9.60337">
        <ele>461</ele>
        <time>2010-07-21T03:40:48Z</time>
        <course>10.6903196385855</course>
        <speed>6.92821980676238</speed>
      </trkpt>
      <trkpt lat="47.7367" lon="9.6034">
        <ele>461</ele>
        <time>2010-07-21T03:40:50Z</time>
        <course>352.545811242254</course>
        <speed>6.93309407419401</speed>
      </trkpt>
      <trkpt lat="47.7372" lon="9.60332">
        <ele>460</ele>
        <time>2010-07-21T03:40:58Z</time>
        <course>335.451249565104</course>
        <speed>6.93292024771154</speed>
      </trkpt>
      <trkpt lat="47.73897" lon="9.60233">
        <ele>459</ele>
        <time>2010-07-21T03:41:28Z</time>
        <course>347.998127380464</course>
        <speed>6.93182928834814</speed>
      </trkpt>
      <trkpt lat="47.74039" lon="9.60196">
        <ele>458</ele>
        <time>2010-07-21T03:41:51Z</time>
        <course>78.4538940780411</course>
        <speed>6.89444240591395</speed>
      </trkpt>
      <trkpt lat="47.7404" lon="9.60202">
        <ele>458</ele>
        <time>2010-07-21T03:41:52Z</time>
        <course>78.4538940780411</course>
        <speed>6.89444240591395</speed>
      </trkpt>
      <trkpt lat="47.7404" lon="9.60202">
        <ele>458</ele>
        <time>2010-07-21T03:41:53Z</time>
        <course>258.455881739473</course>
        <speed>6.89444240591395</speed>
      </trkpt>
      <trkpt lat="47.74039" lon="9.60196">
        <ele>457</ele>
        <time>2010-07-21T03:41:53Z</time>
        <course>356.990089926441</course>
        <speed>6.93196729320873</speed>
      </trkpt>
      <trkpt lat="47.74194" lon="9.60186">
        <ele>457</ele>
        <time>2010-07-21T03:42:18Z</time>
        <course>350.876608883704</course>
        <speed>6.93179480328873</speed>
      </trkpt>
      <trkpt lat="47.74422" lon="9.60141">
        <ele>457</ele>
        <time>2010-07-21T03:42:55Z</time>
        <course>348.019837497963</course>
        <speed>6.92866393811432</speed>
      </trkpt>
      <trkpt lat="47.74468" lon="9.60129">
        <ele>454</ele>
        <time>2010-07-21T03:43:03Z</time>
        <course>341.848875725772</course>
        <speed>6.93028878228732</speed>
      </trkpt>
      <trkpt lat="47.7453" lon="9.60104">
        <ele>450</ele>
        <time>2010-07-21T03:43:13Z</time>
        <course>329.005818905343</course>
        <speed>6.93564186474059</speed>
      </trkpt>
      <trkpt lat="47.74576" lon="9.6007">
        <ele>448</ele>
        <time>2010-07-21T03:43:21Z</time>
        <course>329.005818905343</course>
        <speed>6.93564186474059</speed>
      </trkpt>
      <trkpt lat="47.74576" lon="9.6007">
        <ele>448</ele>
        <time>2010-07-21T03:43:22Z</time>
        <course>320.897190287602</course>
        <speed>5.20020907071421</speed>
      </trkpt>
      <trkpt lat="47.7458" lon="9.60066">
        <ele>448</ele>
        <time>2010-07-21T03:43:23Z</time>
        <course>15.1465629608305</course>
        <speed>5.22413646858874</speed>
      </trkpt>
      <trkpt lat="47.74694" lon="9.60104">
        <ele>449</ele>
        <time>2010-07-21T03:43:48Z</time>
        <course>19.1186295648059</course>
        <speed>5.22287679092283</speed>
      </trkpt>
      <trkpt lat="47.74797" lon="9.60148">
        <ele>451</ele>
        <time>2010-07-21T03:44:11Z</time>
        <course>15.5688647787764</course>
        <speed>4.62323786769368</speed>
      </trkpt>
      <trkpt lat="47.74957" lon="9.60203">
        <ele>454</ele>
        <time>2010-07-21T03:44:50Z</time>
        <course>20.8739397329674</course>
        <speed>4.62390991277639</speed>
      </trkpt>
      <trkpt lat="47.74991" lon="9.60219">
        <ele>455</ele>
        <time>2010-07-21T03:44:59Z</time>
        <course>35.1542409424657</course>
        <speed>4.72927744066587</speed>
      </trkpt>
      <trkpt lat="47.7506" lon="9.60279">
        <ele>456</ele>
        <time>2010-07-21T03:45:18Z</time>
        <course>26.2357247845708</course>
        <speed>4.72862133783939</speed>
      </trkpt>
      <trkpt lat="47.75106" lon="9.60307">
        <ele>457</ele>
        <time>2010-07-21T03:45:29Z</time>
        <course>16.0266325947342</course>
        <speed>4.72952297529953</speed>
      </trkpt>
      <trkpt lat="47.75449" lon="9.60429">
        <ele>464</ele>
        <time>2010-07-21T03:46:52Z</time>
        <course>10.7982081431625</course>
        <speed>6.93179407438127</speed>
      </trkpt>
      <trkpt lat="47.75909" lon="9.60538">
        <ele>451</ele>
        <time>2010-07-21T03:48:07Z</time>
        <course>2.35006118527008</course>
        <speed>6.9314015647649</speed>
      </trkpt>
      <trkpt lat="47.76007" lon="9.60543">
        <ele>450</ele>
        <time>2010-07-21T03:48:23Z</time>
        <course>19.1743682636789</course>
        <speed>6.92821065554066</speed>
      </trkpt>
      <trkpt lat="47.76044" lon="9.60559">
        <ele>450</ele>
        <time>2010-07-21T03:48:29Z</time>
        <course>30.2152603494607</course>
        <speed>6.93380260150676</speed>
      </trkpt>
      <trkpt lat="47.76113" lon="9.60609">
        <ele>450</ele>
        <time>2010-07-21T03:48:41Z</time>
        <course>17.819158282671</course>
        <speed>6.93174393933844</speed>
      </trkpt>
      <trkpt lat="47.76138" lon="9.60619">
        <ele>448</ele>
        <time>2010-07-21T03:48:45Z</time>
        <course>10.348440582363</course>
        <speed>6.92718582750309</speed>
      </trkpt>
      <trkpt lat="47.7616" lon="9.60624">
        <ele>447</ele>
        <time>2010-07-21T03:48:49Z</time>
        <course>356.86541088614</course>
        <speed>6.93259578371828</speed>
      </trkpt>
      <trkpt lat="47.76204" lon="9.60621">
        <ele>445</ele>
        <time>2010-07-21T03:48:56Z</time>
        <course>356.86541088614</course>
        <speed>6.93259578371828</speed>
      </trkpt>
      <trkpt lat="47.76204" lon="9.60621">
        <ele>445</ele>
        <time>2010-07-21T03:48:57Z</time>
        <course>59.8365732435933</course>
        <speed>4.47204136366948</speed>
      </trkpt>
      <trkpt lat="47.76218" lon="9.60651">
        <ele>445</ele>
        <time>2010-07-21T03:49:03Z</time>
        <course>13.5009881581353</course>
        <speed>4.47376116604595</speed>
      </trkpt>
      <trkpt lat="47.76355" lon="9.60692">
        <ele>448</ele>
        <time>2010-07-21T03:49:38Z</time>
        <course>26.6277877764337</course>
        <speed>4.47436011750321</speed>
      </trkpt>
      <trkpt lat="47.76371" lon="9.60702">
        <ele>449</ele>
        <time>2010-07-21T03:49:42Z</time>
        <course>38.3102907648589</course>
        <speed>5.8505098164247</speed>
      </trkpt>
      <trkpt lat="47.7644" lon="9.6077">
        <ele>449</ele>
        <time>2010-07-21T03:49:58Z</time>
        <course>30.235385050997</course>
        <speed>5.85438122773928</speed>
      </trkpt>
      <trkpt lat="47.76495" lon="9.6081">
        <ele>450</ele>
        <time>2010-07-21T03:50:09Z</time>
        <course>21.7979156952944</course>
        <speed>5.85194117038686</speed>
      </trkpt>
      <trkpt lat="47.76743" lon="9.60934">
        <ele>452</ele>
        <time>2010-07-21T03:50:59Z</time>
        <course>15.9957613433645</course>
        <speed>6.07614277181794</speed>
      </trkpt>
      <trkpt lat="47.76796" lon="9.60953">
        <ele>452</ele>
        <time>2010-07-21T03:51:09Z</time>
        <course>9.5740287032804</course>
        <speed>6.07894819673497</speed>
      </trkpt>
      <trkpt lat="47.77094" lon="9.61016">
        <ele>454</ele>
        <time>2010-07-21T03:52:04Z</time>
        <course>3.31957471040183</course>
        <speed>6.9296676884466</speed>
      </trkpt>
      <trkpt lat="47.77149" lon="9.6102">
        <ele>452</ele>
        <time>2010-07-21T03:52:13Z</time>
        <course>354.93838034143</course>
        <speed>6.92996273758402</speed>
      </trkpt>
      <trkpt lat="47.77212" lon="9.61013">
        <ele>450</ele>
        <time>2010-07-21T03:52:23Z</time>
        <course>343.091054020563</course>
        <speed>6.93036719571192</speed>
      </trkpt>
      <trkpt lat="47.77288" lon="9.60984">
        <ele>449</ele>
        <time>2010-07-21T03:52:36Z</time>
        <course>338.635731195656</course>
        <speed>6.93355715075332</speed>
      </trkpt>
      <trkpt lat="47.77345" lon="9.60956">
        <ele>448</ele>
        <time>2010-07-21T03:52:45Z</time>
        <course>53.0030732486928</course>
        <speed>6.9521534552526</speed>
      </trkpt>
      <trkpt lat="47.77348" lon="9.60961">
        <ele>448</ele>
        <time>2010-07-21T03:52:46Z</time>
        <course>53.0030732486928</course>
        <speed>6.9521534552526</speed>
      </trkpt>
      <trkpt lat="47.77348" lon="9.60961">
        <ele>448</ele>
        <time>2010-07-21T03:52:47Z</time>
        <course>244.225564020397</course>
        <speed>6.92617625940408</speed>
      </trkpt>
      <trkpt lat="47.77338" lon="9.60935">
        <ele>445</ele>
        <time>2010-07-21T03:52:50Z</time>
        <course>216.953415889066</course>
        <speed>6.92706093583896</speed>
      </trkpt>
      <trkpt lat="47.7732" lon="9.60918">
        <ele>442</ele>
        <time>2010-07-21T03:52:54Z</time>
        <course>280.472944068543</course>
        <speed>6.93119172862498</speed>
      </trkpt>
      <trkpt lat="47.7733" lon="9.6085">
        <ele>436</ele>
        <time>2010-07-21T03:53:01Z</time>
        <course>194.868602230869</course>
        <speed>6.90146634939322</speed>
      </trkpt>
      <trkpt lat="47.77324" lon="9.60848">
        <ele>436</ele>
        <time>2010-07-21T03:53:02Z</time>
        <course>194.868602230869</course>
        <speed>6.90146634939322</speed>
      </trkpt>
      <trkpt lat="47.77324" lon="9.60848">
        <ele>436</ele>
        <time>2010-07-21T03:53:03Z</time>
        <course>281.659416443637</course>
        <speed>6.93229309745098</speed>
      </trkpt>
      <trkpt lat="47.77335" lon="9.60781">
        <ele>435</ele>
        <time>2010-07-21T03:53:10Z</time>
        <course>270.006063750069</course>
        <speed>6.93314466159173</speed>
      </trkpt>
      <trkpt lat="47.77335" lon="9.60746">
        <ele>434</ele>
        <time>2010-07-21T03:53:14Z</time>
        <course>186.649773837694</course>
        <speed>6.93621463992079</speed>
      </trkpt>
      <trkpt lat="47.77294" lon="9.6074">
        <ele>433</ele>
        <time>2010-07-21T03:53:21Z</time>
        <course>275.311809067818</course>
        <speed>6.9324608638018</speed>
      </trkpt>
      <trkpt lat="47.77312" lon="9.60495">
        <ele>431</ele>
        <time>2010-07-21T03:53:47Z</time>
        <course>275.311809067818</course>
        <speed>6.9324608638018</speed>
      </trkpt>
    </trkseg>
  </trk>
</gpx>